<?xml version="1.0" encoding="UTF-8" standalone="no" ?>
<gpx xmlns="http://www.topografix.com/GPX/1/1" xmlns:xsi="http://www.w3.org/2001/XMLSchema-instance" xsi:schemaLocation="http://www.topografix.com/GPX/1/1 http://www.topografix.com/GPX/1/1/gpx.xsd" version="1.1" creator="VisuGPX - https://www.visugpx.com">
  <metadata>
    <name>24 Aout 2012 - Jour 4</name>
    <desc><![CDATA[24 Aout 2012 - Jour 4]]></desc>
  </metadata>
  <trk>
    <name><![CDATA[24-AOU-2012]]></name>
    <trkseg>
      <trkpt lat="47.4892" lon="-2.22522">
        <ele>36.67</ele>
        <time>2012-08-24T08:10:40Z</time>
      </trkpt>
      <trkpt lat="47.48913" lon="-2.22518">
        <ele>29.94</ele>
        <time>2012-08-24T08:10:57Z</time>
      </trkpt>
      <trkpt lat="47.48906" lon="-2.22522">
        <ele>31.38</ele>
        <time>2012-08-24T08:11:08Z</time>
      </trkpt>
      <trkpt lat="47.48888" lon="-2.22527">
        <ele>34.74</ele>
        <time>2012-08-24T08:11:27Z</time>
      </trkpt>
      <trkpt lat="47.48874" lon="-2.22528">
        <ele>34.74</ele>
        <time>2012-08-24T08:11:45Z</time>
      </trkpt>
      <trkpt lat="47.48871" lon="-2.22513">
        <ele>31.86</ele>
        <time>2012-08-24T08:11:58Z</time>
      </trkpt>
      <trkpt lat="47.4886" lon="-2.22518">
        <ele>31.86</ele>
        <time>2012-08-24T08:12:12Z</time>
      </trkpt>
      <trkpt lat="47.48855" lon="-2.22522">
        <ele>31.38</ele>
        <time>2012-08-24T08:12:27Z</time>
      </trkpt>
      <trkpt lat="47.48853" lon="-2.22523">
        <ele>31.86</ele>
        <time>2012-08-24T08:12:47Z</time>
      </trkpt>
      <trkpt lat="47.48853" lon="-2.22523">
        <ele>31.86</ele>
        <time>2012-08-24T08:13:08Z</time>
      </trkpt>
      <trkpt lat="47.48852" lon="-2.22523">
        <ele>30.9</ele>
        <time>2012-08-24T08:13:31Z</time>
      </trkpt>
      <trkpt lat="47.48851" lon="-2.22524">
        <ele>31.38</ele>
        <time>2012-08-24T08:13:51Z</time>
      </trkpt>
      <trkpt lat="47.48849" lon="-2.22524">
        <ele>30.9</ele>
        <time>2012-08-24T08:13:52Z</time>
      </trkpt>
      <trkpt lat="47.48847" lon="-2.225">
        <ele>29.46</ele>
        <time>2012-08-24T08:13:58Z</time>
      </trkpt>
      <trkpt lat="47.48851" lon="-2.22486">
        <ele>28.98</ele>
        <time>2012-08-24T08:14:00Z</time>
      </trkpt>
      <trkpt lat="47.48854" lon="-2.22479">
        <ele>28.5</ele>
        <time>2012-08-24T08:14:01Z</time>
      </trkpt>
      <trkpt lat="47.48876" lon="-2.22394">
        <ele>26.57</ele>
        <time>2012-08-24T08:14:11Z</time>
      </trkpt>
      <trkpt lat="47.48882" lon="-2.22345">
        <ele>26.09</ele>
        <time>2012-08-24T08:14:16Z</time>
      </trkpt>
      <trkpt lat="47.48882" lon="-2.22335">
        <ele>25.61</ele>
        <time>2012-08-24T08:14:17Z</time>
      </trkpt>
      <trkpt lat="47.48881" lon="-2.22325">
        <ele>25.61</ele>
        <time>2012-08-24T08:14:18Z</time>
      </trkpt>
      <trkpt lat="47.48879" lon="-2.22314">
        <ele>25.61</ele>
        <time>2012-08-24T08:14:19Z</time>
      </trkpt>
      <trkpt lat="47.48877" lon="-2.22304">
        <ele>25.61</ele>
        <time>2012-08-24T08:14:20Z</time>
      </trkpt>
      <trkpt lat="47.4885" lon="-2.22186">
        <ele>24.17</ele>
        <time>2012-08-24T08:14:34Z</time>
      </trkpt>
      <trkpt lat="47.48848" lon="-2.22179">
        <ele>24.17</ele>
        <time>2012-08-24T08:14:35Z</time>
      </trkpt>
      <trkpt lat="47.48825" lon="-2.22072">
        <ele>20.81</ele>
        <time>2012-08-24T08:14:49Z</time>
      </trkpt>
      <trkpt lat="47.48824" lon="-2.22064">
        <ele>20.81</ele>
        <time>2012-08-24T08:14:50Z</time>
      </trkpt>
      <trkpt lat="47.48822" lon="-2.22057">
        <ele>20.32</ele>
        <time>2012-08-24T08:14:51Z</time>
      </trkpt>
      <trkpt lat="47.48814" lon="-2.22026">
        <ele>19.36</ele>
        <time>2012-08-24T08:14:55Z</time>
      </trkpt>
      <trkpt lat="47.48811" lon="-2.2202">
        <ele>19.36</ele>
        <time>2012-08-24T08:14:56Z</time>
      </trkpt>
      <trkpt lat="47.48806" lon="-2.22016">
        <ele>19.36</ele>
        <time>2012-08-24T08:14:57Z</time>
      </trkpt>
      <trkpt lat="47.48801" lon="-2.22015">
        <ele>19.84</ele>
        <time>2012-08-24T08:14:58Z</time>
      </trkpt>
      <trkpt lat="47.48795" lon="-2.22016">
        <ele>19.84</ele>
        <time>2012-08-24T08:14:59Z</time>
      </trkpt>
      <trkpt lat="47.4879" lon="-2.22018">
        <ele>19.36</ele>
        <time>2012-08-24T08:15:00Z</time>
      </trkpt>
      <trkpt lat="47.48785" lon="-2.22021">
        <ele>18.88</ele>
        <time>2012-08-24T08:15:01Z</time>
      </trkpt>
      <trkpt lat="47.4878" lon="-2.22023">
        <ele>18.88</ele>
        <time>2012-08-24T08:15:02Z</time>
      </trkpt>
      <trkpt lat="47.48704" lon="-2.22071">
        <ele>17.92</ele>
        <time>2012-08-24T08:15:16Z</time>
      </trkpt>
      <trkpt lat="47.48679" lon="-2.22082">
        <ele>17.92</ele>
        <time>2012-08-24T08:15:20Z</time>
      </trkpt>
      <trkpt lat="47.48673" lon="-2.22085">
        <ele>17.92</ele>
        <time>2012-08-24T08:15:21Z</time>
      </trkpt>
      <trkpt lat="47.48667" lon="-2.22089">
        <ele>17.92</ele>
        <time>2012-08-24T08:15:22Z</time>
      </trkpt>
      <trkpt lat="47.48624" lon="-2.2211">
        <ele>16.96</ele>
        <time>2012-08-24T08:15:29Z</time>
      </trkpt>
      <trkpt lat="47.48617" lon="-2.22113">
        <ele>16.96</ele>
        <time>2012-08-24T08:15:30Z</time>
      </trkpt>
      <trkpt lat="47.48595" lon="-2.22124">
        <ele>16.48</ele>
        <time>2012-08-24T08:15:34Z</time>
      </trkpt>
      <trkpt lat="47.48564" lon="-2.22136">
        <ele>16.96</ele>
        <time>2012-08-24T08:15:44Z</time>
      </trkpt>
      <trkpt lat="47.48533" lon="-2.2214">
        <ele>17.92</ele>
        <time>2012-08-24T08:15:56Z</time>
      </trkpt>
      <trkpt lat="47.4851" lon="-2.22109">
        <ele>24.17</ele>
        <time>2012-08-24T08:16:09Z</time>
      </trkpt>
      <trkpt lat="47.48482" lon="-2.22063">
        <ele>30.42</ele>
        <time>2012-08-24T08:16:23Z</time>
      </trkpt>
      <trkpt lat="47.48451" lon="-2.22044">
        <ele>32.82</ele>
        <time>2012-08-24T08:16:36Z</time>
      </trkpt>
      <trkpt lat="47.48425" lon="-2.22055">
        <ele>33.78</ele>
        <time>2012-08-24T08:16:49Z</time>
      </trkpt>
      <trkpt lat="47.48416" lon="-2.22061">
        <ele>33.78</ele>
        <time>2012-08-24T08:16:54Z</time>
      </trkpt>
      <trkpt lat="47.48412" lon="-2.22063">
        <ele>34.26</ele>
        <time>2012-08-24T08:16:57Z</time>
      </trkpt>
      <trkpt lat="47.48411" lon="-2.22065">
        <ele>34.74</ele>
        <time>2012-08-24T08:16:58Z</time>
      </trkpt>
      <trkpt lat="47.48389" lon="-2.22078">
        <ele>39.55</ele>
        <time>2012-08-24T08:17:09Z</time>
      </trkpt>
      <trkpt lat="47.48362" lon="-2.22093">
        <ele>40.51</ele>
        <time>2012-08-24T08:17:21Z</time>
      </trkpt>
      <trkpt lat="47.48354" lon="-2.22095">
        <ele>40.99</ele>
        <time>2012-08-24T08:17:30Z</time>
      </trkpt>
      <trkpt lat="47.48353" lon="-2.22096">
        <ele>40.51</ele>
        <time>2012-08-24T08:17:49Z</time>
      </trkpt>
      <trkpt lat="47.48352" lon="-2.22095">
        <ele>40.99</ele>
        <time>2012-08-24T08:18:17Z</time>
      </trkpt>
      <trkpt lat="47.48351" lon="-2.22096">
        <ele>40.99</ele>
        <time>2012-08-24T08:18:41Z</time>
      </trkpt>
      <trkpt lat="47.48351" lon="-2.22096">
        <ele>40.03</ele>
        <time>2012-08-24T08:19:06Z</time>
      </trkpt>
      <trkpt lat="47.48351" lon="-2.22095">
        <ele>40.51</ele>
        <time>2012-08-24T08:19:34Z</time>
      </trkpt>
      <trkpt lat="47.4835" lon="-2.22096">
        <ele>39.55</ele>
        <time>2012-08-24T08:19:57Z</time>
      </trkpt>
      <trkpt lat="47.4835" lon="-2.22097">
        <ele>39.07</ele>
        <time>2012-08-24T08:20:24Z</time>
      </trkpt>
      <trkpt lat="47.48351" lon="-2.22096">
        <ele>38.59</ele>
        <time>2012-08-24T08:20:52Z</time>
      </trkpt>
      <trkpt lat="47.48351" lon="-2.22097">
        <ele>40.51</ele>
        <time>2012-08-24T08:21:19Z</time>
      </trkpt>
      <trkpt lat="47.48352" lon="-2.22097">
        <ele>40.99</ele>
        <time>2012-08-24T08:21:48Z</time>
      </trkpt>
      <trkpt lat="47.48351" lon="-2.22097">
        <ele>40.03</ele>
        <time>2012-08-24T08:22:11Z</time>
      </trkpt>
      <trkpt lat="47.48351" lon="-2.22098">
        <ele>40.51</ele>
        <time>2012-08-24T08:22:38Z</time>
      </trkpt>
      <trkpt lat="47.48351" lon="-2.22098">
        <ele>40.51</ele>
        <time>2012-08-24T08:23:02Z</time>
      </trkpt>
      <trkpt lat="47.48352" lon="-2.22101">
        <ele>39.07</ele>
        <time>2012-08-24T08:23:12Z</time>
      </trkpt>
      <trkpt lat="47.48353" lon="-2.22103">
        <ele>39.07</ele>
        <time>2012-08-24T08:23:13Z</time>
      </trkpt>
      <trkpt lat="47.48354" lon="-2.22107">
        <ele>39.07</ele>
        <time>2012-08-24T08:23:14Z</time>
      </trkpt>
      <trkpt lat="47.48355" lon="-2.2211">
        <ele>38.59</ele>
        <time>2012-08-24T08:23:15Z</time>
      </trkpt>
      <trkpt lat="47.48357" lon="-2.22114">
        <ele>38.59</ele>
        <time>2012-08-24T08:23:16Z</time>
      </trkpt>
      <trkpt lat="47.48382" lon="-2.22172">
        <ele>38.11</ele>
        <time>2012-08-24T08:23:29Z</time>
      </trkpt>
      <trkpt lat="47.48402" lon="-2.22227">
        <ele>37.15</ele>
        <time>2012-08-24T08:23:41Z</time>
      </trkpt>
      <trkpt lat="47.48423" lon="-2.22287">
        <ele>39.55</ele>
        <time>2012-08-24T08:23:55Z</time>
      </trkpt>
      <trkpt lat="47.48437" lon="-2.2233">
        <ele>41.47</ele>
        <time>2012-08-24T08:24:06Z</time>
      </trkpt>
      <trkpt lat="47.48444" lon="-2.22383">
        <ele>42.44</ele>
        <time>2012-08-24T08:24:18Z</time>
      </trkpt>
      <trkpt lat="47.48441" lon="-2.22385">
        <ele>41.95</ele>
        <time>2012-08-24T08:24:19Z</time>
      </trkpt>
      <trkpt lat="47.48437" lon="-2.22385">
        <ele>41.95</ele>
        <time>2012-08-24T08:24:20Z</time>
      </trkpt>
      <trkpt lat="47.48374" lon="-2.22394">
        <ele>38.59</ele>
        <time>2012-08-24T08:24:33Z</time>
      </trkpt>
      <trkpt lat="47.48351" lon="-2.22401">
        <ele>37.63</ele>
        <time>2012-08-24T08:24:37Z</time>
      </trkpt>
      <trkpt lat="47.48346" lon="-2.22404">
        <ele>37.15</ele>
        <time>2012-08-24T08:24:38Z</time>
      </trkpt>
      <trkpt lat="47.48341" lon="-2.22407">
        <ele>36.67</ele>
        <time>2012-08-24T08:24:39Z</time>
      </trkpt>
      <trkpt lat="47.48255" lon="-2.22449">
        <ele>32.82</ele>
        <time>2012-08-24T08:24:54Z</time>
      </trkpt>
      <trkpt lat="47.48241" lon="-2.22458">
        <ele>32.34</ele>
        <time>2012-08-24T08:24:57Z</time>
      </trkpt>
      <trkpt lat="47.48224" lon="-2.22465">
        <ele>31.86</ele>
        <time>2012-08-24T08:25:00Z</time>
      </trkpt>
      <trkpt lat="47.48218" lon="-2.22466">
        <ele>31.38</ele>
        <time>2012-08-24T08:25:01Z</time>
      </trkpt>
      <trkpt lat="47.48212" lon="-2.22466">
        <ele>31.38</ele>
        <time>2012-08-24T08:25:02Z</time>
      </trkpt>
      <trkpt lat="47.48206" lon="-2.22464">
        <ele>30.9</ele>
        <time>2012-08-24T08:25:03Z</time>
      </trkpt>
      <trkpt lat="47.48199" lon="-2.22463">
        <ele>30.9</ele>
        <time>2012-08-24T08:25:04Z</time>
      </trkpt>
      <trkpt lat="47.4818" lon="-2.22454">
        <ele>29.94</ele>
        <time>2012-08-24T08:25:07Z</time>
      </trkpt>
      <trkpt lat="47.48174" lon="-2.2245">
        <ele>29.46</ele>
        <time>2012-08-24T08:25:08Z</time>
      </trkpt>
      <trkpt lat="47.48169" lon="-2.22445">
        <ele>29.46</ele>
        <time>2012-08-24T08:25:09Z</time>
      </trkpt>
      <trkpt lat="47.48164" lon="-2.22439">
        <ele>29.46</ele>
        <time>2012-08-24T08:25:10Z</time>
      </trkpt>
      <trkpt lat="47.48159" lon="-2.22433">
        <ele>28.98</ele>
        <time>2012-08-24T08:25:11Z</time>
      </trkpt>
      <trkpt lat="47.48104" lon="-2.22337">
        <ele>25.61</ele>
        <time>2012-08-24T08:25:25Z</time>
      </trkpt>
      <trkpt lat="47.48093" lon="-2.22313">
        <ele>24.65</ele>
        <time>2012-08-24T08:25:28Z</time>
      </trkpt>
      <trkpt lat="47.48088" lon="-2.22306">
        <ele>24.17</ele>
        <time>2012-08-24T08:25:29Z</time>
      </trkpt>
      <trkpt lat="47.48083" lon="-2.223">
        <ele>23.69</ele>
        <time>2012-08-24T08:25:30Z</time>
      </trkpt>
      <trkpt lat="47.48077" lon="-2.22295">
        <ele>23.21</ele>
        <time>2012-08-24T08:25:31Z</time>
      </trkpt>
      <trkpt lat="47.48071" lon="-2.22291">
        <ele>23.21</ele>
        <time>2012-08-24T08:25:32Z</time>
      </trkpt>
      <trkpt lat="47.48064" lon="-2.22288">
        <ele>22.73</ele>
        <time>2012-08-24T08:25:33Z</time>
      </trkpt>
      <trkpt lat="47.48058" lon="-2.22284">
        <ele>22.73</ele>
        <time>2012-08-24T08:25:34Z</time>
      </trkpt>
      <trkpt lat="47.48052" lon="-2.22279">
        <ele>22.25</ele>
        <time>2012-08-24T08:25:35Z</time>
      </trkpt>
      <trkpt lat="47.48047" lon="-2.22272">
        <ele>21.77</ele>
        <time>2012-08-24T08:25:36Z</time>
      </trkpt>
      <trkpt lat="47.48043" lon="-2.22263">
        <ele>21.29</ele>
        <time>2012-08-24T08:25:37Z</time>
      </trkpt>
      <trkpt lat="47.48039" lon="-2.22254">
        <ele>20.81</ele>
        <time>2012-08-24T08:25:38Z</time>
      </trkpt>
      <trkpt lat="47.47979" lon="-2.22149">
        <ele>16</ele>
        <time>2012-08-24T08:25:50Z</time>
      </trkpt>
      <trkpt lat="47.47946" lon="-2.22116">
        <ele>14.56</ele>
        <time>2012-08-24T08:25:55Z</time>
      </trkpt>
      <trkpt lat="47.47931" lon="-2.22109">
        <ele>14.08</ele>
        <time>2012-08-24T08:25:57Z</time>
      </trkpt>
      <trkpt lat="47.47923" lon="-2.22107">
        <ele>13.6</ele>
        <time>2012-08-24T08:25:58Z</time>
      </trkpt>
      <trkpt lat="47.47915" lon="-2.22106">
        <ele>13.12</ele>
        <time>2012-08-24T08:25:59Z</time>
      </trkpt>
      <trkpt lat="47.47907" lon="-2.22107">
        <ele>13.12</ele>
        <time>2012-08-24T08:26:00Z</time>
      </trkpt>
      <trkpt lat="47.47899" lon="-2.22109">
        <ele>12.63</ele>
        <time>2012-08-24T08:26:01Z</time>
      </trkpt>
      <trkpt lat="47.47864" lon="-2.22121">
        <ele>11.19</ele>
        <time>2012-08-24T08:26:06Z</time>
      </trkpt>
      <trkpt lat="47.47858" lon="-2.22125">
        <ele>11.19</ele>
        <time>2012-08-24T08:26:07Z</time>
      </trkpt>
      <trkpt lat="47.47853" lon="-2.22129">
        <ele>10.71</ele>
        <time>2012-08-24T08:26:08Z</time>
      </trkpt>
      <trkpt lat="47.47849" lon="-2.22135">
        <ele>10.71</ele>
        <time>2012-08-24T08:26:09Z</time>
      </trkpt>
      <trkpt lat="47.47844" lon="-2.22142">
        <ele>10.71</ele>
        <time>2012-08-24T08:26:10Z</time>
      </trkpt>
      <trkpt lat="47.47841" lon="-2.2215">
        <ele>10.71</ele>
        <time>2012-08-24T08:26:11Z</time>
      </trkpt>
      <trkpt lat="47.47837" lon="-2.22159">
        <ele>10.23</ele>
        <time>2012-08-24T08:26:12Z</time>
      </trkpt>
      <trkpt lat="47.47835" lon="-2.22168">
        <ele>10.23</ele>
        <time>2012-08-24T08:26:13Z</time>
      </trkpt>
      <trkpt lat="47.47834" lon="-2.22178">
        <ele>10.23</ele>
        <time>2012-08-24T08:26:14Z</time>
      </trkpt>
      <trkpt lat="47.47826" lon="-2.22291">
        <ele>11.67</ele>
        <time>2012-08-24T08:26:27Z</time>
      </trkpt>
      <trkpt lat="47.47825" lon="-2.22297">
        <ele>11.67</ele>
        <time>2012-08-24T08:26:28Z</time>
      </trkpt>
      <trkpt lat="47.47814" lon="-2.22359">
        <ele>11.19</ele>
        <time>2012-08-24T08:26:40Z</time>
      </trkpt>
      <trkpt lat="47.47798" lon="-2.22427">
        <ele>11.67</ele>
        <time>2012-08-24T08:26:51Z</time>
      </trkpt>
      <trkpt lat="47.47801" lon="-2.22497">
        <ele>11.67</ele>
        <time>2012-08-24T08:27:02Z</time>
      </trkpt>
      <trkpt lat="47.47803" lon="-2.22522">
        <ele>12.15</ele>
        <time>2012-08-24T08:27:06Z</time>
      </trkpt>
      <trkpt lat="47.47804" lon="-2.22528">
        <ele>12.15</ele>
        <time>2012-08-24T08:27:07Z</time>
      </trkpt>
      <trkpt lat="47.47815" lon="-2.22632">
        <ele>12.63</ele>
        <time>2012-08-24T08:27:21Z</time>
      </trkpt>
      <trkpt lat="47.47834" lon="-2.2272">
        <ele>13.12</ele>
        <time>2012-08-24T08:27:33Z</time>
      </trkpt>
      <trkpt lat="47.47839" lon="-2.22746">
        <ele>13.12</ele>
        <time>2012-08-24T08:27:37Z</time>
      </trkpt>
      <trkpt lat="47.47841" lon="-2.22765">
        <ele>13.12</ele>
        <time>2012-08-24T08:27:40Z</time>
      </trkpt>
      <trkpt lat="47.47841" lon="-2.22772">
        <ele>13.12</ele>
        <time>2012-08-24T08:27:41Z</time>
      </trkpt>
      <trkpt lat="47.47841" lon="-2.22806">
        <ele>12.63</ele>
        <time>2012-08-24T08:27:46Z</time>
      </trkpt>
      <trkpt lat="47.47835" lon="-2.22903">
        <ele>11.67</ele>
        <time>2012-08-24T08:28:00Z</time>
      </trkpt>
      <trkpt lat="47.47836" lon="-2.22941">
        <ele>10.71</ele>
        <time>2012-08-24T08:28:05Z</time>
      </trkpt>
      <trkpt lat="47.47837" lon="-2.22949">
        <ele>10.71</ele>
        <time>2012-08-24T08:28:06Z</time>
      </trkpt>
      <trkpt lat="47.47838" lon="-2.22956">
        <ele>10.71</ele>
        <time>2012-08-24T08:28:07Z</time>
      </trkpt>
      <trkpt lat="47.4784" lon="-2.22963">
        <ele>10.71</ele>
        <time>2012-08-24T08:28:08Z</time>
      </trkpt>
      <trkpt lat="47.47842" lon="-2.2297">
        <ele>10.71</ele>
        <time>2012-08-24T08:28:09Z</time>
      </trkpt>
      <trkpt lat="47.47844" lon="-2.22976">
        <ele>10.71</ele>
        <time>2012-08-24T08:28:10Z</time>
      </trkpt>
      <trkpt lat="47.47854" lon="-2.23027">
        <ele>10.71</ele>
        <time>2012-08-24T08:28:20Z</time>
      </trkpt>
      <trkpt lat="47.47851" lon="-2.2303">
        <ele>10.71</ele>
        <time>2012-08-24T08:28:21Z</time>
      </trkpt>
      <trkpt lat="47.47848" lon="-2.23031">
        <ele>10.71</ele>
        <time>2012-08-24T08:28:22Z</time>
      </trkpt>
      <trkpt lat="47.47846" lon="-2.23031">
        <ele>10.71</ele>
        <time>2012-08-24T08:28:23Z</time>
      </trkpt>
      <trkpt lat="47.47843" lon="-2.23032">
        <ele>10.71</ele>
        <time>2012-08-24T08:28:24Z</time>
      </trkpt>
      <trkpt lat="47.47799" lon="-2.2306">
        <ele>10.23</ele>
        <time>2012-08-24T08:28:36Z</time>
      </trkpt>
      <trkpt lat="47.47773" lon="-2.23113">
        <ele>9.75</ele>
        <time>2012-08-24T08:28:47Z</time>
      </trkpt>
      <trkpt lat="47.47771" lon="-2.23119">
        <ele>9.75</ele>
        <time>2012-08-24T08:28:48Z</time>
      </trkpt>
      <trkpt lat="47.47766" lon="-2.2313">
        <ele>10.23</ele>
        <time>2012-08-24T08:28:50Z</time>
      </trkpt>
      <trkpt lat="47.47725" lon="-2.23203">
        <ele>11.67</ele>
        <time>2012-08-24T08:29:05Z</time>
      </trkpt>
      <trkpt lat="47.47687" lon="-2.23272">
        <ele>10.71</ele>
        <time>2012-08-24T08:29:19Z</time>
      </trkpt>
      <trkpt lat="47.47668" lon="-2.23309">
        <ele>11.19</ele>
        <time>2012-08-24T08:29:29Z</time>
      </trkpt>
      <trkpt lat="47.47666" lon="-2.2331">
        <ele>11.19</ele>
        <time>2012-08-24T08:29:30Z</time>
      </trkpt>
      <trkpt lat="47.47663" lon="-2.23309">
        <ele>11.19</ele>
        <time>2012-08-24T08:29:31Z</time>
      </trkpt>
      <trkpt lat="47.4766" lon="-2.23307">
        <ele>11.67</ele>
        <time>2012-08-24T08:29:32Z</time>
      </trkpt>
      <trkpt lat="47.47656" lon="-2.23304">
        <ele>11.67</ele>
        <time>2012-08-24T08:29:33Z</time>
      </trkpt>
      <trkpt lat="47.47652" lon="-2.233">
        <ele>11.67</ele>
        <time>2012-08-24T08:29:34Z</time>
      </trkpt>
      <trkpt lat="47.47648" lon="-2.23295">
        <ele>11.67</ele>
        <time>2012-08-24T08:29:35Z</time>
      </trkpt>
      <trkpt lat="47.47644" lon="-2.23291">
        <ele>11.67</ele>
        <time>2012-08-24T08:29:36Z</time>
      </trkpt>
      <trkpt lat="47.47565" lon="-2.23206">
        <ele>10.23</ele>
        <time>2012-08-24T08:29:54Z</time>
      </trkpt>
      <trkpt lat="47.47484" lon="-2.23115">
        <ele>9.75</ele>
        <time>2012-08-24T08:30:11Z</time>
      </trkpt>
      <trkpt lat="47.47403" lon="-2.23027">
        <ele>8.31</ele>
        <time>2012-08-24T08:30:28Z</time>
      </trkpt>
      <trkpt lat="47.47314" lon="-2.22931">
        <ele>6.39</ele>
        <time>2012-08-24T08:30:47Z</time>
      </trkpt>
      <trkpt lat="47.4723" lon="-2.22844">
        <ele>5.42</ele>
        <time>2012-08-24T08:31:05Z</time>
      </trkpt>
      <trkpt lat="47.47155" lon="-2.22766">
        <ele>3.98</ele>
        <time>2012-08-24T08:31:22Z</time>
      </trkpt>
      <trkpt lat="47.47086" lon="-2.22694">
        <ele>3.98</ele>
        <time>2012-08-24T08:31:38Z</time>
      </trkpt>
      <trkpt lat="47.47028" lon="-2.22634">
        <ele>5.91</ele>
        <time>2012-08-24T08:31:53Z</time>
      </trkpt>
      <trkpt lat="47.46961" lon="-2.22565">
        <ele>8.79</ele>
        <time>2012-08-24T08:32:10Z</time>
      </trkpt>
      <trkpt lat="47.46938" lon="-2.2254">
        <ele>9.27</ele>
        <time>2012-08-24T08:32:16Z</time>
      </trkpt>
      <trkpt lat="47.46935" lon="-2.22537">
        <ele>9.27</ele>
        <time>2012-08-24T08:32:17Z</time>
      </trkpt>
      <trkpt lat="47.46911" lon="-2.22513">
        <ele>9.27</ele>
        <time>2012-08-24T08:32:23Z</time>
      </trkpt>
      <trkpt lat="47.46908" lon="-2.22508">
        <ele>8.79</ele>
        <time>2012-08-24T08:32:24Z</time>
      </trkpt>
      <trkpt lat="47.46883" lon="-2.2248">
        <ele>7.83</ele>
        <time>2012-08-24T08:32:31Z</time>
      </trkpt>
      <trkpt lat="47.46824" lon="-2.22436">
        <ele>6.87</ele>
        <time>2012-08-24T08:32:47Z</time>
      </trkpt>
      <trkpt lat="47.46747" lon="-2.22389">
        <ele>7.35</ele>
        <time>2012-08-24T08:33:04Z</time>
      </trkpt>
      <trkpt lat="47.46686" lon="-2.22349">
        <ele>7.35</ele>
        <time>2012-08-24T08:33:18Z</time>
      </trkpt>
      <trkpt lat="47.4667" lon="-2.22338">
        <ele>7.35</ele>
        <time>2012-08-24T08:33:22Z</time>
      </trkpt>
      <trkpt lat="47.46629" lon="-2.22282">
        <ele>6.87</ele>
        <time>2012-08-24T08:33:35Z</time>
      </trkpt>
      <trkpt lat="47.46602" lon="-2.2223">
        <ele>6.87</ele>
        <time>2012-08-24T08:33:47Z</time>
      </trkpt>
      <trkpt lat="47.46598" lon="-2.22232">
        <ele>6.87</ele>
        <time>2012-08-24T08:33:48Z</time>
      </trkpt>
      <trkpt lat="47.46596" lon="-2.22235">
        <ele>6.87</ele>
        <time>2012-08-24T08:33:49Z</time>
      </trkpt>
      <trkpt lat="47.46595" lon="-2.22239">
        <ele>6.39</ele>
        <time>2012-08-24T08:33:50Z</time>
      </trkpt>
      <trkpt lat="47.46594" lon="-2.22244">
        <ele>6.39</ele>
        <time>2012-08-24T08:33:51Z</time>
      </trkpt>
      <trkpt lat="47.46594" lon="-2.2225">
        <ele>6.39</ele>
        <time>2012-08-24T08:33:52Z</time>
      </trkpt>
      <trkpt lat="47.46595" lon="-2.22256">
        <ele>5.91</ele>
        <time>2012-08-24T08:33:53Z</time>
      </trkpt>
      <trkpt lat="47.46604" lon="-2.22347">
        <ele>5.91</ele>
        <time>2012-08-24T08:34:07Z</time>
      </trkpt>
      <trkpt lat="47.46604" lon="-2.22354">
        <ele>5.91</ele>
        <time>2012-08-24T08:34:08Z</time>
      </trkpt>
      <trkpt lat="47.46603" lon="-2.22361">
        <ele>5.91</ele>
        <time>2012-08-24T08:34:09Z</time>
      </trkpt>
      <trkpt lat="47.46599" lon="-2.22393">
        <ele>5.91</ele>
        <time>2012-08-24T08:34:14Z</time>
      </trkpt>
      <trkpt lat="47.46584" lon="-2.22459">
        <ele>5.42</ele>
        <time>2012-08-24T08:34:26Z</time>
      </trkpt>
      <trkpt lat="47.4658" lon="-2.2246">
        <ele>5.42</ele>
        <time>2012-08-24T08:34:27Z</time>
      </trkpt>
      <trkpt lat="47.46576" lon="-2.2246">
        <ele>5.42</ele>
        <time>2012-08-24T08:34:28Z</time>
      </trkpt>
      <trkpt lat="47.46572" lon="-2.22459">
        <ele>5.42</ele>
        <time>2012-08-24T08:34:29Z</time>
      </trkpt>
      <trkpt lat="47.46568" lon="-2.22458">
        <ele>5.42</ele>
        <time>2012-08-24T08:34:30Z</time>
      </trkpt>
      <trkpt lat="47.46526" lon="-2.22444">
        <ele>5.91</ele>
        <time>2012-08-24T08:34:43Z</time>
      </trkpt>
      <trkpt lat="47.46522" lon="-2.22443">
        <ele>5.91</ele>
        <time>2012-08-24T08:34:44Z</time>
      </trkpt>
      <trkpt lat="47.46518" lon="-2.22441">
        <ele>5.91</ele>
        <time>2012-08-24T08:34:45Z</time>
      </trkpt>
      <trkpt lat="47.46501" lon="-2.22433">
        <ele>6.39</ele>
        <time>2012-08-24T08:34:49Z</time>
      </trkpt>
      <trkpt lat="47.46496" lon="-2.22433">
        <ele>6.39</ele>
        <time>2012-08-24T08:34:50Z</time>
      </trkpt>
      <trkpt lat="47.46465" lon="-2.22434">
        <ele>7.35</ele>
        <time>2012-08-24T08:35:01Z</time>
      </trkpt>
      <trkpt lat="47.46454" lon="-2.22441">
        <ele>7.35</ele>
        <time>2012-08-24T08:35:07Z</time>
      </trkpt>
      <trkpt lat="47.46395" lon="-2.22494">
        <ele>6.39</ele>
        <time>2012-08-24T08:35:21Z</time>
      </trkpt>
      <trkpt lat="47.46344" lon="-2.22534">
        <ele>5.91</ele>
        <time>2012-08-24T08:35:33Z</time>
      </trkpt>
      <trkpt lat="47.46337" lon="-2.22543">
        <ele>5.42</ele>
        <time>2012-08-24T08:35:35Z</time>
      </trkpt>
      <trkpt lat="47.46305" lon="-2.22613">
        <ele>5.91</ele>
        <time>2012-08-24T08:35:49Z</time>
      </trkpt>
      <trkpt lat="47.46268" lon="-2.2271">
        <ele>6.87</ele>
        <time>2012-08-24T08:36:06Z</time>
      </trkpt>
      <trkpt lat="47.46247" lon="-2.22764">
        <ele>7.83</ele>
        <time>2012-08-24T08:36:16Z</time>
      </trkpt>
      <trkpt lat="47.4621" lon="-2.22864">
        <ele>7.35</ele>
        <time>2012-08-24T08:36:32Z</time>
      </trkpt>
      <trkpt lat="47.46172" lon="-2.22969">
        <ele>5.42</ele>
        <time>2012-08-24T08:36:49Z</time>
      </trkpt>
      <trkpt lat="47.46131" lon="-2.23074">
        <ele>5.42</ele>
        <time>2012-08-24T08:37:06Z</time>
      </trkpt>
      <trkpt lat="47.46092" lon="-2.23179">
        <ele>5.91</ele>
        <time>2012-08-24T08:37:24Z</time>
      </trkpt>
      <trkpt lat="47.46058" lon="-2.23267">
        <ele>6.39</ele>
        <time>2012-08-24T08:37:40Z</time>
      </trkpt>
      <trkpt lat="47.46045" lon="-2.23306">
        <ele>6.87</ele>
        <time>2012-08-24T08:37:47Z</time>
      </trkpt>
      <trkpt lat="47.46008" lon="-2.23413">
        <ele>8.31</ele>
        <time>2012-08-24T08:38:06Z</time>
      </trkpt>
      <trkpt lat="47.4599" lon="-2.2347">
        <ele>8.79</ele>
        <time>2012-08-24T08:38:16Z</time>
      </trkpt>
      <trkpt lat="47.45974" lon="-2.23515">
        <ele>9.27</ele>
        <time>2012-08-24T08:38:24Z</time>
      </trkpt>
      <trkpt lat="47.45972" lon="-2.23522">
        <ele>9.27</ele>
        <time>2012-08-24T08:38:25Z</time>
      </trkpt>
      <trkpt lat="47.45938" lon="-2.23602">
        <ele>6.87</ele>
        <time>2012-08-24T08:38:39Z</time>
      </trkpt>
      <trkpt lat="47.45898" lon="-2.23696">
        <ele>5.42</ele>
        <time>2012-08-24T08:38:53Z</time>
      </trkpt>
      <trkpt lat="47.45854" lon="-2.23797">
        <ele>4.46</ele>
        <time>2012-08-24T08:39:09Z</time>
      </trkpt>
      <trkpt lat="47.45817" lon="-2.23883">
        <ele>2.06</ele>
        <time>2012-08-24T08:39:24Z</time>
      </trkpt>
      <trkpt lat="47.45779" lon="-2.23966">
        <ele>1.1</ele>
        <time>2012-08-24T08:39:39Z</time>
      </trkpt>
      <trkpt lat="47.45738" lon="-2.24056">
        <ele>2.54</ele>
        <time>2012-08-24T08:39:54Z</time>
      </trkpt>
      <trkpt lat="47.45732" lon="-2.2407">
        <ele>3.02</ele>
        <time>2012-08-24T08:39:57Z</time>
      </trkpt>
      <trkpt lat="47.45728" lon="-2.24074">
        <ele>3.02</ele>
        <time>2012-08-24T08:39:58Z</time>
      </trkpt>
      <trkpt lat="47.45725" lon="-2.24076">
        <ele>3.02</ele>
        <time>2012-08-24T08:39:59Z</time>
      </trkpt>
      <trkpt lat="47.45721" lon="-2.24076">
        <ele>3.02</ele>
        <time>2012-08-24T08:40:00Z</time>
      </trkpt>
      <trkpt lat="47.45718" lon="-2.24075">
        <ele>3.02</ele>
        <time>2012-08-24T08:40:01Z</time>
      </trkpt>
      <trkpt lat="47.45716" lon="-2.24073">
        <ele>3.02</ele>
        <time>2012-08-24T08:40:02Z</time>
      </trkpt>
      <trkpt lat="47.45714" lon="-2.24072">
        <ele>3.02</ele>
        <time>2012-08-24T08:40:03Z</time>
      </trkpt>
      <trkpt lat="47.45712" lon="-2.2407">
        <ele>3.5</ele>
        <time>2012-08-24T08:40:04Z</time>
      </trkpt>
      <trkpt lat="47.4568" lon="-2.24042">
        <ele>4.94</ele>
        <time>2012-08-24T08:40:16Z</time>
      </trkpt>
      <trkpt lat="47.4564" lon="-2.24021">
        <ele>6.39</ele>
        <time>2012-08-24T08:40:30Z</time>
      </trkpt>
      <trkpt lat="47.45602" lon="-2.24035">
        <ele>6.39</ele>
        <time>2012-08-24T08:40:41Z</time>
      </trkpt>
      <trkpt lat="47.45599" lon="-2.24039">
        <ele>6.39</ele>
        <time>2012-08-24T08:40:42Z</time>
      </trkpt>
      <trkpt lat="47.45563" lon="-2.2408">
        <ele>5.91</ele>
        <time>2012-08-24T08:40:54Z</time>
      </trkpt>
      <trkpt lat="47.45531" lon="-2.2411">
        <ele>5.91</ele>
        <time>2012-08-24T08:41:04Z</time>
      </trkpt>
      <trkpt lat="47.45528" lon="-2.24114">
        <ele>5.42</ele>
        <time>2012-08-24T08:41:05Z</time>
      </trkpt>
      <trkpt lat="47.45526" lon="-2.24119">
        <ele>5.42</ele>
        <time>2012-08-24T08:41:06Z</time>
      </trkpt>
      <trkpt lat="47.45495" lon="-2.24155">
        <ele>5.91</ele>
        <time>2012-08-24T08:41:16Z</time>
      </trkpt>
      <trkpt lat="47.45487" lon="-2.24157">
        <ele>5.91</ele>
        <time>2012-08-24T08:41:18Z</time>
      </trkpt>
      <trkpt lat="47.45427" lon="-2.24152">
        <ele>4.94</ele>
        <time>2012-08-24T08:41:32Z</time>
      </trkpt>
      <trkpt lat="47.45349" lon="-2.24148">
        <ele>4.46</ele>
        <time>2012-08-24T08:41:50Z</time>
      </trkpt>
      <trkpt lat="47.4528" lon="-2.24145">
        <ele>3.98</ele>
        <time>2012-08-24T08:42:06Z</time>
      </trkpt>
      <trkpt lat="47.45275" lon="-2.24145">
        <ele>3.98</ele>
        <time>2012-08-24T08:42:07Z</time>
      </trkpt>
      <trkpt lat="47.4524" lon="-2.24144">
        <ele>3.98</ele>
        <time>2012-08-24T08:42:15Z</time>
      </trkpt>
      <trkpt lat="47.45236" lon="-2.24144">
        <ele>4.46</ele>
        <time>2012-08-24T08:42:16Z</time>
      </trkpt>
      <trkpt lat="47.45232" lon="-2.24143">
        <ele>4.46</ele>
        <time>2012-08-24T08:42:17Z</time>
      </trkpt>
      <trkpt lat="47.45228" lon="-2.24143">
        <ele>4.46</ele>
        <time>2012-08-24T08:42:18Z</time>
      </trkpt>
      <trkpt lat="47.45224" lon="-2.24143">
        <ele>4.46</ele>
        <time>2012-08-24T08:42:19Z</time>
      </trkpt>
      <trkpt lat="47.45191" lon="-2.24141">
        <ele>4.46</ele>
        <time>2012-08-24T08:42:27Z</time>
      </trkpt>
      <trkpt lat="47.45174" lon="-2.24141">
        <ele>3.98</ele>
        <time>2012-08-24T08:42:31Z</time>
      </trkpt>
      <trkpt lat="47.4517" lon="-2.24141">
        <ele>3.98</ele>
        <time>2012-08-24T08:42:32Z</time>
      </trkpt>
      <trkpt lat="47.4511" lon="-2.24149">
        <ele>3.98</ele>
        <time>2012-08-24T08:42:47Z</time>
      </trkpt>
      <trkpt lat="47.45054" lon="-2.24156">
        <ele>3.98</ele>
        <time>2012-08-24T08:43:01Z</time>
      </trkpt>
      <trkpt lat="47.45004" lon="-2.24167">
        <ele>4.46</ele>
        <time>2012-08-24T08:43:15Z</time>
      </trkpt>
      <trkpt lat="47.44965" lon="-2.24208">
        <ele>4.94</ele>
        <time>2012-08-24T08:43:29Z</time>
      </trkpt>
      <trkpt lat="47.4494" lon="-2.24242">
        <ele>5.42</ele>
        <time>2012-08-24T08:43:41Z</time>
      </trkpt>
      <trkpt lat="47.44937" lon="-2.2424">
        <ele>5.91</ele>
        <time>2012-08-24T08:43:42Z</time>
      </trkpt>
      <trkpt lat="47.44933" lon="-2.24238">
        <ele>5.91</ele>
        <time>2012-08-24T08:43:43Z</time>
      </trkpt>
      <trkpt lat="47.44929" lon="-2.24235">
        <ele>5.91</ele>
        <time>2012-08-24T08:43:44Z</time>
      </trkpt>
      <trkpt lat="47.44925" lon="-2.24231">
        <ele>5.91</ele>
        <time>2012-08-24T08:43:45Z</time>
      </trkpt>
      <trkpt lat="47.4492" lon="-2.24229">
        <ele>5.91</ele>
        <time>2012-08-24T08:43:46Z</time>
      </trkpt>
      <trkpt lat="47.44898" lon="-2.24206">
        <ele>6.39</ele>
        <time>2012-08-24T08:43:52Z</time>
      </trkpt>
      <trkpt lat="47.44879" lon="-2.24186">
        <ele>6.39</ele>
        <time>2012-08-24T08:43:58Z</time>
      </trkpt>
      <trkpt lat="47.44875" lon="-2.24187">
        <ele>5.91</ele>
        <time>2012-08-24T08:43:59Z</time>
      </trkpt>
      <trkpt lat="47.44872" lon="-2.24191">
        <ele>5.91</ele>
        <time>2012-08-24T08:44:00Z</time>
      </trkpt>
      <trkpt lat="47.4487" lon="-2.24196">
        <ele>5.42</ele>
        <time>2012-08-24T08:44:01Z</time>
      </trkpt>
      <trkpt lat="47.44867" lon="-2.242">
        <ele>5.42</ele>
        <time>2012-08-24T08:44:02Z</time>
      </trkpt>
      <trkpt lat="47.44865" lon="-2.24205">
        <ele>5.42</ele>
        <time>2012-08-24T08:44:03Z</time>
      </trkpt>
      <trkpt lat="47.44842" lon="-2.2424">
        <ele>5.42</ele>
        <time>2012-08-24T08:44:11Z</time>
      </trkpt>
      <trkpt lat="47.44793" lon="-2.24306">
        <ele>5.91</ele>
        <time>2012-08-24T08:44:27Z</time>
      </trkpt>
      <trkpt lat="47.44762" lon="-2.2435">
        <ele>6.39</ele>
        <time>2012-08-24T08:44:39Z</time>
      </trkpt>
      <trkpt lat="47.44728" lon="-2.24382">
        <ele>6.39</ele>
        <time>2012-08-24T08:44:50Z</time>
      </trkpt>
      <trkpt lat="47.44727" lon="-2.24387">
        <ele>6.39</ele>
        <time>2012-08-24T08:44:51Z</time>
      </trkpt>
      <trkpt lat="47.44727" lon="-2.24466">
        <ele>7.83</ele>
        <time>2012-08-24T08:45:04Z</time>
      </trkpt>
      <trkpt lat="47.44726" lon="-2.24533">
        <ele>7.83</ele>
        <time>2012-08-24T08:45:14Z</time>
      </trkpt>
      <trkpt lat="47.44725" lon="-2.24547">
        <ele>7.35</ele>
        <time>2012-08-24T08:45:16Z</time>
      </trkpt>
      <trkpt lat="47.44728" lon="-2.24656">
        <ele>7.35</ele>
        <time>2012-08-24T08:45:32Z</time>
      </trkpt>
      <trkpt lat="47.44725" lon="-2.24713">
        <ele>6.39</ele>
        <time>2012-08-24T08:45:41Z</time>
      </trkpt>
      <trkpt lat="47.44726" lon="-2.2472">
        <ele>6.39</ele>
        <time>2012-08-24T08:45:42Z</time>
      </trkpt>
      <trkpt lat="47.44727" lon="-2.24727">
        <ele>5.91</ele>
        <time>2012-08-24T08:45:43Z</time>
      </trkpt>
      <trkpt lat="47.44731" lon="-2.24856">
        <ele>5.91</ele>
        <time>2012-08-24T08:46:01Z</time>
      </trkpt>
      <trkpt lat="47.44741" lon="-2.24976">
        <ele>4.46</ele>
        <time>2012-08-24T08:46:18Z</time>
      </trkpt>
      <trkpt lat="47.44749" lon="-2.2509">
        <ele>5.42</ele>
        <time>2012-08-24T08:46:34Z</time>
      </trkpt>
      <trkpt lat="47.4475" lon="-2.2514">
        <ele>5.42</ele>
        <time>2012-08-24T08:46:41Z</time>
      </trkpt>
      <trkpt lat="47.44748" lon="-2.25159">
        <ele>5.91</ele>
        <time>2012-08-24T08:46:44Z</time>
      </trkpt>
      <trkpt lat="47.44744" lon="-2.25172">
        <ele>5.91</ele>
        <time>2012-08-24T08:46:46Z</time>
      </trkpt>
      <trkpt lat="47.44742" lon="-2.25177">
        <ele>5.91</ele>
        <time>2012-08-24T08:46:47Z</time>
      </trkpt>
      <trkpt lat="47.44691" lon="-2.25247">
        <ele>5.42</ele>
        <time>2012-08-24T08:47:02Z</time>
      </trkpt>
      <trkpt lat="47.44662" lon="-2.25284">
        <ele>4.46</ele>
        <time>2012-08-24T08:47:11Z</time>
      </trkpt>
      <trkpt lat="47.44658" lon="-2.25287">
        <ele>4.46</ele>
        <time>2012-08-24T08:47:12Z</time>
      </trkpt>
      <trkpt lat="47.44625" lon="-2.25335">
        <ele>4.94</ele>
        <time>2012-08-24T08:47:25Z</time>
      </trkpt>
      <trkpt lat="47.44617" lon="-2.25358">
        <ele>4.94</ele>
        <time>2012-08-24T08:47:35Z</time>
      </trkpt>
      <trkpt lat="47.44613" lon="-2.25362">
        <ele>4.94</ele>
        <time>2012-08-24T08:47:36Z</time>
      </trkpt>
      <trkpt lat="47.44609" lon="-2.25365">
        <ele>4.94</ele>
        <time>2012-08-24T08:47:37Z</time>
      </trkpt>
      <trkpt lat="47.44605" lon="-2.25366">
        <ele>4.94</ele>
        <time>2012-08-24T08:47:38Z</time>
      </trkpt>
      <trkpt lat="47.446" lon="-2.25366">
        <ele>4.94</ele>
        <time>2012-08-24T08:47:39Z</time>
      </trkpt>
      <trkpt lat="47.44596" lon="-2.25365">
        <ele>4.46</ele>
        <time>2012-08-24T08:47:40Z</time>
      </trkpt>
      <trkpt lat="47.44591" lon="-2.25367">
        <ele>4.46</ele>
        <time>2012-08-24T08:47:41Z</time>
      </trkpt>
      <trkpt lat="47.44586" lon="-2.25371">
        <ele>4.46</ele>
        <time>2012-08-24T08:47:42Z</time>
      </trkpt>
      <trkpt lat="47.44582" lon="-2.25375">
        <ele>3.98</ele>
        <time>2012-08-24T08:47:43Z</time>
      </trkpt>
      <trkpt lat="47.44521" lon="-2.25441">
        <ele>3.02</ele>
        <time>2012-08-24T08:47:59Z</time>
      </trkpt>
      <trkpt lat="47.44518" lon="-2.25446">
        <ele>3.02</ele>
        <time>2012-08-24T08:48:00Z</time>
      </trkpt>
      <trkpt lat="47.44516" lon="-2.25452">
        <ele>3.5</ele>
        <time>2012-08-24T08:48:01Z</time>
      </trkpt>
      <trkpt lat="47.44515" lon="-2.25459">
        <ele>3.5</ele>
        <time>2012-08-24T08:48:02Z</time>
      </trkpt>
      <trkpt lat="47.44514" lon="-2.25466">
        <ele>3.5</ele>
        <time>2012-08-24T08:48:03Z</time>
      </trkpt>
      <trkpt lat="47.44514" lon="-2.25473">
        <ele>3.5</ele>
        <time>2012-08-24T08:48:04Z</time>
      </trkpt>
      <trkpt lat="47.44515" lon="-2.2548">
        <ele>3.5</ele>
        <time>2012-08-24T08:48:05Z</time>
      </trkpt>
      <trkpt lat="47.44516" lon="-2.25487">
        <ele>3.5</ele>
        <time>2012-08-24T08:48:06Z</time>
      </trkpt>
      <trkpt lat="47.44516" lon="-2.25495">
        <ele>3.5</ele>
        <time>2012-08-24T08:48:07Z</time>
      </trkpt>
      <trkpt lat="47.44516" lon="-2.25502">
        <ele>3.5</ele>
        <time>2012-08-24T08:48:08Z</time>
      </trkpt>
      <trkpt lat="47.44516" lon="-2.25509">
        <ele>3.5</ele>
        <time>2012-08-24T08:48:09Z</time>
      </trkpt>
      <trkpt lat="47.44515" lon="-2.25516">
        <ele>3.5</ele>
        <time>2012-08-24T08:48:10Z</time>
      </trkpt>
      <trkpt lat="47.44506" lon="-2.25623">
        <ele>4.46</ele>
        <time>2012-08-24T08:48:25Z</time>
      </trkpt>
      <trkpt lat="47.44501" lon="-2.25648">
        <ele>4.94</ele>
        <time>2012-08-24T08:48:29Z</time>
      </trkpt>
      <trkpt lat="47.44498" lon="-2.25653">
        <ele>4.46</ele>
        <time>2012-08-24T08:48:30Z</time>
      </trkpt>
      <trkpt lat="47.44496" lon="-2.25658">
        <ele>4.46</ele>
        <time>2012-08-24T08:48:31Z</time>
      </trkpt>
      <trkpt lat="47.44494" lon="-2.25663">
        <ele>4.46</ele>
        <time>2012-08-24T08:48:32Z</time>
      </trkpt>
      <trkpt lat="47.44492" lon="-2.25669">
        <ele>4.46</ele>
        <time>2012-08-24T08:48:33Z</time>
      </trkpt>
      <trkpt lat="47.44447" lon="-2.25741">
        <ele>4.46</ele>
        <time>2012-08-24T08:48:49Z</time>
      </trkpt>
      <trkpt lat="47.44404" lon="-2.25802">
        <ele>4.94</ele>
        <time>2012-08-24T08:49:04Z</time>
      </trkpt>
      <trkpt lat="47.44362" lon="-2.25862">
        <ele>5.42</ele>
        <time>2012-08-24T08:49:19Z</time>
      </trkpt>
      <trkpt lat="47.4432" lon="-2.25921">
        <ele>6.39</ele>
        <time>2012-08-24T08:49:33Z</time>
      </trkpt>
      <trkpt lat="47.44317" lon="-2.25925">
        <ele>6.87</ele>
        <time>2012-08-24T08:49:34Z</time>
      </trkpt>
      <trkpt lat="47.4427" lon="-2.25992">
        <ele>6.39</ele>
        <time>2012-08-24T08:49:50Z</time>
      </trkpt>
      <trkpt lat="47.44252" lon="-2.26016">
        <ele>6.39</ele>
        <time>2012-08-24T08:49:56Z</time>
      </trkpt>
      <trkpt lat="47.44207" lon="-2.26066">
        <ele>7.83</ele>
        <time>2012-08-24T08:50:11Z</time>
      </trkpt>
      <trkpt lat="47.44168" lon="-2.26103">
        <ele>6.87</ele>
        <time>2012-08-24T08:50:24Z</time>
      </trkpt>
      <trkpt lat="47.44124" lon="-2.26168">
        <ele>6.39</ele>
        <time>2012-08-24T08:50:39Z</time>
      </trkpt>
      <trkpt lat="47.44105" lon="-2.26198">
        <ele>6.87</ele>
        <time>2012-08-24T08:50:46Z</time>
      </trkpt>
      <trkpt lat="47.44103" lon="-2.26203">
        <ele>6.87</ele>
        <time>2012-08-24T08:50:47Z</time>
      </trkpt>
      <trkpt lat="47.441" lon="-2.26207">
        <ele>6.87</ele>
        <time>2012-08-24T08:50:48Z</time>
      </trkpt>
      <trkpt lat="47.44057" lon="-2.26275">
        <ele>5.42</ele>
        <time>2012-08-24T08:51:02Z</time>
      </trkpt>
      <trkpt lat="47.4401" lon="-2.26332">
        <ele>4.46</ele>
        <time>2012-08-24T08:51:15Z</time>
      </trkpt>
      <trkpt lat="47.44006" lon="-2.26336">
        <ele>4.94</ele>
        <time>2012-08-24T08:51:16Z</time>
      </trkpt>
      <trkpt lat="47.43957" lon="-2.26385">
        <ele>3.5</ele>
        <time>2012-08-24T08:51:29Z</time>
      </trkpt>
      <trkpt lat="47.43954" lon="-2.26389">
        <ele>3.5</ele>
        <time>2012-08-24T08:51:30Z</time>
      </trkpt>
      <trkpt lat="47.4395" lon="-2.26393">
        <ele>3.5</ele>
        <time>2012-08-24T08:51:31Z</time>
      </trkpt>
      <trkpt lat="47.43894" lon="-2.26438">
        <ele>1.58</ele>
        <time>2012-08-24T08:51:45Z</time>
      </trkpt>
      <trkpt lat="47.4389" lon="-2.26441">
        <ele>1.58</ele>
        <time>2012-08-24T08:51:46Z</time>
      </trkpt>
      <trkpt lat="47.43885" lon="-2.26443">
        <ele>1.58</ele>
        <time>2012-08-24T08:51:47Z</time>
      </trkpt>
      <trkpt lat="47.4386" lon="-2.26451">
        <ele>2.06</ele>
        <time>2012-08-24T08:51:53Z</time>
      </trkpt>
      <trkpt lat="47.43856" lon="-2.26452">
        <ele>2.06</ele>
        <time>2012-08-24T08:51:54Z</time>
      </trkpt>
      <trkpt lat="47.43851" lon="-2.26453">
        <ele>2.06</ele>
        <time>2012-08-24T08:51:55Z</time>
      </trkpt>
      <trkpt lat="47.43847" lon="-2.26453">
        <ele>2.06</ele>
        <time>2012-08-24T08:51:56Z</time>
      </trkpt>
      <trkpt lat="47.43842" lon="-2.26453">
        <ele>2.06</ele>
        <time>2012-08-24T08:51:57Z</time>
      </trkpt>
      <trkpt lat="47.43837" lon="-2.26453">
        <ele>2.54</ele>
        <time>2012-08-24T08:51:58Z</time>
      </trkpt>
      <trkpt lat="47.43833" lon="-2.26452">
        <ele>2.54</ele>
        <time>2012-08-24T08:51:59Z</time>
      </trkpt>
      <trkpt lat="47.43828" lon="-2.26451">
        <ele>3.02</ele>
        <time>2012-08-24T08:52:00Z</time>
      </trkpt>
      <trkpt lat="47.43769" lon="-2.2643">
        <ele>4.46</ele>
        <time>2012-08-24T08:52:14Z</time>
      </trkpt>
      <trkpt lat="47.43712" lon="-2.26407">
        <ele>3.98</ele>
        <time>2012-08-24T08:52:27Z</time>
      </trkpt>
      <trkpt lat="47.43664" lon="-2.26384">
        <ele>3.02</ele>
        <time>2012-08-24T08:52:40Z</time>
      </trkpt>
      <trkpt lat="47.4366" lon="-2.26384">
        <ele>3.5</ele>
        <time>2012-08-24T08:52:47Z</time>
      </trkpt>
      <trkpt lat="47.43659" lon="-2.26384">
        <ele>3.5</ele>
        <time>2012-08-24T08:52:48Z</time>
      </trkpt>
      <trkpt lat="47.43657" lon="-2.26385">
        <ele>3.5</ele>
        <time>2012-08-24T08:52:49Z</time>
      </trkpt>
      <trkpt lat="47.43655" lon="-2.26387">
        <ele>3.5</ele>
        <time>2012-08-24T08:52:50Z</time>
      </trkpt>
      <trkpt lat="47.43652" lon="-2.2639">
        <ele>3.5</ele>
        <time>2012-08-24T08:52:51Z</time>
      </trkpt>
      <trkpt lat="47.436" lon="-2.26428">
        <ele>3.02</ele>
        <time>2012-08-24T08:53:03Z</time>
      </trkpt>
      <trkpt lat="47.4353" lon="-2.26474">
        <ele>2.06</ele>
        <time>2012-08-24T08:53:17Z</time>
      </trkpt>
      <trkpt lat="47.43454" lon="-2.26515">
        <ele>3.5</ele>
        <time>2012-08-24T08:53:32Z</time>
      </trkpt>
      <trkpt lat="47.43363" lon="-2.2656">
        <ele>3.02</ele>
        <time>2012-08-24T08:53:49Z</time>
      </trkpt>
      <trkpt lat="47.43348" lon="-2.26567">
        <ele>2.54</ele>
        <time>2012-08-24T08:53:52Z</time>
      </trkpt>
      <trkpt lat="47.43261" lon="-2.2661">
        <ele>1.58</ele>
        <time>2012-08-24T08:54:09Z</time>
      </trkpt>
      <trkpt lat="47.43192" lon="-2.26645">
        <ele>1.58</ele>
        <time>2012-08-24T08:54:24Z</time>
      </trkpt>
      <trkpt lat="47.43136" lon="-2.26687">
        <ele>2.06</ele>
        <time>2012-08-24T08:54:37Z</time>
      </trkpt>
      <trkpt lat="47.43081" lon="-2.26773">
        <ele>2.54</ele>
        <time>2012-08-24T08:54:52Z</time>
      </trkpt>
      <trkpt lat="47.43053" lon="-2.26841">
        <ele>2.06</ele>
        <time>2012-08-24T08:55:02Z</time>
      </trkpt>
      <trkpt lat="47.43045" lon="-2.26859">
        <ele>2.06</ele>
        <time>2012-08-24T08:55:05Z</time>
      </trkpt>
      <trkpt lat="47.43043" lon="-2.26864">
        <ele>2.06</ele>
        <time>2012-08-24T08:55:06Z</time>
      </trkpt>
      <trkpt lat="47.43004" lon="-2.2696">
        <ele>2.06</ele>
        <time>2012-08-24T08:55:21Z</time>
      </trkpt>
      <trkpt lat="47.42992" lon="-2.26992">
        <ele>2.54</ele>
        <time>2012-08-24T08:55:26Z</time>
      </trkpt>
      <trkpt lat="47.42989" lon="-2.26999">
        <ele>2.06</ele>
        <time>2012-08-24T08:55:27Z</time>
      </trkpt>
      <trkpt lat="47.42957" lon="-2.27077">
        <ele>1.58</ele>
        <time>2012-08-24T08:55:40Z</time>
      </trkpt>
      <trkpt lat="47.42929" lon="-2.27152">
        <ele>2.06</ele>
        <time>2012-08-24T08:55:53Z</time>
      </trkpt>
      <trkpt lat="47.42927" lon="-2.27157">
        <ele>2.06</ele>
        <time>2012-08-24T08:55:54Z</time>
      </trkpt>
      <trkpt lat="47.42903" lon="-2.27227">
        <ele>3.98</ele>
        <time>2012-08-24T08:56:09Z</time>
      </trkpt>
      <trkpt lat="47.42896" lon="-2.27255">
        <ele>3.5</ele>
        <time>2012-08-24T08:56:15Z</time>
      </trkpt>
      <trkpt lat="47.42896" lon="-2.27261">
        <ele>3.5</ele>
        <time>2012-08-24T08:56:16Z</time>
      </trkpt>
      <trkpt lat="47.42895" lon="-2.27267">
        <ele>3.5</ele>
        <time>2012-08-24T08:56:17Z</time>
      </trkpt>
      <trkpt lat="47.42886" lon="-2.27287">
        <ele>3.02</ele>
        <time>2012-08-24T08:56:22Z</time>
      </trkpt>
      <trkpt lat="47.42883" lon="-2.27288">
        <ele>3.02</ele>
        <time>2012-08-24T08:56:23Z</time>
      </trkpt>
      <trkpt lat="47.4288" lon="-2.27288">
        <ele>2.54</ele>
        <time>2012-08-24T08:56:24Z</time>
      </trkpt>
      <trkpt lat="47.42876" lon="-2.27288">
        <ele>2.06</ele>
        <time>2012-08-24T08:56:25Z</time>
      </trkpt>
      <trkpt lat="47.42873" lon="-2.27288">
        <ele>2.06</ele>
        <time>2012-08-24T08:56:26Z</time>
      </trkpt>
      <trkpt lat="47.42871" lon="-2.27288">
        <ele>1.58</ele>
        <time>2012-08-24T08:56:27Z</time>
      </trkpt>
      <trkpt lat="47.42865" lon="-2.27286">
        <ele>1.58</ele>
        <time>2012-08-24T08:56:37Z</time>
      </trkpt>
      <trkpt lat="47.42866" lon="-2.27286">
        <ele>2.06</ele>
        <time>2012-08-24T08:56:54Z</time>
      </trkpt>
      <trkpt lat="47.42867" lon="-2.27286">
        <ele>1.58</ele>
        <time>2012-08-24T08:57:16Z</time>
      </trkpt>
      <trkpt lat="47.42867" lon="-2.27287">
        <ele>2.06</ele>
        <time>2012-08-24T08:57:38Z</time>
      </trkpt>
      <trkpt lat="47.42868" lon="-2.27287">
        <ele>2.54</ele>
        <time>2012-08-24T08:58:07Z</time>
      </trkpt>
      <trkpt lat="47.42867" lon="-2.27286">
        <ele>2.06</ele>
        <time>2012-08-24T08:58:38Z</time>
      </trkpt>
      <trkpt lat="47.42867" lon="-2.27286">
        <ele>2.06</ele>
        <time>2012-08-24T08:59:06Z</time>
      </trkpt>
      <trkpt lat="47.42867" lon="-2.27286">
        <ele>2.06</ele>
        <time>2012-08-24T08:59:27Z</time>
      </trkpt>
      <trkpt lat="47.42867" lon="-2.27285">
        <ele>2.06</ele>
        <time>2012-08-24T08:59:36Z</time>
      </trkpt>
      <trkpt lat="47.42868" lon="-2.27285">
        <ele>1.58</ele>
        <time>2012-08-24T08:59:37Z</time>
      </trkpt>
      <trkpt lat="47.4287" lon="-2.27285">
        <ele>1.58</ele>
        <time>2012-08-24T08:59:38Z</time>
      </trkpt>
      <trkpt lat="47.42873" lon="-2.27286">
        <ele>1.58</ele>
        <time>2012-08-24T08:59:39Z</time>
      </trkpt>
      <trkpt lat="47.42875" lon="-2.27287">
        <ele>1.58</ele>
        <time>2012-08-24T08:59:40Z</time>
      </trkpt>
      <trkpt lat="47.42878" lon="-2.27289">
        <ele>1.58</ele>
        <time>2012-08-24T08:59:41Z</time>
      </trkpt>
      <trkpt lat="47.42887" lon="-2.27296">
        <ele>2.54</ele>
        <time>2012-08-24T08:59:46Z</time>
      </trkpt>
      <trkpt lat="47.42888" lon="-2.27299">
        <ele>2.54</ele>
        <time>2012-08-24T08:59:47Z</time>
      </trkpt>
      <trkpt lat="47.42889" lon="-2.27304">
        <ele>2.54</ele>
        <time>2012-08-24T08:59:48Z</time>
      </trkpt>
      <trkpt lat="47.4289" lon="-2.27314">
        <ele>2.54</ele>
        <time>2012-08-24T08:59:50Z</time>
      </trkpt>
      <trkpt lat="47.42883" lon="-2.27383">
        <ele>1.58</ele>
        <time>2012-08-24T09:00:02Z</time>
      </trkpt>
      <trkpt lat="47.42882" lon="-2.27389">
        <ele>1.58</ele>
        <time>2012-08-24T09:00:03Z</time>
      </trkpt>
      <trkpt lat="47.42882" lon="-2.27395">
        <ele>2.06</ele>
        <time>2012-08-24T09:00:04Z</time>
      </trkpt>
      <trkpt lat="47.42871" lon="-2.27501">
        <ele>1.58</ele>
        <time>2012-08-24T09:00:21Z</time>
      </trkpt>
      <trkpt lat="47.4285" lon="-2.27638">
        <ele>3.98</ele>
        <time>2012-08-24T09:00:40Z</time>
      </trkpt>
      <trkpt lat="47.4281" lon="-2.27755">
        <ele>4.94</ele>
        <time>2012-08-24T09:00:57Z</time>
      </trkpt>
      <trkpt lat="47.42768" lon="-2.27875">
        <ele>6.87</ele>
        <time>2012-08-24T09:01:15Z</time>
      </trkpt>
      <trkpt lat="47.4274" lon="-2.27959">
        <ele>8.31</ele>
        <time>2012-08-24T09:01:31Z</time>
      </trkpt>
      <trkpt lat="47.42722" lon="-2.28028">
        <ele>9.75</ele>
        <time>2012-08-24T09:01:46Z</time>
      </trkpt>
      <trkpt lat="47.42722" lon="-2.28046">
        <ele>10.23</ele>
        <time>2012-08-24T09:01:57Z</time>
      </trkpt>
      <trkpt lat="47.42723" lon="-2.28046">
        <ele>11.19</ele>
        <time>2012-08-24T09:02:16Z</time>
      </trkpt>
      <trkpt lat="47.42724" lon="-2.28046">
        <ele>11.67</ele>
        <time>2012-08-24T09:02:43Z</time>
      </trkpt>
      <trkpt lat="47.42726" lon="-2.28062">
        <ele>11.19</ele>
        <time>2012-08-24T09:03:07Z</time>
      </trkpt>
      <trkpt lat="47.42735" lon="-2.28071">
        <ele>11.19</ele>
        <time>2012-08-24T09:03:20Z</time>
      </trkpt>
      <trkpt lat="47.42736" lon="-2.28071">
        <ele>10.23</ele>
        <time>2012-08-24T09:03:48Z</time>
      </trkpt>
      <trkpt lat="47.42735" lon="-2.28069">
        <ele>9.75</ele>
        <time>2012-08-24T09:04:06Z</time>
      </trkpt>
      <trkpt lat="47.42734" lon="-2.28069">
        <ele>9.75</ele>
        <time>2012-08-24T09:04:33Z</time>
      </trkpt>
      <trkpt lat="47.42734" lon="-2.2807">
        <ele>8.79</ele>
        <time>2012-08-24T09:05:00Z</time>
      </trkpt>
      <trkpt lat="47.42734" lon="-2.28066">
        <ele>9.27</ele>
        <time>2012-08-24T09:05:12Z</time>
      </trkpt>
      <trkpt lat="47.42732" lon="-2.28066">
        <ele>8.79</ele>
        <time>2012-08-24T09:05:21Z</time>
      </trkpt>
      <trkpt lat="47.42731" lon="-2.28067">
        <ele>8.79</ele>
        <time>2012-08-24T09:05:22Z</time>
      </trkpt>
      <trkpt lat="47.42729" lon="-2.28069">
        <ele>8.79</ele>
        <time>2012-08-24T09:05:23Z</time>
      </trkpt>
      <trkpt lat="47.42726" lon="-2.28071">
        <ele>8.79</ele>
        <time>2012-08-24T09:05:24Z</time>
      </trkpt>
      <trkpt lat="47.42724" lon="-2.28075">
        <ele>8.79</ele>
        <time>2012-08-24T09:05:25Z</time>
      </trkpt>
      <trkpt lat="47.42722" lon="-2.2808">
        <ele>9.27</ele>
        <time>2012-08-24T09:05:26Z</time>
      </trkpt>
      <trkpt lat="47.42721" lon="-2.28086">
        <ele>9.27</ele>
        <time>2012-08-24T09:05:27Z</time>
      </trkpt>
      <trkpt lat="47.42721" lon="-2.28092">
        <ele>8.79</ele>
        <time>2012-08-24T09:05:28Z</time>
      </trkpt>
      <trkpt lat="47.42716" lon="-2.28145">
        <ele>7.35</ele>
        <time>2012-08-24T09:05:38Z</time>
      </trkpt>
      <trkpt lat="47.42713" lon="-2.28235">
        <ele>9.27</ele>
        <time>2012-08-24T09:05:54Z</time>
      </trkpt>
      <trkpt lat="47.42708" lon="-2.28316">
        <ele>9.75</ele>
        <time>2012-08-24T09:06:08Z</time>
      </trkpt>
      <trkpt lat="47.42701" lon="-2.28349">
        <ele>9.27</ele>
        <time>2012-08-24T09:06:14Z</time>
      </trkpt>
      <trkpt lat="47.42699" lon="-2.28354">
        <ele>9.27</ele>
        <time>2012-08-24T09:06:15Z</time>
      </trkpt>
      <trkpt lat="47.42662" lon="-2.28391">
        <ele>9.27</ele>
        <time>2012-08-24T09:06:27Z</time>
      </trkpt>
      <trkpt lat="47.42597" lon="-2.28399">
        <ele>9.27</ele>
        <time>2012-08-24T09:06:43Z</time>
      </trkpt>
      <trkpt lat="47.42538" lon="-2.28406">
        <ele>7.83</ele>
        <time>2012-08-24T09:06:59Z</time>
      </trkpt>
      <trkpt lat="47.42498" lon="-2.28411">
        <ele>9.27</ele>
        <time>2012-08-24T09:07:10Z</time>
      </trkpt>
      <trkpt lat="47.42494" lon="-2.28411">
        <ele>9.75</ele>
        <time>2012-08-24T09:07:11Z</time>
      </trkpt>
      <trkpt lat="47.42436" lon="-2.2842">
        <ele>7.83</ele>
        <time>2012-08-24T09:07:26Z</time>
      </trkpt>
      <trkpt lat="47.42382" lon="-2.28422">
        <ele>8.31</ele>
        <time>2012-08-24T09:07:39Z</time>
      </trkpt>
      <trkpt lat="47.42379" lon="-2.28425">
        <ele>8.31</ele>
        <time>2012-08-24T09:07:40Z</time>
      </trkpt>
      <trkpt lat="47.42379" lon="-2.2843">
        <ele>8.31</ele>
        <time>2012-08-24T09:07:41Z</time>
      </trkpt>
      <trkpt lat="47.42379" lon="-2.28434">
        <ele>8.31</ele>
        <time>2012-08-24T09:07:42Z</time>
      </trkpt>
      <trkpt lat="47.4238" lon="-2.28439">
        <ele>8.31</ele>
        <time>2012-08-24T09:07:43Z</time>
      </trkpt>
      <trkpt lat="47.42381" lon="-2.28444">
        <ele>8.31</ele>
        <time>2012-08-24T09:07:44Z</time>
      </trkpt>
      <trkpt lat="47.42382" lon="-2.2845">
        <ele>8.79</ele>
        <time>2012-08-24T09:07:45Z</time>
      </trkpt>
      <trkpt lat="47.42392" lon="-2.28508">
        <ele>10.71</ele>
        <time>2012-08-24T09:07:56Z</time>
      </trkpt>
      <trkpt lat="47.42402" lon="-2.28569">
        <ele>12.15</ele>
        <time>2012-08-24T09:08:08Z</time>
      </trkpt>
      <trkpt lat="47.42405" lon="-2.28592">
        <ele>13.12</ele>
        <time>2012-08-24T09:08:12Z</time>
      </trkpt>
      <trkpt lat="47.42406" lon="-2.28598">
        <ele>13.12</ele>
        <time>2012-08-24T09:08:13Z</time>
      </trkpt>
      <trkpt lat="47.4242" lon="-2.28687">
        <ele>13.6</ele>
        <time>2012-08-24T09:08:29Z</time>
      </trkpt>
      <trkpt lat="47.42426" lon="-2.28759">
        <ele>12.63</ele>
        <time>2012-08-24T09:08:42Z</time>
      </trkpt>
      <trkpt lat="47.42395" lon="-2.2878">
        <ele>12.63</ele>
        <time>2012-08-24T09:08:51Z</time>
      </trkpt>
      <trkpt lat="47.42343" lon="-2.28805">
        <ele>11.19</ele>
        <time>2012-08-24T09:09:06Z</time>
      </trkpt>
      <trkpt lat="47.42299" lon="-2.28827">
        <ele>10.23</ele>
        <time>2012-08-24T09:09:18Z</time>
      </trkpt>
      <trkpt lat="47.42244" lon="-2.28854">
        <ele>10.71</ele>
        <time>2012-08-24T09:09:32Z</time>
      </trkpt>
      <trkpt lat="47.42236" lon="-2.28857">
        <ele>10.23</ele>
        <time>2012-08-24T09:09:34Z</time>
      </trkpt>
      <trkpt lat="47.42232" lon="-2.28859">
        <ele>10.23</ele>
        <time>2012-08-24T09:09:35Z</time>
      </trkpt>
      <trkpt lat="47.42229" lon="-2.28862">
        <ele>9.75</ele>
        <time>2012-08-24T09:09:36Z</time>
      </trkpt>
      <trkpt lat="47.42225" lon="-2.28864">
        <ele>9.75</ele>
        <time>2012-08-24T09:09:37Z</time>
      </trkpt>
      <trkpt lat="47.42221" lon="-2.28865">
        <ele>9.27</ele>
        <time>2012-08-24T09:09:38Z</time>
      </trkpt>
      <trkpt lat="47.4219" lon="-2.28874">
        <ele>5.91</ele>
        <time>2012-08-24T09:09:46Z</time>
      </trkpt>
      <trkpt lat="47.42186" lon="-2.28873">
        <ele>5.91</ele>
        <time>2012-08-24T09:09:47Z</time>
      </trkpt>
      <trkpt lat="47.42181" lon="-2.28871">
        <ele>5.42</ele>
        <time>2012-08-24T09:09:48Z</time>
      </trkpt>
      <trkpt lat="47.42177" lon="-2.28868">
        <ele>4.94</ele>
        <time>2012-08-24T09:09:49Z</time>
      </trkpt>
      <trkpt lat="47.42173" lon="-2.28865">
        <ele>4.46</ele>
        <time>2012-08-24T09:09:50Z</time>
      </trkpt>
      <trkpt lat="47.42157" lon="-2.28855">
        <ele>3.98</ele>
        <time>2012-08-24T09:09:54Z</time>
      </trkpt>
      <trkpt lat="47.42153" lon="-2.28853">
        <ele>3.5</ele>
        <time>2012-08-24T09:09:55Z</time>
      </trkpt>
      <trkpt lat="47.4215" lon="-2.28851">
        <ele>3.5</ele>
        <time>2012-08-24T09:09:56Z</time>
      </trkpt>
      <trkpt lat="47.42146" lon="-2.2885">
        <ele>3.5</ele>
        <time>2012-08-24T09:09:57Z</time>
      </trkpt>
      <trkpt lat="47.42142" lon="-2.2885">
        <ele>3.5</ele>
        <time>2012-08-24T09:09:58Z</time>
      </trkpt>
      <trkpt lat="47.42138" lon="-2.28852">
        <ele>3.5</ele>
        <time>2012-08-24T09:09:59Z</time>
      </trkpt>
      <trkpt lat="47.42134" lon="-2.28855">
        <ele>3.98</ele>
        <time>2012-08-24T09:10:00Z</time>
      </trkpt>
      <trkpt lat="47.42127" lon="-2.28861">
        <ele>3.98</ele>
        <time>2012-08-24T09:10:02Z</time>
      </trkpt>
      <trkpt lat="47.42097" lon="-2.28874">
        <ele>4.94</ele>
        <time>2012-08-24T09:10:12Z</time>
      </trkpt>
      <trkpt lat="47.42088" lon="-2.2886">
        <ele>6.39</ele>
        <time>2012-08-24T09:10:16Z</time>
      </trkpt>
      <trkpt lat="47.4208" lon="-2.28838">
        <ele>6.87</ele>
        <time>2012-08-24T09:10:20Z</time>
      </trkpt>
      <trkpt lat="47.42076" lon="-2.2878">
        <ele>6.39</ele>
        <time>2012-08-24T09:10:29Z</time>
      </trkpt>
      <trkpt lat="47.42074" lon="-2.28773">
        <ele>6.39</ele>
        <time>2012-08-24T09:10:30Z</time>
      </trkpt>
      <trkpt lat="47.42072" lon="-2.28767">
        <ele>5.91</ele>
        <time>2012-08-24T09:10:31Z</time>
      </trkpt>
      <trkpt lat="47.42067" lon="-2.28756">
        <ele>5.91</ele>
        <time>2012-08-24T09:10:33Z</time>
      </trkpt>
      <trkpt lat="47.42064" lon="-2.2875">
        <ele>5.91</ele>
        <time>2012-08-24T09:10:34Z</time>
      </trkpt>
      <trkpt lat="47.42061" lon="-2.28745">
        <ele>5.91</ele>
        <time>2012-08-24T09:10:35Z</time>
      </trkpt>
      <trkpt lat="47.4204" lon="-2.28698">
        <ele>5.91</ele>
        <time>2012-08-24T09:10:47Z</time>
      </trkpt>
      <trkpt lat="47.4204" lon="-2.28698">
        <ele>5.91</ele>
        <time>2012-08-24T09:11:02Z</time>
      </trkpt>
      <trkpt lat="47.4204" lon="-2.28687">
        <ele>5.42</ele>
        <time>2012-08-24T09:11:06Z</time>
      </trkpt>
      <trkpt lat="47.42041" lon="-2.28684">
        <ele>5.42</ele>
        <time>2012-08-24T09:11:07Z</time>
      </trkpt>
      <trkpt lat="47.42043" lon="-2.28681">
        <ele>5.91</ele>
        <time>2012-08-24T09:11:08Z</time>
      </trkpt>
      <trkpt lat="47.42071" lon="-2.28649">
        <ele>5.91</ele>
        <time>2012-08-24T09:11:16Z</time>
      </trkpt>
      <trkpt lat="47.42074" lon="-2.28645">
        <ele>6.39</ele>
        <time>2012-08-24T09:11:17Z</time>
      </trkpt>
      <trkpt lat="47.42078" lon="-2.28641">
        <ele>6.39</ele>
        <time>2012-08-24T09:11:18Z</time>
      </trkpt>
      <trkpt lat="47.42109" lon="-2.28606">
        <ele>6.87</ele>
        <time>2012-08-24T09:11:26Z</time>
      </trkpt>
      <trkpt lat="47.42166" lon="-2.28539">
        <ele>7.35</ele>
        <time>2012-08-24T09:11:42Z</time>
      </trkpt>
      <trkpt lat="47.42183" lon="-2.2852">
        <ele>7.35</ele>
        <time>2012-08-24T09:11:48Z</time>
      </trkpt>
      <trkpt lat="47.42184" lon="-2.28517">
        <ele>7.35</ele>
        <time>2012-08-24T09:11:49Z</time>
      </trkpt>
      <trkpt lat="47.42184" lon="-2.28513">
        <ele>7.35</ele>
        <time>2012-08-24T09:11:50Z</time>
      </trkpt>
      <trkpt lat="47.42184" lon="-2.2851">
        <ele>7.35</ele>
        <time>2012-08-24T09:11:51Z</time>
      </trkpt>
      <trkpt lat="47.42182" lon="-2.28507">
        <ele>7.83</ele>
        <time>2012-08-24T09:11:52Z</time>
      </trkpt>
      <trkpt lat="47.4218" lon="-2.28503">
        <ele>7.83</ele>
        <time>2012-08-24T09:11:53Z</time>
      </trkpt>
      <trkpt lat="47.42178" lon="-2.28501">
        <ele>7.83</ele>
        <time>2012-08-24T09:11:54Z</time>
      </trkpt>
      <trkpt lat="47.42175" lon="-2.28498">
        <ele>7.35</ele>
        <time>2012-08-24T09:11:55Z</time>
      </trkpt>
      <trkpt lat="47.42172" lon="-2.28496">
        <ele>7.35</ele>
        <time>2012-08-24T09:11:56Z</time>
      </trkpt>
      <trkpt lat="47.42134" lon="-2.28464">
        <ele>6.39</ele>
        <time>2012-08-24T09:12:07Z</time>
      </trkpt>
      <trkpt lat="47.42116" lon="-2.28448">
        <ele>5.91</ele>
        <time>2012-08-24T09:12:12Z</time>
      </trkpt>
      <trkpt lat="47.42112" lon="-2.28444">
        <ele>5.91</ele>
        <time>2012-08-24T09:12:13Z</time>
      </trkpt>
      <trkpt lat="47.42108" lon="-2.28441">
        <ele>5.91</ele>
        <time>2012-08-24T09:12:14Z</time>
      </trkpt>
      <trkpt lat="47.42058" lon="-2.28395">
        <ele>4.46</ele>
        <time>2012-08-24T09:12:28Z</time>
      </trkpt>
      <trkpt lat="47.42" lon="-2.28342">
        <ele>-0.34</ele>
        <time>2012-08-24T09:12:44Z</time>
      </trkpt>
      <trkpt lat="47.41957" lon="-2.283">
        <ele>-3.71</ele>
        <time>2012-08-24T09:12:56Z</time>
      </trkpt>
      <trkpt lat="47.41925" lon="-2.28275">
        <ele>-1.79</ele>
        <time>2012-08-24T09:13:04Z</time>
      </trkpt>
      <trkpt lat="47.41921" lon="-2.28272">
        <ele>-1.79</ele>
        <time>2012-08-24T09:13:05Z</time>
      </trkpt>
      <trkpt lat="47.41881" lon="-2.28237">
        <ele>1.58</ele>
        <time>2012-08-24T09:13:15Z</time>
      </trkpt>
      <trkpt lat="47.41874" lon="-2.28229">
        <ele>2.06</ele>
        <time>2012-08-24T09:13:17Z</time>
      </trkpt>
      <trkpt lat="47.4187" lon="-2.28225">
        <ele>2.06</ele>
        <time>2012-08-24T09:13:18Z</time>
      </trkpt>
      <trkpt lat="47.41865" lon="-2.28216">
        <ele>2.54</ele>
        <time>2012-08-24T09:13:20Z</time>
      </trkpt>
      <trkpt lat="47.41834" lon="-2.28146">
        <ele>3.5</ele>
        <time>2012-08-24T09:13:32Z</time>
      </trkpt>
      <trkpt lat="47.41832" lon="-2.2814">
        <ele>3.5</ele>
        <time>2012-08-24T09:13:33Z</time>
      </trkpt>
      <trkpt lat="47.41829" lon="-2.28136">
        <ele>3.5</ele>
        <time>2012-08-24T09:13:34Z</time>
      </trkpt>
      <trkpt lat="47.41827" lon="-2.28131">
        <ele>3.98</ele>
        <time>2012-08-24T09:13:35Z</time>
      </trkpt>
      <trkpt lat="47.41824" lon="-2.28126">
        <ele>3.5</ele>
        <time>2012-08-24T09:13:36Z</time>
      </trkpt>
      <trkpt lat="47.41822" lon="-2.28121">
        <ele>3.5</ele>
        <time>2012-08-24T09:13:37Z</time>
      </trkpt>
      <trkpt lat="47.41819" lon="-2.28116">
        <ele>3.5</ele>
        <time>2012-08-24T09:13:38Z</time>
      </trkpt>
      <trkpt lat="47.41817" lon="-2.28111">
        <ele>3.5</ele>
        <time>2012-08-24T09:13:39Z</time>
      </trkpt>
      <trkpt lat="47.41804" lon="-2.28078">
        <ele>3.5</ele>
        <time>2012-08-24T09:13:45Z</time>
      </trkpt>
      <trkpt lat="47.41802" lon="-2.28073">
        <ele>3.5</ele>
        <time>2012-08-24T09:13:46Z</time>
      </trkpt>
      <trkpt lat="47.418" lon="-2.28068">
        <ele>3.5</ele>
        <time>2012-08-24T09:13:47Z</time>
      </trkpt>
      <trkpt lat="47.41797" lon="-2.28063">
        <ele>3.02</ele>
        <time>2012-08-24T09:13:48Z</time>
      </trkpt>
      <trkpt lat="47.41795" lon="-2.28058">
        <ele>3.02</ele>
        <time>2012-08-24T09:13:49Z</time>
      </trkpt>
      <trkpt lat="47.41794" lon="-2.28053">
        <ele>3.02</ele>
        <time>2012-08-24T09:13:50Z</time>
      </trkpt>
      <trkpt lat="47.41792" lon="-2.28048">
        <ele>3.02</ele>
        <time>2012-08-24T09:13:51Z</time>
      </trkpt>
      <trkpt lat="47.4179" lon="-2.28042">
        <ele>3.02</ele>
        <time>2012-08-24T09:13:52Z</time>
      </trkpt>
      <trkpt lat="47.41787" lon="-2.28036">
        <ele>3.02</ele>
        <time>2012-08-24T09:13:53Z</time>
      </trkpt>
      <trkpt lat="47.41775" lon="-2.28007">
        <ele>3.02</ele>
        <time>2012-08-24T09:13:58Z</time>
      </trkpt>
      <trkpt lat="47.41773" lon="-2.28002">
        <ele>3.02</ele>
        <time>2012-08-24T09:13:59Z</time>
      </trkpt>
      <trkpt lat="47.4177" lon="-2.27997">
        <ele>3.02</ele>
        <time>2012-08-24T09:14:00Z</time>
      </trkpt>
      <trkpt lat="47.41738" lon="-2.27945">
        <ele>2.54</ele>
        <time>2012-08-24T09:14:12Z</time>
      </trkpt>
      <trkpt lat="47.41707" lon="-2.27936">
        <ele>1.1</ele>
        <time>2012-08-24T09:14:21Z</time>
      </trkpt>
      <trkpt lat="47.41699" lon="-2.27935">
        <ele>0.14</ele>
        <time>2012-08-24T09:14:23Z</time>
      </trkpt>
      <trkpt lat="47.41695" lon="-2.27935">
        <ele>-0.34</ele>
        <time>2012-08-24T09:14:24Z</time>
      </trkpt>
      <trkpt lat="47.41691" lon="-2.27934">
        <ele>-0.82</ele>
        <time>2012-08-24T09:14:25Z</time>
      </trkpt>
      <trkpt lat="47.41667" lon="-2.27909">
        <ele>-3.23</ele>
        <time>2012-08-24T09:14:34Z</time>
      </trkpt>
      <trkpt lat="47.4164" lon="-2.27946">
        <ele>-1.79</ele>
        <time>2012-08-24T09:14:44Z</time>
      </trkpt>
      <trkpt lat="47.41611" lon="-2.27998">
        <ele>-1.79</ele>
        <time>2012-08-24T09:14:56Z</time>
      </trkpt>
      <trkpt lat="47.41596" lon="-2.28033">
        <ele>-4.67</ele>
        <time>2012-08-24T09:15:05Z</time>
      </trkpt>
      <trkpt lat="47.41594" lon="-2.28035">
        <ele>-5.15</ele>
        <time>2012-08-24T09:15:06Z</time>
      </trkpt>
      <trkpt lat="47.41592" lon="-2.28035">
        <ele>-5.63</ele>
        <time>2012-08-24T09:15:07Z</time>
      </trkpt>
      <trkpt lat="47.4159" lon="-2.28035">
        <ele>-5.63</ele>
        <time>2012-08-24T09:15:08Z</time>
      </trkpt>
      <trkpt lat="47.41587" lon="-2.28035">
        <ele>-6.11</ele>
        <time>2012-08-24T09:15:09Z</time>
      </trkpt>
      <trkpt lat="47.41585" lon="-2.28035">
        <ele>-6.11</ele>
        <time>2012-08-24T09:15:10Z</time>
      </trkpt>
      <trkpt lat="47.41552" lon="-2.28048">
        <ele>-9.48</ele>
        <time>2012-08-24T09:15:21Z</time>
      </trkpt>
      <trkpt lat="47.41506" lon="-2.28064">
        <ele>-13.8</ele>
        <time>2012-08-24T09:15:34Z</time>
      </trkpt>
      <trkpt lat="47.41449" lon="-2.28083">
        <ele>-7.07</ele>
        <time>2012-08-24T09:15:48Z</time>
      </trkpt>
      <trkpt lat="47.41388" lon="-2.2811">
        <ele>-0.82</ele>
        <time>2012-08-24T09:16:03Z</time>
      </trkpt>
      <trkpt lat="47.41322" lon="-2.28143">
        <ele>3.5</ele>
        <time>2012-08-24T09:16:21Z</time>
      </trkpt>
      <trkpt lat="47.41274" lon="-2.28168">
        <ele>3.98</ele>
        <time>2012-08-24T09:16:35Z</time>
      </trkpt>
      <trkpt lat="47.41234" lon="-2.28178">
        <ele>3.5</ele>
        <time>2012-08-24T09:16:46Z</time>
      </trkpt>
      <trkpt lat="47.41226" lon="-2.28181">
        <ele>3.02</ele>
        <time>2012-08-24T09:16:48Z</time>
      </trkpt>
      <trkpt lat="47.41199" lon="-2.28194">
        <ele>3.02</ele>
        <time>2012-08-24T09:16:56Z</time>
      </trkpt>
      <trkpt lat="47.41159" lon="-2.28221">
        <ele>2.06</ele>
        <time>2012-08-24T09:17:08Z</time>
      </trkpt>
      <trkpt lat="47.41109" lon="-2.28255">
        <ele>1.1</ele>
        <time>2012-08-24T09:17:22Z</time>
      </trkpt>
      <trkpt lat="47.41071" lon="-2.2828">
        <ele>1.58</ele>
        <time>2012-08-24T09:17:34Z</time>
      </trkpt>
      <trkpt lat="47.41037" lon="-2.28301">
        <ele>4.94</ele>
        <time>2012-08-24T09:17:45Z</time>
      </trkpt>
      <trkpt lat="47.41" lon="-2.28324">
        <ele>5.42</ele>
        <time>2012-08-24T09:17:57Z</time>
      </trkpt>
      <trkpt lat="47.40956" lon="-2.28353">
        <ele>3.02</ele>
        <time>2012-08-24T09:18:09Z</time>
      </trkpt>
      <trkpt lat="47.40915" lon="-2.28381">
        <ele>-5.15</ele>
        <time>2012-08-24T09:18:22Z</time>
      </trkpt>
      <trkpt lat="47.40876" lon="-2.2842">
        <ele>-6.11</ele>
        <time>2012-08-24T09:18:34Z</time>
      </trkpt>
      <trkpt lat="47.40875" lon="-2.28425">
        <ele>-6.11</ele>
        <time>2012-08-24T09:18:35Z</time>
      </trkpt>
      <trkpt lat="47.40874" lon="-2.28431">
        <ele>-5.63</ele>
        <time>2012-08-24T09:18:36Z</time>
      </trkpt>
      <trkpt lat="47.40875" lon="-2.28436">
        <ele>-5.63</ele>
        <time>2012-08-24T09:18:37Z</time>
      </trkpt>
      <trkpt lat="47.40879" lon="-2.28476">
        <ele>-7.07</ele>
        <time>2012-08-24T09:18:45Z</time>
      </trkpt>
      <trkpt lat="47.4088" lon="-2.2848">
        <ele>-7.55</ele>
        <time>2012-08-24T09:18:46Z</time>
      </trkpt>
      <trkpt lat="47.40881" lon="-2.28485">
        <ele>-8.03</ele>
        <time>2012-08-24T09:18:47Z</time>
      </trkpt>
      <trkpt lat="47.40882" lon="-2.2849">
        <ele>-9</ele>
        <time>2012-08-24T09:18:48Z</time>
      </trkpt>
      <trkpt lat="47.40882" lon="-2.28495">
        <ele>-9.96</ele>
        <time>2012-08-24T09:18:49Z</time>
      </trkpt>
      <trkpt lat="47.40882" lon="-2.28502">
        <ele>-10.92</ele>
        <time>2012-08-24T09:18:50Z</time>
      </trkpt>
      <trkpt lat="47.40882" lon="-2.28511">
        <ele>-11.88</ele>
        <time>2012-08-24T09:18:51Z</time>
      </trkpt>
      <trkpt lat="47.40882" lon="-2.28519">
        <ele>-12.36</ele>
        <time>2012-08-24T09:18:52Z</time>
      </trkpt>
      <trkpt lat="47.40882" lon="-2.28528">
        <ele>-13.32</ele>
        <time>2012-08-24T09:18:53Z</time>
      </trkpt>
      <trkpt lat="47.40881" lon="-2.28567">
        <ele>-17.17</ele>
        <time>2012-08-24T09:18:57Z</time>
      </trkpt>
      <trkpt lat="47.40866" lon="-2.28655">
        <ele>-21.97</ele>
        <time>2012-08-24T09:19:08Z</time>
      </trkpt>
      <trkpt lat="47.40866" lon="-2.28663">
        <ele>-22.45</ele>
        <time>2012-08-24T09:19:09Z</time>
      </trkpt>
      <trkpt lat="47.40856" lon="-2.28741">
        <ele>-10.92</ele>
        <time>2012-08-24T09:19:21Z</time>
      </trkpt>
      <trkpt lat="47.40838" lon="-2.28804">
        <ele>1.1</ele>
        <time>2012-08-24T09:19:36Z</time>
      </trkpt>
      <trkpt lat="47.4083" lon="-2.28845">
        <ele>6.39</ele>
        <time>2012-08-24T09:19:50Z</time>
      </trkpt>
      <trkpt lat="47.40829" lon="-2.28852">
        <ele>6.39</ele>
        <time>2012-08-24T09:19:53Z</time>
      </trkpt>
      <trkpt lat="47.40829" lon="-2.28854">
        <ele>6.87</ele>
        <time>2012-08-24T09:19:54Z</time>
      </trkpt>
      <trkpt lat="47.4083" lon="-2.28857">
        <ele>6.39</ele>
        <time>2012-08-24T09:19:55Z</time>
      </trkpt>
      <trkpt lat="47.40829" lon="-2.28861">
        <ele>6.39</ele>
        <time>2012-08-24T09:19:56Z</time>
      </trkpt>
      <trkpt lat="47.40829" lon="-2.28864">
        <ele>6.87</ele>
        <time>2012-08-24T09:19:57Z</time>
      </trkpt>
      <trkpt lat="47.40829" lon="-2.28867">
        <ele>6.87</ele>
        <time>2012-08-24T09:19:58Z</time>
      </trkpt>
      <trkpt lat="47.40825" lon="-2.28912">
        <ele>10.23</ele>
        <time>2012-08-24T09:20:08Z</time>
      </trkpt>
      <trkpt lat="47.40819" lon="-2.28968">
        <ele>14.56</ele>
        <time>2012-08-24T09:20:20Z</time>
      </trkpt>
      <trkpt lat="47.40817" lon="-2.29019">
        <ele>15.52</ele>
        <time>2012-08-24T09:20:30Z</time>
      </trkpt>
      <trkpt lat="47.40816" lon="-2.29068">
        <ele>15.04</ele>
        <time>2012-08-24T09:20:37Z</time>
      </trkpt>
      <trkpt lat="47.40815" lon="-2.29074">
        <ele>15.04</ele>
        <time>2012-08-24T09:20:38Z</time>
      </trkpt>
      <trkpt lat="47.40815" lon="-2.29082">
        <ele>14.56</ele>
        <time>2012-08-24T09:20:39Z</time>
      </trkpt>
      <trkpt lat="47.40815" lon="-2.29089">
        <ele>14.56</ele>
        <time>2012-08-24T09:20:40Z</time>
      </trkpt>
      <trkpt lat="47.40814" lon="-2.29098">
        <ele>14.56</ele>
        <time>2012-08-24T09:20:41Z</time>
      </trkpt>
      <trkpt lat="47.40814" lon="-2.29122">
        <ele>14.08</ele>
        <time>2012-08-24T09:20:44Z</time>
      </trkpt>
      <trkpt lat="47.40815" lon="-2.29129">
        <ele>14.08</ele>
        <time>2012-08-24T09:20:45Z</time>
      </trkpt>
      <trkpt lat="47.40816" lon="-2.29136">
        <ele>14.08</ele>
        <time>2012-08-24T09:20:46Z</time>
      </trkpt>
      <trkpt lat="47.40816" lon="-2.29144">
        <ele>14.08</ele>
        <time>2012-08-24T09:20:47Z</time>
      </trkpt>
      <trkpt lat="47.40816" lon="-2.29152">
        <ele>14.08</ele>
        <time>2012-08-24T09:20:48Z</time>
      </trkpt>
      <trkpt lat="47.40816" lon="-2.29161">
        <ele>14.08</ele>
        <time>2012-08-24T09:20:49Z</time>
      </trkpt>
      <trkpt lat="47.40815" lon="-2.2917">
        <ele>13.6</ele>
        <time>2012-08-24T09:20:50Z</time>
      </trkpt>
      <trkpt lat="47.40807" lon="-2.29224">
        <ele>12.15</ele>
        <time>2012-08-24T09:20:56Z</time>
      </trkpt>
      <trkpt lat="47.40798" lon="-2.29269">
        <ele>10.71</ele>
        <time>2012-08-24T09:21:01Z</time>
      </trkpt>
      <trkpt lat="47.40797" lon="-2.29278">
        <ele>9.75</ele>
        <time>2012-08-24T09:21:02Z</time>
      </trkpt>
      <trkpt lat="47.40781" lon="-2.29356">
        <ele>1.58</ele>
        <time>2012-08-24T09:21:11Z</time>
      </trkpt>
      <trkpt lat="47.40779" lon="-2.29364">
        <ele>1.1</ele>
        <time>2012-08-24T09:21:12Z</time>
      </trkpt>
      <trkpt lat="47.40778" lon="-2.29371">
        <ele>1.1</ele>
        <time>2012-08-24T09:21:13Z</time>
      </trkpt>
      <trkpt lat="47.40776" lon="-2.29378">
        <ele>0.62</ele>
        <time>2012-08-24T09:21:14Z</time>
      </trkpt>
      <trkpt lat="47.40775" lon="-2.29386">
        <ele>0.62</ele>
        <time>2012-08-24T09:21:15Z</time>
      </trkpt>
      <trkpt lat="47.40775" lon="-2.29394">
        <ele>0.14</ele>
        <time>2012-08-24T09:21:16Z</time>
      </trkpt>
      <trkpt lat="47.40774" lon="-2.29401">
        <ele>0.14</ele>
        <time>2012-08-24T09:21:17Z</time>
      </trkpt>
      <trkpt lat="47.40774" lon="-2.29408">
        <ele>-0.34</ele>
        <time>2012-08-24T09:21:18Z</time>
      </trkpt>
      <trkpt lat="47.40774" lon="-2.29415">
        <ele>-0.34</ele>
        <time>2012-08-24T09:21:19Z</time>
      </trkpt>
      <trkpt lat="47.40775" lon="-2.29423">
        <ele>0.14</ele>
        <time>2012-08-24T09:21:20Z</time>
      </trkpt>
      <trkpt lat="47.40786" lon="-2.29492">
        <ele>0.14</ele>
        <time>2012-08-24T09:21:30Z</time>
      </trkpt>
      <trkpt lat="47.40788" lon="-2.29498">
        <ele>0.62</ele>
        <time>2012-08-24T09:21:31Z</time>
      </trkpt>
      <trkpt lat="47.40807" lon="-2.29589">
        <ele>2.06</ele>
        <time>2012-08-24T09:21:46Z</time>
      </trkpt>
      <trkpt lat="47.40816" lon="-2.29643">
        <ele>3.5</ele>
        <time>2012-08-24T09:21:57Z</time>
      </trkpt>
      <trkpt lat="47.40821" lon="-2.29714">
        <ele>1.1</ele>
        <time>2012-08-24T09:22:10Z</time>
      </trkpt>
      <trkpt lat="47.40825" lon="-2.29787">
        <ele>-0.82</ele>
        <time>2012-08-24T09:22:22Z</time>
      </trkpt>
      <trkpt lat="47.40826" lon="-2.29793">
        <ele>-1.3</ele>
        <time>2012-08-24T09:22:23Z</time>
      </trkpt>
      <trkpt lat="47.40853" lon="-2.29858">
        <ele>1.58</ele>
        <time>2012-08-24T09:22:36Z</time>
      </trkpt>
      <trkpt lat="47.4087" lon="-2.29933">
        <ele>4.46</ele>
        <time>2012-08-24T09:22:52Z</time>
      </trkpt>
      <trkpt lat="47.40869" lon="-2.29935">
        <ele>4.46</ele>
        <time>2012-08-24T09:22:53Z</time>
      </trkpt>
      <trkpt lat="47.40867" lon="-2.29937">
        <ele>4.94</ele>
        <time>2012-08-24T09:22:54Z</time>
      </trkpt>
      <trkpt lat="47.40828" lon="-2.29965">
        <ele>6.87</ele>
        <time>2012-08-24T09:23:07Z</time>
      </trkpt>
      <trkpt lat="47.40788" lon="-2.2998">
        <ele>8.79</ele>
        <time>2012-08-24T09:23:18Z</time>
      </trkpt>
      <trkpt lat="47.40758" lon="-2.29993">
        <ele>9.27</ele>
        <time>2012-08-24T09:23:27Z</time>
      </trkpt>
      <trkpt lat="47.40714" lon="-2.30019">
        <ele>8.31</ele>
        <time>2012-08-24T09:23:40Z</time>
      </trkpt>
      <trkpt lat="47.40689" lon="-2.30043">
        <ele>9.75</ele>
        <time>2012-08-24T09:23:53Z</time>
      </trkpt>
      <trkpt lat="47.40683" lon="-2.30058">
        <ele>9.75</ele>
        <time>2012-08-24T09:23:59Z</time>
      </trkpt>
      <trkpt lat="47.40693" lon="-2.30104">
        <ele>10.23</ele>
        <time>2012-08-24T09:24:11Z</time>
      </trkpt>
      <trkpt lat="47.407" lon="-2.30122">
        <ele>10.23</ele>
        <time>2012-08-24T09:24:21Z</time>
      </trkpt>
      <trkpt lat="47.40687" lon="-2.30146">
        <ele>10.71</ele>
        <time>2012-08-24T09:24:31Z</time>
      </trkpt>
      <trkpt lat="47.40675" lon="-2.30157">
        <ele>10.71</ele>
        <time>2012-08-24T09:24:34Z</time>
      </trkpt>
      <trkpt lat="47.40671" lon="-2.30161">
        <ele>10.23</ele>
        <time>2012-08-24T09:24:35Z</time>
      </trkpt>
      <trkpt lat="47.40611" lon="-2.30211">
        <ele>8.79</ele>
        <time>2012-08-24T09:24:49Z</time>
      </trkpt>
      <trkpt lat="47.40551" lon="-2.3026">
        <ele>9.27</ele>
        <time>2012-08-24T09:25:04Z</time>
      </trkpt>
      <trkpt lat="47.40515" lon="-2.30292">
        <ele>8.79</ele>
        <time>2012-08-24T09:25:13Z</time>
      </trkpt>
      <trkpt lat="47.40511" lon="-2.30296">
        <ele>8.31</ele>
        <time>2012-08-24T09:25:14Z</time>
      </trkpt>
      <trkpt lat="47.40507" lon="-2.303">
        <ele>8.31</ele>
        <time>2012-08-24T09:25:15Z</time>
      </trkpt>
      <trkpt lat="47.40503" lon="-2.30304">
        <ele>8.31</ele>
        <time>2012-08-24T09:25:16Z</time>
      </trkpt>
      <trkpt lat="47.40499" lon="-2.30308">
        <ele>8.31</ele>
        <time>2012-08-24T09:25:17Z</time>
      </trkpt>
      <trkpt lat="47.40446" lon="-2.30361">
        <ele>5.42</ele>
        <time>2012-08-24T09:25:30Z</time>
      </trkpt>
      <trkpt lat="47.40423" lon="-2.30386">
        <ele>3.98</ele>
        <time>2012-08-24T09:25:36Z</time>
      </trkpt>
      <trkpt lat="47.40419" lon="-2.3039">
        <ele>3.5</ele>
        <time>2012-08-24T09:25:37Z</time>
      </trkpt>
      <trkpt lat="47.40347" lon="-2.30464">
        <ele>2.54</ele>
        <time>2012-08-24T09:25:54Z</time>
      </trkpt>
      <trkpt lat="47.40331" lon="-2.30481">
        <ele>3.02</ele>
        <time>2012-08-24T09:25:58Z</time>
      </trkpt>
      <trkpt lat="47.40328" lon="-2.30485">
        <ele>3.02</ele>
        <time>2012-08-24T09:25:59Z</time>
      </trkpt>
      <trkpt lat="47.40326" lon="-2.30489">
        <ele>3.5</ele>
        <time>2012-08-24T09:26:00Z</time>
      </trkpt>
      <trkpt lat="47.40324" lon="-2.30491">
        <ele>3.5</ele>
        <time>2012-08-24T09:26:01Z</time>
      </trkpt>
      <trkpt lat="47.40323" lon="-2.30493">
        <ele>3.98</ele>
        <time>2012-08-24T09:26:13Z</time>
      </trkpt>
      <trkpt lat="47.40322" lon="-2.30492">
        <ele>5.42</ele>
        <time>2012-08-24T09:26:32Z</time>
      </trkpt>
      <trkpt lat="47.40322" lon="-2.30493">
        <ele>4.94</ele>
        <time>2012-08-24T09:26:53Z</time>
      </trkpt>
      <trkpt lat="47.40321" lon="-2.30491">
        <ele>5.42</ele>
        <time>2012-08-24T09:27:02Z</time>
      </trkpt>
      <trkpt lat="47.40319" lon="-2.30491">
        <ele>5.42</ele>
        <time>2012-08-24T09:27:03Z</time>
      </trkpt>
      <trkpt lat="47.40317" lon="-2.30491">
        <ele>5.42</ele>
        <time>2012-08-24T09:27:04Z</time>
      </trkpt>
      <trkpt lat="47.40315" lon="-2.30493">
        <ele>5.42</ele>
        <time>2012-08-24T09:27:05Z</time>
      </trkpt>
      <trkpt lat="47.40313" lon="-2.30496">
        <ele>5.91</ele>
        <time>2012-08-24T09:27:06Z</time>
      </trkpt>
      <trkpt lat="47.40266" lon="-2.30547">
        <ele>6.39</ele>
        <time>2012-08-24T09:27:19Z</time>
      </trkpt>
      <trkpt lat="47.40245" lon="-2.30564">
        <ele>6.39</ele>
        <time>2012-08-24T09:27:24Z</time>
      </trkpt>
      <trkpt lat="47.40217" lon="-2.30577">
        <ele>6.87</ele>
        <time>2012-08-24T09:27:30Z</time>
      </trkpt>
      <trkpt lat="47.40208" lon="-2.30579">
        <ele>6.87</ele>
        <time>2012-08-24T09:27:32Z</time>
      </trkpt>
      <trkpt lat="47.40204" lon="-2.3058">
        <ele>6.39</ele>
        <time>2012-08-24T09:27:33Z</time>
      </trkpt>
      <trkpt lat="47.40125" lon="-2.30588">
        <ele>7.83</ele>
        <time>2012-08-24T09:27:52Z</time>
      </trkpt>
      <trkpt lat="47.40076" lon="-2.30584">
        <ele>8.79</ele>
        <time>2012-08-24T09:28:05Z</time>
      </trkpt>
      <trkpt lat="47.40023" lon="-2.3057">
        <ele>9.75</ele>
        <time>2012-08-24T09:28:19Z</time>
      </trkpt>
      <trkpt lat="47.39973" lon="-2.30558">
        <ele>11.19</ele>
        <time>2012-08-24T09:28:33Z</time>
      </trkpt>
      <trkpt lat="47.39935" lon="-2.30567">
        <ele>12.15</ele>
        <time>2012-08-24T09:28:46Z</time>
      </trkpt>
      <trkpt lat="47.39923" lon="-2.30571">
        <ele>12.15</ele>
        <time>2012-08-24T09:28:49Z</time>
      </trkpt>
      <trkpt lat="47.39919" lon="-2.30573">
        <ele>12.15</ele>
        <time>2012-08-24T09:28:50Z</time>
      </trkpt>
      <trkpt lat="47.39865" lon="-2.3058">
        <ele>9.27</ele>
        <time>2012-08-24T09:29:03Z</time>
      </trkpt>
      <trkpt lat="47.39861" lon="-2.30579">
        <ele>9.27</ele>
        <time>2012-08-24T09:29:04Z</time>
      </trkpt>
      <trkpt lat="47.39814" lon="-2.30563">
        <ele>10.23</ele>
        <time>2012-08-24T09:29:17Z</time>
      </trkpt>
      <trkpt lat="47.39807" lon="-2.30563">
        <ele>10.23</ele>
        <time>2012-08-24T09:29:19Z</time>
      </trkpt>
      <trkpt lat="47.39805" lon="-2.30561">
        <ele>10.23</ele>
        <time>2012-08-24T09:29:20Z</time>
      </trkpt>
      <trkpt lat="47.39803" lon="-2.30557">
        <ele>10.23</ele>
        <time>2012-08-24T09:29:21Z</time>
      </trkpt>
      <trkpt lat="47.39802" lon="-2.30553">
        <ele>10.23</ele>
        <time>2012-08-24T09:29:22Z</time>
      </trkpt>
      <trkpt lat="47.39801" lon="-2.30549">
        <ele>10.23</ele>
        <time>2012-08-24T09:29:23Z</time>
      </trkpt>
      <trkpt lat="47.39801" lon="-2.30545">
        <ele>10.71</ele>
        <time>2012-08-24T09:29:24Z</time>
      </trkpt>
      <trkpt lat="47.398" lon="-2.30541">
        <ele>10.71</ele>
        <time>2012-08-24T09:29:25Z</time>
      </trkpt>
      <trkpt lat="47.39799" lon="-2.30537">
        <ele>10.71</ele>
        <time>2012-08-24T09:29:26Z</time>
      </trkpt>
      <trkpt lat="47.3979" lon="-2.30518">
        <ele>12.15</ele>
        <time>2012-08-24T09:29:33Z</time>
      </trkpt>
      <trkpt lat="47.39787" lon="-2.30515">
        <ele>12.63</ele>
        <time>2012-08-24T09:29:34Z</time>
      </trkpt>
      <trkpt lat="47.39785" lon="-2.3051">
        <ele>13.12</ele>
        <time>2012-08-24T09:29:35Z</time>
      </trkpt>
      <trkpt lat="47.39783" lon="-2.30506">
        <ele>13.12</ele>
        <time>2012-08-24T09:29:36Z</time>
      </trkpt>
      <trkpt lat="47.39781" lon="-2.30501">
        <ele>13.6</ele>
        <time>2012-08-24T09:29:37Z</time>
      </trkpt>
      <trkpt lat="47.39769" lon="-2.30479">
        <ele>15.04</ele>
        <time>2012-08-24T09:29:42Z</time>
      </trkpt>
      <trkpt lat="47.39765" lon="-2.30475">
        <ele>15.04</ele>
        <time>2012-08-24T09:29:43Z</time>
      </trkpt>
      <trkpt lat="47.39719" lon="-2.30432">
        <ele>13.12</ele>
        <time>2012-08-24T09:29:57Z</time>
      </trkpt>
      <trkpt lat="47.39695" lon="-2.30393">
        <ele>10.23</ele>
        <time>2012-08-24T09:30:09Z</time>
      </trkpt>
      <trkpt lat="47.39696" lon="-2.30323">
        <ele>9.27</ele>
        <time>2012-08-24T09:30:23Z</time>
      </trkpt>
      <trkpt lat="47.39696" lon="-2.30293">
        <ele>8.79</ele>
        <time>2012-08-24T09:30:32Z</time>
      </trkpt>
      <trkpt lat="47.39697" lon="-2.30291">
        <ele>8.79</ele>
        <time>2012-08-24T09:30:33Z</time>
      </trkpt>
      <trkpt lat="47.39699" lon="-2.30289">
        <ele>8.79</ele>
        <time>2012-08-24T09:30:34Z</time>
      </trkpt>
      <trkpt lat="47.397" lon="-2.30288">
        <ele>8.79</ele>
        <time>2012-08-24T09:30:35Z</time>
      </trkpt>
      <trkpt lat="47.397" lon="-2.30285">
        <ele>8.79</ele>
        <time>2012-08-24T09:30:36Z</time>
      </trkpt>
      <trkpt lat="47.39699" lon="-2.30282">
        <ele>8.79</ele>
        <time>2012-08-24T09:30:37Z</time>
      </trkpt>
      <trkpt lat="47.39698" lon="-2.30279">
        <ele>8.79</ele>
        <time>2012-08-24T09:30:38Z</time>
      </trkpt>
      <trkpt lat="47.39697" lon="-2.30275">
        <ele>8.79</ele>
        <time>2012-08-24T09:30:39Z</time>
      </trkpt>
      <trkpt lat="47.39696" lon="-2.30271">
        <ele>8.79</ele>
        <time>2012-08-24T09:30:40Z</time>
      </trkpt>
      <trkpt lat="47.39696" lon="-2.30265">
        <ele>8.79</ele>
        <time>2012-08-24T09:30:41Z</time>
      </trkpt>
      <trkpt lat="47.39696" lon="-2.30258">
        <ele>8.31</ele>
        <time>2012-08-24T09:30:42Z</time>
      </trkpt>
      <trkpt lat="47.39696" lon="-2.30236">
        <ele>7.83</ele>
        <time>2012-08-24T09:30:45Z</time>
      </trkpt>
      <trkpt lat="47.39695" lon="-2.30228">
        <ele>7.83</ele>
        <time>2012-08-24T09:30:46Z</time>
      </trkpt>
      <trkpt lat="47.39692" lon="-2.30194">
        <ele>6.87</ele>
        <time>2012-08-24T09:30:50Z</time>
      </trkpt>
      <trkpt lat="47.39691" lon="-2.30189">
        <ele>6.87</ele>
        <time>2012-08-24T09:30:51Z</time>
      </trkpt>
      <trkpt lat="47.39691" lon="-2.30185">
        <ele>6.87</ele>
        <time>2012-08-24T09:30:52Z</time>
      </trkpt>
      <trkpt lat="47.3969" lon="-2.30182">
        <ele>6.87</ele>
        <time>2012-08-24T09:30:53Z</time>
      </trkpt>
      <trkpt lat="47.39689" lon="-2.30179">
        <ele>6.87</ele>
        <time>2012-08-24T09:30:54Z</time>
      </trkpt>
      <trkpt lat="47.39685" lon="-2.30165">
        <ele>8.31</ele>
        <time>2012-08-24T09:31:00Z</time>
      </trkpt>
      <trkpt lat="47.39685" lon="-2.30163">
        <ele>8.79</ele>
        <time>2012-08-24T09:31:01Z</time>
      </trkpt>
      <trkpt lat="47.39685" lon="-2.30161">
        <ele>8.79</ele>
        <time>2012-08-24T09:31:02Z</time>
      </trkpt>
      <trkpt lat="47.39685" lon="-2.30159">
        <ele>8.79</ele>
        <time>2012-08-24T09:31:03Z</time>
      </trkpt>
      <trkpt lat="47.39685" lon="-2.30157">
        <ele>9.27</ele>
        <time>2012-08-24T09:31:04Z</time>
      </trkpt>
      <trkpt lat="47.39683" lon="-2.30156">
        <ele>9.27</ele>
        <time>2012-08-24T09:31:05Z</time>
      </trkpt>
      <trkpt lat="47.39682" lon="-2.30157">
        <ele>9.27</ele>
        <time>2012-08-24T09:31:06Z</time>
      </trkpt>
      <trkpt lat="47.3968" lon="-2.30158">
        <ele>9.27</ele>
        <time>2012-08-24T09:31:07Z</time>
      </trkpt>
      <trkpt lat="47.39679" lon="-2.30161">
        <ele>9.27</ele>
        <time>2012-08-24T09:31:08Z</time>
      </trkpt>
      <trkpt lat="47.39677" lon="-2.30164">
        <ele>9.27</ele>
        <time>2012-08-24T09:31:09Z</time>
      </trkpt>
      <trkpt lat="47.39656" lon="-2.30208">
        <ele>11.19</ele>
        <time>2012-08-24T09:31:22Z</time>
      </trkpt>
      <trkpt lat="47.39627" lon="-2.30232">
        <ele>11.19</ele>
        <time>2012-08-24T09:31:34Z</time>
      </trkpt>
      <trkpt lat="47.39591" lon="-2.30251">
        <ele>12.15</ele>
        <time>2012-08-24T09:31:45Z</time>
      </trkpt>
      <trkpt lat="47.39549" lon="-2.30266">
        <ele>11.67</ele>
        <time>2012-08-24T09:31:58Z</time>
      </trkpt>
      <trkpt lat="47.39501" lon="-2.30285">
        <ele>9.75</ele>
        <time>2012-08-24T09:32:12Z</time>
      </trkpt>
      <trkpt lat="47.39488" lon="-2.3028">
        <ele>8.31</ele>
        <time>2012-08-24T09:32:18Z</time>
      </trkpt>
      <trkpt lat="47.39486" lon="-2.30276">
        <ele>7.83</ele>
        <time>2012-08-24T09:32:19Z</time>
      </trkpt>
      <trkpt lat="47.39484" lon="-2.30271">
        <ele>7.35</ele>
        <time>2012-08-24T09:32:20Z</time>
      </trkpt>
      <trkpt lat="47.39483" lon="-2.30265">
        <ele>7.35</ele>
        <time>2012-08-24T09:32:21Z</time>
      </trkpt>
      <trkpt lat="47.39482" lon="-2.30259">
        <ele>6.87</ele>
        <time>2012-08-24T09:32:22Z</time>
      </trkpt>
      <trkpt lat="47.39481" lon="-2.30252">
        <ele>6.87</ele>
        <time>2012-08-24T09:32:23Z</time>
      </trkpt>
      <trkpt lat="47.39469" lon="-2.30196">
        <ele>5.91</ele>
        <time>2012-08-24T09:32:32Z</time>
      </trkpt>
      <trkpt lat="47.39446" lon="-2.30089">
        <ele>6.87</ele>
        <time>2012-08-24T09:32:48Z</time>
      </trkpt>
      <trkpt lat="47.39422" lon="-2.29964">
        <ele>5.91</ele>
        <time>2012-08-24T09:33:03Z</time>
      </trkpt>
      <trkpt lat="47.39387" lon="-2.29799">
        <ele>4.94</ele>
        <time>2012-08-24T09:33:17Z</time>
      </trkpt>
      <trkpt lat="47.39367" lon="-2.29702">
        <ele>6.39</ele>
        <time>2012-08-24T09:33:28Z</time>
      </trkpt>
      <trkpt lat="47.39348" lon="-2.29617">
        <ele>7.83</ele>
        <time>2012-08-24T09:33:43Z</time>
      </trkpt>
      <trkpt lat="47.39337" lon="-2.29581">
        <ele>7.35</ele>
        <time>2012-08-24T09:33:57Z</time>
      </trkpt>
      <trkpt lat="47.39313" lon="-2.29591">
        <ele>7.35</ele>
        <time>2012-08-24T09:34:08Z</time>
      </trkpt>
      <trkpt lat="47.39305" lon="-2.29595">
        <ele>7.35</ele>
        <time>2012-08-24T09:34:10Z</time>
      </trkpt>
      <trkpt lat="47.39301" lon="-2.29596">
        <ele>7.35</ele>
        <time>2012-08-24T09:34:11Z</time>
      </trkpt>
      <trkpt lat="47.39247" lon="-2.29629">
        <ele>6.87</ele>
        <time>2012-08-24T09:34:26Z</time>
      </trkpt>
      <trkpt lat="47.3924" lon="-2.29633">
        <ele>6.39</ele>
        <time>2012-08-24T09:34:28Z</time>
      </trkpt>
      <trkpt lat="47.39235" lon="-2.29635">
        <ele>6.87</ele>
        <time>2012-08-24T09:34:29Z</time>
      </trkpt>
      <trkpt lat="47.39232" lon="-2.29637">
        <ele>6.39</ele>
        <time>2012-08-24T09:34:30Z</time>
      </trkpt>
      <trkpt lat="47.39228" lon="-2.2964">
        <ele>6.39</ele>
        <time>2012-08-24T09:34:31Z</time>
      </trkpt>
      <trkpt lat="47.39224" lon="-2.29642">
        <ele>6.39</ele>
        <time>2012-08-24T09:34:32Z</time>
      </trkpt>
      <trkpt lat="47.39221" lon="-2.29644">
        <ele>6.39</ele>
        <time>2012-08-24T09:34:33Z</time>
      </trkpt>
      <trkpt lat="47.39218" lon="-2.29646">
        <ele>6.39</ele>
        <time>2012-08-24T09:34:34Z</time>
      </trkpt>
      <trkpt lat="47.39177" lon="-2.29673">
        <ele>5.42</ele>
        <time>2012-08-24T09:34:46Z</time>
      </trkpt>
      <trkpt lat="47.39133" lon="-2.29699">
        <ele>3.98</ele>
        <time>2012-08-24T09:34:58Z</time>
      </trkpt>
      <trkpt lat="47.39085" lon="-2.29725">
        <ele>3.98</ele>
        <time>2012-08-24T09:35:11Z</time>
      </trkpt>
      <trkpt lat="47.39075" lon="-2.29731">
        <ele>3.98</ele>
        <time>2012-08-24T09:35:14Z</time>
      </trkpt>
      <trkpt lat="47.39072" lon="-2.29733">
        <ele>3.98</ele>
        <time>2012-08-24T09:35:15Z</time>
      </trkpt>
      <trkpt lat="47.39033" lon="-2.29757">
        <ele>5.42</ele>
        <time>2012-08-24T09:35:26Z</time>
      </trkpt>
      <trkpt lat="47.39" lon="-2.29783">
        <ele>5.91</ele>
        <time>2012-08-24T09:35:37Z</time>
      </trkpt>
      <trkpt lat="47.39005" lon="-2.2984">
        <ele>5.91</ele>
        <time>2012-08-24T09:35:47Z</time>
      </trkpt>
      <trkpt lat="47.39001" lon="-2.2985">
        <ele>5.42</ele>
        <time>2012-08-24T09:35:49Z</time>
      </trkpt>
      <trkpt lat="47.38998" lon="-2.29853">
        <ele>5.42</ele>
        <time>2012-08-24T09:35:50Z</time>
      </trkpt>
      <trkpt lat="47.38994" lon="-2.29855">
        <ele>5.91</ele>
        <time>2012-08-24T09:35:51Z</time>
      </trkpt>
      <trkpt lat="47.3899" lon="-2.29856">
        <ele>5.91</ele>
        <time>2012-08-24T09:35:52Z</time>
      </trkpt>
      <trkpt lat="47.38987" lon="-2.29857">
        <ele>5.91</ele>
        <time>2012-08-24T09:35:53Z</time>
      </trkpt>
      <trkpt lat="47.38942" lon="-2.29871">
        <ele>4.94</ele>
        <time>2012-08-24T09:36:07Z</time>
      </trkpt>
      <trkpt lat="47.38898" lon="-2.29882">
        <ele>3.98</ele>
        <time>2012-08-24T09:36:20Z</time>
      </trkpt>
      <trkpt lat="47.38841" lon="-2.299">
        <ele>2.54</ele>
        <time>2012-08-24T09:36:36Z</time>
      </trkpt>
      <trkpt lat="47.38823" lon="-2.29907">
        <ele>2.54</ele>
        <time>2012-08-24T09:36:42Z</time>
      </trkpt>
      <trkpt lat="47.38821" lon="-2.29913">
        <ele>2.54</ele>
        <time>2012-08-24T09:36:56Z</time>
      </trkpt>
      <trkpt lat="47.38822" lon="-2.29915">
        <ele>3.5</ele>
        <time>2012-08-24T09:37:30Z</time>
      </trkpt>
      <trkpt lat="47.38822" lon="-2.29914">
        <ele>5.42</ele>
        <time>2012-08-24T09:37:53Z</time>
      </trkpt>
      <trkpt lat="47.38822" lon="-2.29913">
        <ele>5.42</ele>
        <time>2012-08-24T09:38:19Z</time>
      </trkpt>
      <trkpt lat="47.38822" lon="-2.29913">
        <ele>4.94</ele>
        <time>2012-08-24T09:38:53Z</time>
      </trkpt>
      <trkpt lat="47.38822" lon="-2.29914">
        <ele>5.42</ele>
        <time>2012-08-24T09:39:28Z</time>
      </trkpt>
      <trkpt lat="47.38823" lon="-2.29915">
        <ele>5.91</ele>
        <time>2012-08-24T09:39:57Z</time>
      </trkpt>
      <trkpt lat="47.38823" lon="-2.29915">
        <ele>6.39</ele>
        <time>2012-08-24T09:40:29Z</time>
      </trkpt>
      <trkpt lat="47.38823" lon="-2.29915">
        <ele>6.39</ele>
        <time>2012-08-24T09:40:57Z</time>
      </trkpt>
      <trkpt lat="47.38823" lon="-2.29915">
        <ele>5.91</ele>
        <time>2012-08-24T09:41:33Z</time>
      </trkpt>
      <trkpt lat="47.38824" lon="-2.29915">
        <ele>6.39</ele>
        <time>2012-08-24T09:42:08Z</time>
      </trkpt>
      <trkpt lat="47.38824" lon="-2.29915">
        <ele>7.35</ele>
        <time>2012-08-24T09:42:31Z</time>
      </trkpt>
      <trkpt lat="47.38824" lon="-2.29911">
        <ele>6.39</ele>
        <time>2012-08-24T09:42:39Z</time>
      </trkpt>
      <trkpt lat="47.38823" lon="-2.29909">
        <ele>6.39</ele>
        <time>2012-08-24T09:42:40Z</time>
      </trkpt>
      <trkpt lat="47.38822" lon="-2.29907">
        <ele>6.39</ele>
        <time>2012-08-24T09:42:41Z</time>
      </trkpt>
      <trkpt lat="47.3882" lon="-2.29906">
        <ele>6.39</ele>
        <time>2012-08-24T09:42:42Z</time>
      </trkpt>
      <trkpt lat="47.38818" lon="-2.29906">
        <ele>5.91</ele>
        <time>2012-08-24T09:42:43Z</time>
      </trkpt>
      <trkpt lat="47.38815" lon="-2.29907">
        <ele>5.91</ele>
        <time>2012-08-24T09:42:44Z</time>
      </trkpt>
      <trkpt lat="47.38813" lon="-2.29907">
        <ele>5.91</ele>
        <time>2012-08-24T09:42:45Z</time>
      </trkpt>
      <trkpt lat="47.3881" lon="-2.29908">
        <ele>5.42</ele>
        <time>2012-08-24T09:42:46Z</time>
      </trkpt>
      <trkpt lat="47.38808" lon="-2.29909">
        <ele>5.42</ele>
        <time>2012-08-24T09:42:47Z</time>
      </trkpt>
      <trkpt lat="47.38806" lon="-2.29909">
        <ele>4.94</ele>
        <time>2012-08-24T09:42:48Z</time>
      </trkpt>
      <trkpt lat="47.38804" lon="-2.2991">
        <ele>4.94</ele>
        <time>2012-08-24T09:42:49Z</time>
      </trkpt>
      <trkpt lat="47.38801" lon="-2.29911">
        <ele>4.94</ele>
        <time>2012-08-24T09:42:50Z</time>
      </trkpt>
      <trkpt lat="47.38798" lon="-2.29912">
        <ele>4.94</ele>
        <time>2012-08-24T09:42:51Z</time>
      </trkpt>
      <trkpt lat="47.38762" lon="-2.29922">
        <ele>5.42</ele>
        <time>2012-08-24T09:43:01Z</time>
      </trkpt>
      <trkpt lat="47.38713" lon="-2.29935">
        <ele>8.31</ele>
        <time>2012-08-24T09:43:14Z</time>
      </trkpt>
      <trkpt lat="47.38665" lon="-2.2995">
        <ele>10.23</ele>
        <time>2012-08-24T09:43:27Z</time>
      </trkpt>
      <trkpt lat="47.38626" lon="-2.29961">
        <ele>8.79</ele>
        <time>2012-08-24T09:43:38Z</time>
      </trkpt>
      <trkpt lat="47.3858" lon="-2.29971">
        <ele>10.23</ele>
        <time>2012-08-24T09:43:50Z</time>
      </trkpt>
      <trkpt lat="47.38565" lon="-2.29979">
        <ele>9.27</ele>
        <time>2012-08-24T09:43:54Z</time>
      </trkpt>
      <trkpt lat="47.38563" lon="-2.29983">
        <ele>8.79</ele>
        <time>2012-08-24T09:43:55Z</time>
      </trkpt>
      <trkpt lat="47.38562" lon="-2.29988">
        <ele>8.79</ele>
        <time>2012-08-24T09:43:56Z</time>
      </trkpt>
      <trkpt lat="47.38561" lon="-2.29993">
        <ele>8.79</ele>
        <time>2012-08-24T09:43:57Z</time>
      </trkpt>
      <trkpt lat="47.38561" lon="-2.29998">
        <ele>8.79</ele>
        <time>2012-08-24T09:43:58Z</time>
      </trkpt>
      <trkpt lat="47.38561" lon="-2.30003">
        <ele>8.79</ele>
        <time>2012-08-24T09:43:59Z</time>
      </trkpt>
      <trkpt lat="47.38566" lon="-2.30059">
        <ele>6.39</ele>
        <time>2012-08-24T09:44:12Z</time>
      </trkpt>
      <trkpt lat="47.38575" lon="-2.30119">
        <ele>4.46</ele>
        <time>2012-08-24T09:44:25Z</time>
      </trkpt>
      <trkpt lat="47.38587" lon="-2.302">
        <ele>6.39</ele>
        <time>2012-08-24T09:44:40Z</time>
      </trkpt>
      <trkpt lat="47.38598" lon="-2.30282">
        <ele>8.79</ele>
        <time>2012-08-24T09:44:55Z</time>
      </trkpt>
      <trkpt lat="47.38609" lon="-2.3037">
        <ele>9.75</ele>
        <time>2012-08-24T09:45:11Z</time>
      </trkpt>
      <trkpt lat="47.38625" lon="-2.3047">
        <ele>9.75</ele>
        <time>2012-08-24T09:45:28Z</time>
      </trkpt>
      <trkpt lat="47.38633" lon="-2.30527">
        <ele>9.27</ele>
        <time>2012-08-24T09:45:37Z</time>
      </trkpt>
      <trkpt lat="47.38635" lon="-2.30539">
        <ele>9.27</ele>
        <time>2012-08-24T09:45:39Z</time>
      </trkpt>
      <trkpt lat="47.38636" lon="-2.30545">
        <ele>9.27</ele>
        <time>2012-08-24T09:45:40Z</time>
      </trkpt>
      <trkpt lat="47.38641" lon="-2.3058">
        <ele>9.75</ele>
        <time>2012-08-24T09:45:46Z</time>
      </trkpt>
      <trkpt lat="47.3865" lon="-2.30654">
        <ele>10.23</ele>
        <time>2012-08-24T09:46:00Z</time>
      </trkpt>
      <trkpt lat="47.38647" lon="-2.3069">
        <ele>9.27</ele>
        <time>2012-08-24T09:46:11Z</time>
      </trkpt>
      <trkpt lat="47.38646" lon="-2.30691">
        <ele>8.79</ele>
        <time>2012-08-24T09:46:30Z</time>
      </trkpt>
      <trkpt lat="47.38647" lon="-2.30691">
        <ele>10.23</ele>
        <time>2012-08-24T09:46:58Z</time>
      </trkpt>
      <trkpt lat="47.38646" lon="-2.30692">
        <ele>10.23</ele>
        <time>2012-08-24T09:47:26Z</time>
      </trkpt>
      <trkpt lat="47.38646" lon="-2.30692">
        <ele>10.71</ele>
        <time>2012-08-24T09:47:52Z</time>
      </trkpt>
      <trkpt lat="47.38646" lon="-2.30693">
        <ele>10.71</ele>
        <time>2012-08-24T09:48:17Z</time>
      </trkpt>
      <trkpt lat="47.38646" lon="-2.30692">
        <ele>10.23</ele>
        <time>2012-08-24T09:48:50Z</time>
      </trkpt>
      <trkpt lat="47.38646" lon="-2.30693">
        <ele>9.75</ele>
        <time>2012-08-24T09:49:16Z</time>
      </trkpt>
      <trkpt lat="47.38645" lon="-2.30693">
        <ele>10.23</ele>
        <time>2012-08-24T09:49:37Z</time>
      </trkpt>
      <trkpt lat="47.38645" lon="-2.30693">
        <ele>10.71</ele>
        <time>2012-08-24T09:50:08Z</time>
      </trkpt>
      <trkpt lat="47.38645" lon="-2.30693">
        <ele>10.23</ele>
        <time>2012-08-24T09:50:31Z</time>
      </trkpt>
      <trkpt lat="47.38646" lon="-2.30692">
        <ele>10.71</ele>
        <time>2012-08-24T09:51:05Z</time>
      </trkpt>
      <trkpt lat="47.38645" lon="-2.30692">
        <ele>11.67</ele>
        <time>2012-08-24T09:51:35Z</time>
      </trkpt>
      <trkpt lat="47.38644" lon="-2.30692">
        <ele>12.15</ele>
        <time>2012-08-24T09:52:11Z</time>
      </trkpt>
      <trkpt lat="47.38644" lon="-2.30691">
        <ele>12.15</ele>
        <time>2012-08-24T09:52:22Z</time>
      </trkpt>
      <trkpt lat="47.38643" lon="-2.30691">
        <ele>12.15</ele>
        <time>2012-08-24T09:52:23Z</time>
      </trkpt>
      <trkpt lat="47.38641" lon="-2.3069">
        <ele>12.15</ele>
        <time>2012-08-24T09:52:24Z</time>
      </trkpt>
      <trkpt lat="47.38611" lon="-2.30704">
        <ele>13.6</ele>
        <time>2012-08-24T09:52:35Z</time>
      </trkpt>
      <trkpt lat="47.38562" lon="-2.30733">
        <ele>13.12</ele>
        <time>2012-08-24T09:52:51Z</time>
      </trkpt>
      <trkpt lat="47.3852" lon="-2.30758">
        <ele>12.63</ele>
        <time>2012-08-24T09:53:05Z</time>
      </trkpt>
      <trkpt lat="47.38484" lon="-2.30792">
        <ele>11.67</ele>
        <time>2012-08-24T09:53:18Z</time>
      </trkpt>
      <trkpt lat="47.38451" lon="-2.30847">
        <ele>10.71</ele>
        <time>2012-08-24T09:53:32Z</time>
      </trkpt>
      <trkpt lat="47.38433" lon="-2.3089">
        <ele>10.71</ele>
        <time>2012-08-24T09:53:41Z</time>
      </trkpt>
      <trkpt lat="47.38397" lon="-2.30973">
        <ele>11.67</ele>
        <time>2012-08-24T09:53:57Z</time>
      </trkpt>
      <trkpt lat="47.38377" lon="-2.31017">
        <ele>13.12</ele>
        <time>2012-08-24T09:54:05Z</time>
      </trkpt>
      <trkpt lat="47.38375" lon="-2.31023">
        <ele>13.12</ele>
        <time>2012-08-24T09:54:06Z</time>
      </trkpt>
      <trkpt lat="47.38364" lon="-2.31051">
        <ele>13.6</ele>
        <time>2012-08-24T09:54:11Z</time>
      </trkpt>
      <trkpt lat="47.3836" lon="-2.31064">
        <ele>13.6</ele>
        <time>2012-08-24T09:54:13Z</time>
      </trkpt>
      <trkpt lat="47.38355" lon="-2.31088">
        <ele>13.6</ele>
        <time>2012-08-24T09:54:17Z</time>
      </trkpt>
      <trkpt lat="47.38354" lon="-2.31094">
        <ele>13.6</ele>
        <time>2012-08-24T09:54:18Z</time>
      </trkpt>
      <trkpt lat="47.3835" lon="-2.31116">
        <ele>13.12</ele>
        <time>2012-08-24T09:54:22Z</time>
      </trkpt>
      <trkpt lat="47.38348" lon="-2.31123">
        <ele>13.12</ele>
        <time>2012-08-24T09:54:23Z</time>
      </trkpt>
      <trkpt lat="47.38347" lon="-2.3113">
        <ele>13.12</ele>
        <time>2012-08-24T09:54:24Z</time>
      </trkpt>
      <trkpt lat="47.38345" lon="-2.31143">
        <ele>13.12</ele>
        <time>2012-08-24T09:54:26Z</time>
      </trkpt>
      <trkpt lat="47.38344" lon="-2.31149">
        <ele>13.12</ele>
        <time>2012-08-24T09:54:27Z</time>
      </trkpt>
      <trkpt lat="47.38344" lon="-2.31154">
        <ele>13.6</ele>
        <time>2012-08-24T09:54:28Z</time>
      </trkpt>
      <trkpt lat="47.38344" lon="-2.3116">
        <ele>13.6</ele>
        <time>2012-08-24T09:54:29Z</time>
      </trkpt>
      <trkpt lat="47.38344" lon="-2.31166">
        <ele>13.6</ele>
        <time>2012-08-24T09:54:30Z</time>
      </trkpt>
      <trkpt lat="47.38344" lon="-2.31172">
        <ele>13.6</ele>
        <time>2012-08-24T09:54:31Z</time>
      </trkpt>
      <trkpt lat="47.38351" lon="-2.31244">
        <ele>12.63</ele>
        <time>2012-08-24T09:54:42Z</time>
      </trkpt>
      <trkpt lat="47.38367" lon="-2.31324">
        <ele>16</ele>
        <time>2012-08-24T09:54:55Z</time>
      </trkpt>
      <trkpt lat="47.3837" lon="-2.31337">
        <ele>16</ele>
        <time>2012-08-24T09:54:57Z</time>
      </trkpt>
      <trkpt lat="47.38384" lon="-2.3143">
        <ele>15.04</ele>
        <time>2012-08-24T09:55:11Z</time>
      </trkpt>
      <trkpt lat="47.38372" lon="-2.31493">
        <ele>13.6</ele>
        <time>2012-08-24T09:55:23Z</time>
      </trkpt>
      <trkpt lat="47.38372" lon="-2.31497">
        <ele>13.6</ele>
        <time>2012-08-24T09:55:24Z</time>
      </trkpt>
      <trkpt lat="47.38369" lon="-2.3152">
        <ele>13.12</ele>
        <time>2012-08-24T09:55:36Z</time>
      </trkpt>
      <trkpt lat="47.38367" lon="-2.31525">
        <ele>12.63</ele>
        <time>2012-08-24T09:55:53Z</time>
      </trkpt>
      <trkpt lat="47.38381" lon="-2.31567">
        <ele>13.12</ele>
        <time>2012-08-24T09:56:03Z</time>
      </trkpt>
      <trkpt lat="47.38391" lon="-2.31595">
        <ele>12.63</ele>
        <time>2012-08-24T09:56:08Z</time>
      </trkpt>
      <trkpt lat="47.38393" lon="-2.316">
        <ele>12.63</ele>
        <time>2012-08-24T09:56:09Z</time>
      </trkpt>
      <trkpt lat="47.38395" lon="-2.31605">
        <ele>12.63</ele>
        <time>2012-08-24T09:56:10Z</time>
      </trkpt>
      <trkpt lat="47.38397" lon="-2.3161">
        <ele>12.15</ele>
        <time>2012-08-24T09:56:11Z</time>
      </trkpt>
      <trkpt lat="47.38399" lon="-2.31616">
        <ele>12.15</ele>
        <time>2012-08-24T09:56:12Z</time>
      </trkpt>
      <trkpt lat="47.384" lon="-2.31621">
        <ele>12.15</ele>
        <time>2012-08-24T09:56:13Z</time>
      </trkpt>
      <trkpt lat="47.38402" lon="-2.31626">
        <ele>11.67</ele>
        <time>2012-08-24T09:56:14Z</time>
      </trkpt>
      <trkpt lat="47.38403" lon="-2.31631">
        <ele>11.67</ele>
        <time>2012-08-24T09:56:15Z</time>
      </trkpt>
      <trkpt lat="47.38404" lon="-2.31636">
        <ele>11.19</ele>
        <time>2012-08-24T09:56:16Z</time>
      </trkpt>
      <trkpt lat="47.38405" lon="-2.31642">
        <ele>10.71</ele>
        <time>2012-08-24T09:56:17Z</time>
      </trkpt>
      <trkpt lat="47.38408" lon="-2.31647">
        <ele>10.71</ele>
        <time>2012-08-24T09:56:18Z</time>
      </trkpt>
      <trkpt lat="47.3841" lon="-2.31652">
        <ele>10.23</ele>
        <time>2012-08-24T09:56:19Z</time>
      </trkpt>
      <trkpt lat="47.38441" lon="-2.31728">
        <ele>7.35</ele>
        <time>2012-08-24T09:56:33Z</time>
      </trkpt>
      <trkpt lat="47.38458" lon="-2.31774">
        <ele>8.31</ele>
        <time>2012-08-24T09:56:41Z</time>
      </trkpt>
      <trkpt lat="47.3846" lon="-2.3178">
        <ele>8.31</ele>
        <time>2012-08-24T09:56:42Z</time>
      </trkpt>
      <trkpt lat="47.38462" lon="-2.31786">
        <ele>8.31</ele>
        <time>2012-08-24T09:56:43Z</time>
      </trkpt>
      <trkpt lat="47.38475" lon="-2.31823">
        <ele>9.27</ele>
        <time>2012-08-24T09:56:50Z</time>
      </trkpt>
      <trkpt lat="47.38499" lon="-2.31885">
        <ele>7.83</ele>
        <time>2012-08-24T09:57:02Z</time>
      </trkpt>
      <trkpt lat="47.38501" lon="-2.3189">
        <ele>8.31</ele>
        <time>2012-08-24T09:57:03Z</time>
      </trkpt>
      <trkpt lat="47.38502" lon="-2.31895">
        <ele>8.79</ele>
        <time>2012-08-24T09:57:04Z</time>
      </trkpt>
      <trkpt lat="47.38504" lon="-2.31899">
        <ele>8.79</ele>
        <time>2012-08-24T09:57:05Z</time>
      </trkpt>
      <trkpt lat="47.38506" lon="-2.31904">
        <ele>9.27</ele>
        <time>2012-08-24T09:57:06Z</time>
      </trkpt>
      <trkpt lat="47.38508" lon="-2.31909">
        <ele>9.27</ele>
        <time>2012-08-24T09:57:07Z</time>
      </trkpt>
      <trkpt lat="47.38528" lon="-2.31973">
        <ele>10.23</ele>
        <time>2012-08-24T09:57:19Z</time>
      </trkpt>
      <trkpt lat="47.38557" lon="-2.32049">
        <ele>11.67</ele>
        <time>2012-08-24T09:57:32Z</time>
      </trkpt>
      <trkpt lat="47.38579" lon="-2.3211">
        <ele>12.63</ele>
        <time>2012-08-24T09:57:43Z</time>
      </trkpt>
      <trkpt lat="47.38603" lon="-2.32172">
        <ele>13.12</ele>
        <time>2012-08-24T09:57:53Z</time>
      </trkpt>
      <trkpt lat="47.38623" lon="-2.32213">
        <ele>12.15</ele>
        <time>2012-08-24T09:58:00Z</time>
      </trkpt>
      <trkpt lat="47.38628" lon="-2.32225">
        <ele>11.67</ele>
        <time>2012-08-24T09:58:02Z</time>
      </trkpt>
      <trkpt lat="47.38639" lon="-2.32252">
        <ele>11.19</ele>
        <time>2012-08-24T09:58:06Z</time>
      </trkpt>
      <trkpt lat="47.38642" lon="-2.32259">
        <ele>10.71</ele>
        <time>2012-08-24T09:58:07Z</time>
      </trkpt>
      <trkpt lat="47.38645" lon="-2.32266">
        <ele>10.23</ele>
        <time>2012-08-24T09:58:08Z</time>
      </trkpt>
      <trkpt lat="47.38665" lon="-2.32313">
        <ele>7.35</ele>
        <time>2012-08-24T09:58:15Z</time>
      </trkpt>
      <trkpt lat="47.38668" lon="-2.3232">
        <ele>6.87</ele>
        <time>2012-08-24T09:58:16Z</time>
      </trkpt>
      <trkpt lat="47.38671" lon="-2.32327">
        <ele>6.87</ele>
        <time>2012-08-24T09:58:17Z</time>
      </trkpt>
      <trkpt lat="47.38695" lon="-2.32401">
        <ele>3.02</ele>
        <time>2012-08-24T09:58:29Z</time>
      </trkpt>
      <trkpt lat="47.38701" lon="-2.3242">
        <ele>2.54</ele>
        <time>2012-08-24T09:58:32Z</time>
      </trkpt>
      <trkpt lat="47.38703" lon="-2.32426">
        <ele>2.06</ele>
        <time>2012-08-24T09:58:33Z</time>
      </trkpt>
      <trkpt lat="47.38706" lon="-2.32432">
        <ele>2.06</ele>
        <time>2012-08-24T09:58:34Z</time>
      </trkpt>
      <trkpt lat="47.38709" lon="-2.32438">
        <ele>1.58</ele>
        <time>2012-08-24T09:58:35Z</time>
      </trkpt>
      <trkpt lat="47.38712" lon="-2.32444">
        <ele>1.58</ele>
        <time>2012-08-24T09:58:36Z</time>
      </trkpt>
      <trkpt lat="47.38716" lon="-2.3248">
        <ele>3.02</ele>
        <time>2012-08-24T09:58:42Z</time>
      </trkpt>
      <trkpt lat="47.38713" lon="-2.32485">
        <ele>3.5</ele>
        <time>2012-08-24T09:58:43Z</time>
      </trkpt>
      <trkpt lat="47.38669" lon="-2.32528">
        <ele>4.94</ele>
        <time>2012-08-24T09:58:56Z</time>
      </trkpt>
      <trkpt lat="47.38611" lon="-2.32582">
        <ele>6.39</ele>
        <time>2012-08-24T09:59:13Z</time>
      </trkpt>
      <trkpt lat="47.38559" lon="-2.3263">
        <ele>8.79</ele>
        <time>2012-08-24T09:59:29Z</time>
      </trkpt>
      <trkpt lat="47.38513" lon="-2.32674">
        <ele>9.75</ele>
        <time>2012-08-24T09:59:45Z</time>
      </trkpt>
      <trkpt lat="47.38465" lon="-2.32718">
        <ele>12.15</ele>
        <time>2012-08-24T10:00:03Z</time>
      </trkpt>
      <trkpt lat="47.38426" lon="-2.32754">
        <ele>14.08</ele>
        <time>2012-08-24T10:00:18Z</time>
      </trkpt>
      <trkpt lat="47.38395" lon="-2.32782">
        <ele>14.56</ele>
        <time>2012-08-24T10:00:31Z</time>
      </trkpt>
      <trkpt lat="47.38361" lon="-2.32814">
        <ele>16.48</ele>
        <time>2012-08-24T10:00:45Z</time>
      </trkpt>
      <trkpt lat="47.38328" lon="-2.32846">
        <ele>16.96</ele>
        <time>2012-08-24T10:00:59Z</time>
      </trkpt>
      <trkpt lat="47.38294" lon="-2.32877">
        <ele>17.92</ele>
        <time>2012-08-24T10:01:14Z</time>
      </trkpt>
      <trkpt lat="47.38264" lon="-2.32902">
        <ele>18.88</ele>
        <time>2012-08-24T10:01:27Z</time>
      </trkpt>
      <trkpt lat="47.38235" lon="-2.32929">
        <ele>18.88</ele>
        <time>2012-08-24T10:01:40Z</time>
      </trkpt>
      <trkpt lat="47.38212" lon="-2.32953">
        <ele>17.92</ele>
        <time>2012-08-24T10:01:54Z</time>
      </trkpt>
      <trkpt lat="47.38211" lon="-2.32954">
        <ele>17.92</ele>
        <time>2012-08-24T10:01:55Z</time>
      </trkpt>
      <trkpt lat="47.38209" lon="-2.32955">
        <ele>17.92</ele>
        <time>2012-08-24T10:01:56Z</time>
      </trkpt>
      <trkpt lat="47.38206" lon="-2.32957">
        <ele>17.92</ele>
        <time>2012-08-24T10:01:57Z</time>
      </trkpt>
      <trkpt lat="47.38203" lon="-2.32959">
        <ele>17.92</ele>
        <time>2012-08-24T10:01:58Z</time>
      </trkpt>
      <trkpt lat="47.382" lon="-2.32961">
        <ele>17.44</ele>
        <time>2012-08-24T10:01:59Z</time>
      </trkpt>
      <trkpt lat="47.38197" lon="-2.32963">
        <ele>16.96</ele>
        <time>2012-08-24T10:02:00Z</time>
      </trkpt>
      <trkpt lat="47.38166" lon="-2.3299">
        <ele>14.56</ele>
        <time>2012-08-24T10:02:12Z</time>
      </trkpt>
      <trkpt lat="47.38131" lon="-2.33027">
        <ele>15.52</ele>
        <time>2012-08-24T10:02:24Z</time>
      </trkpt>
      <trkpt lat="47.38113" lon="-2.33047">
        <ele>16</ele>
        <time>2012-08-24T10:02:30Z</time>
      </trkpt>
      <trkpt lat="47.38064" lon="-2.33098">
        <ele>17.44</ele>
        <time>2012-08-24T10:02:44Z</time>
      </trkpt>
      <trkpt lat="47.38054" lon="-2.33109">
        <ele>17.44</ele>
        <time>2012-08-24T10:02:47Z</time>
      </trkpt>
      <trkpt lat="47.38035" lon="-2.33128">
        <ele>17.44</ele>
        <time>2012-08-24T10:02:52Z</time>
      </trkpt>
      <trkpt lat="47.38032" lon="-2.33132">
        <ele>17.44</ele>
        <time>2012-08-24T10:02:53Z</time>
      </trkpt>
      <trkpt lat="47.38028" lon="-2.33136">
        <ele>17.92</ele>
        <time>2012-08-24T10:02:54Z</time>
      </trkpt>
      <trkpt lat="47.38012" lon="-2.33154">
        <ele>17.92</ele>
        <time>2012-08-24T10:02:59Z</time>
      </trkpt>
      <trkpt lat="47.38009" lon="-2.33158">
        <ele>17.92</ele>
        <time>2012-08-24T10:03:00Z</time>
      </trkpt>
      <trkpt lat="47.37985" lon="-2.33184">
        <ele>18.4</ele>
        <time>2012-08-24T10:03:07Z</time>
      </trkpt>
      <trkpt lat="47.37926" lon="-2.33248">
        <ele>19.36</ele>
        <time>2012-08-24T10:03:23Z</time>
      </trkpt>
      <trkpt lat="47.37922" lon="-2.33252">
        <ele>19.36</ele>
        <time>2012-08-24T10:03:24Z</time>
      </trkpt>
      <trkpt lat="47.37918" lon="-2.33256">
        <ele>19.36</ele>
        <time>2012-08-24T10:03:25Z</time>
      </trkpt>
      <trkpt lat="47.37857" lon="-2.33321">
        <ele>18.4</ele>
        <time>2012-08-24T10:03:40Z</time>
      </trkpt>
      <trkpt lat="47.37853" lon="-2.33324">
        <ele>18.4</ele>
        <time>2012-08-24T10:03:41Z</time>
      </trkpt>
      <trkpt lat="47.37839" lon="-2.33344">
        <ele>17.44</ele>
        <time>2012-08-24T10:03:46Z</time>
      </trkpt>
      <trkpt lat="47.37835" lon="-2.33349">
        <ele>17.44</ele>
        <time>2012-08-24T10:03:47Z</time>
      </trkpt>
      <trkpt lat="47.37831" lon="-2.33353">
        <ele>17.44</ele>
        <time>2012-08-24T10:03:48Z</time>
      </trkpt>
      <trkpt lat="47.37812" lon="-2.33373">
        <ele>16.48</ele>
        <time>2012-08-24T10:03:53Z</time>
      </trkpt>
      <trkpt lat="47.37808" lon="-2.33377">
        <ele>16.48</ele>
        <time>2012-08-24T10:03:54Z</time>
      </trkpt>
      <trkpt lat="47.37803" lon="-2.3338">
        <ele>16</ele>
        <time>2012-08-24T10:03:55Z</time>
      </trkpt>
      <trkpt lat="47.37795" lon="-2.33388">
        <ele>15.52</ele>
        <time>2012-08-24T10:03:57Z</time>
      </trkpt>
      <trkpt lat="47.37764" lon="-2.33424">
        <ele>15.04</ele>
        <time>2012-08-24T10:04:05Z</time>
      </trkpt>
      <trkpt lat="47.37753" lon="-2.33437">
        <ele>14.56</ele>
        <time>2012-08-24T10:04:08Z</time>
      </trkpt>
      <trkpt lat="47.37715" lon="-2.33477">
        <ele>14.56</ele>
        <time>2012-08-24T10:04:19Z</time>
      </trkpt>
      <trkpt lat="47.37712" lon="-2.33481">
        <ele>14.56</ele>
        <time>2012-08-24T10:04:20Z</time>
      </trkpt>
      <trkpt lat="47.37678" lon="-2.33515">
        <ele>14.08</ele>
        <time>2012-08-24T10:04:29Z</time>
      </trkpt>
      <trkpt lat="47.37674" lon="-2.33519">
        <ele>14.08</ele>
        <time>2012-08-24T10:04:30Z</time>
      </trkpt>
      <trkpt lat="47.37648" lon="-2.33549">
        <ele>13.12</ele>
        <time>2012-08-24T10:04:38Z</time>
      </trkpt>
      <trkpt lat="47.37645" lon="-2.33552">
        <ele>13.12</ele>
        <time>2012-08-24T10:04:39Z</time>
      </trkpt>
      <trkpt lat="47.37641" lon="-2.33556">
        <ele>13.12</ele>
        <time>2012-08-24T10:04:40Z</time>
      </trkpt>
      <trkpt lat="47.37602" lon="-2.33598">
        <ele>12.63</ele>
        <time>2012-08-24T10:04:53Z</time>
      </trkpt>
      <trkpt lat="47.37564" lon="-2.33638">
        <ele>13.12</ele>
        <time>2012-08-24T10:05:05Z</time>
      </trkpt>
      <trkpt lat="47.37524" lon="-2.33676">
        <ele>13.6</ele>
        <time>2012-08-24T10:05:19Z</time>
      </trkpt>
      <trkpt lat="47.3748" lon="-2.33715">
        <ele>13.12</ele>
        <time>2012-08-24T10:05:32Z</time>
      </trkpt>
      <trkpt lat="47.37427" lon="-2.33757">
        <ele>13.12</ele>
        <time>2012-08-24T10:05:48Z</time>
      </trkpt>
      <trkpt lat="47.37377" lon="-2.33779">
        <ele>14.08</ele>
        <time>2012-08-24T10:06:02Z</time>
      </trkpt>
      <trkpt lat="47.37332" lon="-2.33798">
        <ele>15.04</ele>
        <time>2012-08-24T10:06:15Z</time>
      </trkpt>
      <trkpt lat="47.37277" lon="-2.33815">
        <ele>13.6</ele>
        <time>2012-08-24T10:06:30Z</time>
      </trkpt>
      <trkpt lat="47.37227" lon="-2.33821">
        <ele>12.63</ele>
        <time>2012-08-24T10:06:46Z</time>
      </trkpt>
      <trkpt lat="47.37199" lon="-2.33822">
        <ele>13.12</ele>
        <time>2012-08-24T10:06:58Z</time>
      </trkpt>
      <trkpt lat="47.37156" lon="-2.33829">
        <ele>10.71</ele>
        <time>2012-08-24T10:07:11Z</time>
      </trkpt>
      <trkpt lat="47.37109" lon="-2.33834">
        <ele>10.23</ele>
        <time>2012-08-24T10:07:23Z</time>
      </trkpt>
      <trkpt lat="47.37056" lon="-2.33842">
        <ele>10.71</ele>
        <time>2012-08-24T10:07:36Z</time>
      </trkpt>
      <trkpt lat="47.37013" lon="-2.33856">
        <ele>12.63</ele>
        <time>2012-08-24T10:07:48Z</time>
      </trkpt>
      <trkpt lat="47.36973" lon="-2.33864">
        <ele>13.12</ele>
        <time>2012-08-24T10:07:59Z</time>
      </trkpt>
      <trkpt lat="47.36969" lon="-2.33864">
        <ele>13.12</ele>
        <time>2012-08-24T10:08:00Z</time>
      </trkpt>
      <trkpt lat="47.36965" lon="-2.33864">
        <ele>13.12</ele>
        <time>2012-08-24T10:08:01Z</time>
      </trkpt>
      <trkpt lat="47.36916" lon="-2.33857">
        <ele>13.12</ele>
        <time>2012-08-24T10:08:14Z</time>
      </trkpt>
      <trkpt lat="47.36889" lon="-2.33853">
        <ele>12.63</ele>
        <time>2012-08-24T10:08:21Z</time>
      </trkpt>
      <trkpt lat="47.36821" lon="-2.33836">
        <ele>11.19</ele>
        <time>2012-08-24T10:08:37Z</time>
      </trkpt>
      <trkpt lat="47.36765" lon="-2.33826">
        <ele>11.19</ele>
        <time>2012-08-24T10:08:51Z</time>
      </trkpt>
      <trkpt lat="47.36711" lon="-2.33819">
        <ele>12.15</ele>
        <time>2012-08-24T10:09:05Z</time>
      </trkpt>
      <trkpt lat="47.36668" lon="-2.33815">
        <ele>13.6</ele>
        <time>2012-08-24T10:09:17Z</time>
      </trkpt>
      <trkpt lat="47.36616" lon="-2.33829">
        <ele>12.15</ele>
        <time>2012-08-24T10:09:31Z</time>
      </trkpt>
      <trkpt lat="47.36605" lon="-2.33832">
        <ele>13.12</ele>
        <time>2012-08-24T10:09:34Z</time>
      </trkpt>
      <trkpt lat="47.36555" lon="-2.33846">
        <ele>15.04</ele>
        <time>2012-08-24T10:09:48Z</time>
      </trkpt>
      <trkpt lat="47.36514" lon="-2.33861">
        <ele>15.52</ele>
        <time>2012-08-24T10:10:00Z</time>
      </trkpt>
      <trkpt lat="47.36464" lon="-2.33883">
        <ele>16.48</ele>
        <time>2012-08-24T10:10:15Z</time>
      </trkpt>
      <trkpt lat="47.36426" lon="-2.33901">
        <ele>17.44</ele>
        <time>2012-08-24T10:10:28Z</time>
      </trkpt>
      <trkpt lat="47.36385" lon="-2.33925">
        <ele>16.48</ele>
        <time>2012-08-24T10:10:42Z</time>
      </trkpt>
      <trkpt lat="47.36376" lon="-2.33931">
        <ele>16.48</ele>
        <time>2012-08-24T10:10:52Z</time>
      </trkpt>
      <trkpt lat="47.36376" lon="-2.33932">
        <ele>15.52</ele>
        <time>2012-08-24T10:11:10Z</time>
      </trkpt>
      <trkpt lat="47.36374" lon="-2.33931">
        <ele>15.52</ele>
        <time>2012-08-24T10:11:11Z</time>
      </trkpt>
      <trkpt lat="47.36373" lon="-2.33929">
        <ele>15.52</ele>
        <time>2012-08-24T10:11:12Z</time>
      </trkpt>
      <trkpt lat="47.36373" lon="-2.33926">
        <ele>15.52</ele>
        <time>2012-08-24T10:11:13Z</time>
      </trkpt>
      <trkpt lat="47.36373" lon="-2.33921">
        <ele>15.52</ele>
        <time>2012-08-24T10:11:14Z</time>
      </trkpt>
      <trkpt lat="47.36372" lon="-2.33909">
        <ele>16.48</ele>
        <time>2012-08-24T10:11:16Z</time>
      </trkpt>
      <trkpt lat="47.36371" lon="-2.3389">
        <ele>16.48</ele>
        <time>2012-08-24T10:11:19Z</time>
      </trkpt>
      <trkpt lat="47.36371" lon="-2.33883">
        <ele>16.48</ele>
        <time>2012-08-24T10:11:20Z</time>
      </trkpt>
      <trkpt lat="47.36368" lon="-2.33783">
        <ele>18.4</ele>
        <time>2012-08-24T10:11:35Z</time>
      </trkpt>
      <trkpt lat="47.36368" lon="-2.33776">
        <ele>18.4</ele>
        <time>2012-08-24T10:11:36Z</time>
      </trkpt>
      <trkpt lat="47.36365" lon="-2.33726">
        <ele>17.44</ele>
        <time>2012-08-24T10:11:43Z</time>
      </trkpt>
      <trkpt lat="47.36363" lon="-2.3362">
        <ele>15.04</ele>
        <time>2012-08-24T10:11:57Z</time>
      </trkpt>
      <trkpt lat="47.36365" lon="-2.33588">
        <ele>14.56</ele>
        <time>2012-08-24T10:12:01Z</time>
      </trkpt>
      <trkpt lat="47.36368" lon="-2.33539">
        <ele>14.08</ele>
        <time>2012-08-24T10:12:07Z</time>
      </trkpt>
      <trkpt lat="47.36369" lon="-2.33531">
        <ele>13.6</ele>
        <time>2012-08-24T10:12:08Z</time>
      </trkpt>
      <trkpt lat="47.36376" lon="-2.33407">
        <ele>11.67</ele>
        <time>2012-08-24T10:12:24Z</time>
      </trkpt>
      <trkpt lat="47.36375" lon="-2.33374">
        <ele>11.19</ele>
        <time>2012-08-24T10:12:35Z</time>
      </trkpt>
      <trkpt lat="47.36375" lon="-2.33368">
        <ele>11.19</ele>
        <time>2012-08-24T10:12:40Z</time>
      </trkpt>
      <trkpt lat="47.36379" lon="-2.33354">
        <ele>11.19</ele>
        <time>2012-08-24T10:12:43Z</time>
      </trkpt>
      <trkpt lat="47.36379" lon="-2.33348">
        <ele>11.19</ele>
        <time>2012-08-24T10:12:44Z</time>
      </trkpt>
      <trkpt lat="47.36379" lon="-2.33342">
        <ele>11.19</ele>
        <time>2012-08-24T10:12:45Z</time>
      </trkpt>
      <trkpt lat="47.36379" lon="-2.33249">
        <ele>11.19</ele>
        <time>2012-08-24T10:13:00Z</time>
      </trkpt>
      <trkpt lat="47.3638" lon="-2.33189">
        <ele>12.15</ele>
        <time>2012-08-24T10:13:11Z</time>
      </trkpt>
      <trkpt lat="47.3638" lon="-2.3313">
        <ele>13.12</ele>
        <time>2012-08-24T10:13:22Z</time>
      </trkpt>
      <trkpt lat="47.3638" lon="-2.33124">
        <ele>13.12</ele>
        <time>2012-08-24T10:13:23Z</time>
      </trkpt>
      <trkpt lat="47.3638" lon="-2.33117">
        <ele>13.12</ele>
        <time>2012-08-24T10:13:24Z</time>
      </trkpt>
      <trkpt lat="47.3638" lon="-2.33111">
        <ele>13.12</ele>
        <time>2012-08-24T10:13:25Z</time>
      </trkpt>
      <trkpt lat="47.3638" lon="-2.33104">
        <ele>13.12</ele>
        <time>2012-08-24T10:13:26Z</time>
      </trkpt>
      <trkpt lat="47.36381" lon="-2.33098">
        <ele>13.12</ele>
        <time>2012-08-24T10:13:27Z</time>
      </trkpt>
      <trkpt lat="47.36383" lon="-2.33052">
        <ele>12.63</ele>
        <time>2012-08-24T10:13:35Z</time>
      </trkpt>
      <trkpt lat="47.36378" lon="-2.32965">
        <ele>13.12</ele>
        <time>2012-08-24T10:13:50Z</time>
      </trkpt>
      <trkpt lat="47.36362" lon="-2.32852">
        <ele>12.15</ele>
        <time>2012-08-24T10:14:08Z</time>
      </trkpt>
      <trkpt lat="47.36358" lon="-2.32819">
        <ele>12.15</ele>
        <time>2012-08-24T10:14:13Z</time>
      </trkpt>
      <trkpt lat="47.36351" lon="-2.32771">
        <ele>11.67</ele>
        <time>2012-08-24T10:14:20Z</time>
      </trkpt>
      <trkpt lat="47.36348" lon="-2.32728">
        <ele>11.19</ele>
        <time>2012-08-24T10:14:26Z</time>
      </trkpt>
      <trkpt lat="47.36348" lon="-2.32721">
        <ele>11.67</ele>
        <time>2012-08-24T10:14:27Z</time>
      </trkpt>
      <trkpt lat="47.36348" lon="-2.32707">
        <ele>11.67</ele>
        <time>2012-08-24T10:14:29Z</time>
      </trkpt>
      <trkpt lat="47.36347" lon="-2.32701">
        <ele>11.67</ele>
        <time>2012-08-24T10:14:30Z</time>
      </trkpt>
      <trkpt lat="47.36345" lon="-2.32695">
        <ele>11.67</ele>
        <time>2012-08-24T10:14:31Z</time>
      </trkpt>
      <trkpt lat="47.3634" lon="-2.32654">
        <ele>10.23</ele>
        <time>2012-08-24T10:14:37Z</time>
      </trkpt>
      <trkpt lat="47.36326" lon="-2.32565">
        <ele>10.23</ele>
        <time>2012-08-24T10:14:50Z</time>
      </trkpt>
      <trkpt lat="47.36323" lon="-2.32545">
        <ele>10.23</ele>
        <time>2012-08-24T10:14:53Z</time>
      </trkpt>
      <trkpt lat="47.3631" lon="-2.32464">
        <ele>5.42</ele>
        <time>2012-08-24T10:15:05Z</time>
      </trkpt>
      <trkpt lat="47.36298" lon="-2.32378">
        <ele>3.02</ele>
        <time>2012-08-24T10:15:17Z</time>
      </trkpt>
      <trkpt lat="47.36294" lon="-2.32348">
        <ele>2.54</ele>
        <time>2012-08-24T10:15:21Z</time>
      </trkpt>
      <trkpt lat="47.36293" lon="-2.32341">
        <ele>2.54</ele>
        <time>2012-08-24T10:15:22Z</time>
      </trkpt>
      <trkpt lat="47.36283" lon="-2.32265">
        <ele>3.5</ele>
        <time>2012-08-24T10:15:35Z</time>
      </trkpt>
      <trkpt lat="47.36271" lon="-2.32173">
        <ele>4.94</ele>
        <time>2012-08-24T10:15:48Z</time>
      </trkpt>
      <trkpt lat="47.36262" lon="-2.3212">
        <ele>6.39</ele>
        <time>2012-08-24T10:15:56Z</time>
      </trkpt>
      <trkpt lat="47.36249" lon="-2.32028">
        <ele>7.35</ele>
        <time>2012-08-24T10:16:10Z</time>
      </trkpt>
      <trkpt lat="47.36248" lon="-2.32023">
        <ele>6.87</ele>
        <time>2012-08-24T10:16:11Z</time>
      </trkpt>
      <trkpt lat="47.36247" lon="-2.32017">
        <ele>6.87</ele>
        <time>2012-08-24T10:16:12Z</time>
      </trkpt>
      <trkpt lat="47.36247" lon="-2.32012">
        <ele>6.87</ele>
        <time>2012-08-24T10:16:13Z</time>
      </trkpt>
      <trkpt lat="47.36246" lon="-2.32007">
        <ele>6.87</ele>
        <time>2012-08-24T10:16:14Z</time>
      </trkpt>
      <trkpt lat="47.36238" lon="-2.31938">
        <ele>3.98</ele>
        <time>2012-08-24T10:16:25Z</time>
      </trkpt>
      <trkpt lat="47.36226" lon="-2.31855">
        <ele>3.02</ele>
        <time>2012-08-24T10:16:36Z</time>
      </trkpt>
      <trkpt lat="47.36211" lon="-2.31748">
        <ele>3.02</ele>
        <time>2012-08-24T10:16:51Z</time>
      </trkpt>
      <trkpt lat="47.36208" lon="-2.31722">
        <ele>2.54</ele>
        <time>2012-08-24T10:16:55Z</time>
      </trkpt>
      <trkpt lat="47.36207" lon="-2.31708">
        <ele>2.54</ele>
        <time>2012-08-24T10:16:57Z</time>
      </trkpt>
      <trkpt lat="47.36207" lon="-2.31702">
        <ele>2.54</ele>
        <time>2012-08-24T10:16:58Z</time>
      </trkpt>
      <trkpt lat="47.36205" lon="-2.31696">
        <ele>2.54</ele>
        <time>2012-08-24T10:16:59Z</time>
      </trkpt>
      <trkpt lat="47.36204" lon="-2.3169">
        <ele>3.02</ele>
        <time>2012-08-24T10:17:00Z</time>
      </trkpt>
      <trkpt lat="47.36203" lon="-2.31685">
        <ele>3.02</ele>
        <time>2012-08-24T10:17:01Z</time>
      </trkpt>
      <trkpt lat="47.36202" lon="-2.31679">
        <ele>3.02</ele>
        <time>2012-08-24T10:17:02Z</time>
      </trkpt>
      <trkpt lat="47.36201" lon="-2.31674">
        <ele>3.02</ele>
        <time>2012-08-24T10:17:03Z</time>
      </trkpt>
      <trkpt lat="47.362" lon="-2.31668">
        <ele>3.02</ele>
        <time>2012-08-24T10:17:04Z</time>
      </trkpt>
      <trkpt lat="47.36197" lon="-2.31643">
        <ele>3.5</ele>
        <time>2012-08-24T10:17:08Z</time>
      </trkpt>
      <trkpt lat="47.36191" lon="-2.31594">
        <ele>4.46</ele>
        <time>2012-08-24T10:17:16Z</time>
      </trkpt>
      <trkpt lat="47.36179" lon="-2.31507">
        <ele>3.98</ele>
        <time>2012-08-24T10:17:31Z</time>
      </trkpt>
      <trkpt lat="47.36175" lon="-2.3148">
        <ele>3.5</ele>
        <time>2012-08-24T10:17:36Z</time>
      </trkpt>
      <trkpt lat="47.36173" lon="-2.31474">
        <ele>3.02</ele>
        <time>2012-08-24T10:17:37Z</time>
      </trkpt>
      <trkpt lat="47.36172" lon="-2.31469">
        <ele>2.54</ele>
        <time>2012-08-24T10:17:38Z</time>
      </trkpt>
      <trkpt lat="47.36142" lon="-2.31411">
        <ele>3.02</ele>
        <time>2012-08-24T10:17:52Z</time>
      </trkpt>
      <trkpt lat="47.36112" lon="-2.31367">
        <ele>2.54</ele>
        <time>2012-08-24T10:18:05Z</time>
      </trkpt>
      <trkpt lat="47.36073" lon="-2.31349">
        <ele>2.06</ele>
        <time>2012-08-24T10:18:18Z</time>
      </trkpt>
      <trkpt lat="47.36067" lon="-2.31349">
        <ele>2.06</ele>
        <time>2012-08-24T10:18:20Z</time>
      </trkpt>
      <trkpt lat="47.36065" lon="-2.31351">
        <ele>2.06</ele>
        <time>2012-08-24T10:18:21Z</time>
      </trkpt>
      <trkpt lat="47.36063" lon="-2.31354">
        <ele>2.06</ele>
        <time>2012-08-24T10:18:22Z</time>
      </trkpt>
      <trkpt lat="47.36061" lon="-2.31357">
        <ele>1.58</ele>
        <time>2012-08-24T10:18:23Z</time>
      </trkpt>
      <trkpt lat="47.36059" lon="-2.31361">
        <ele>1.58</ele>
        <time>2012-08-24T10:18:24Z</time>
      </trkpt>
      <trkpt lat="47.36058" lon="-2.31366">
        <ele>1.58</ele>
        <time>2012-08-24T10:18:25Z</time>
      </trkpt>
      <trkpt lat="47.36058" lon="-2.31371">
        <ele>1.58</ele>
        <time>2012-08-24T10:18:26Z</time>
      </trkpt>
      <trkpt lat="47.36058" lon="-2.31376">
        <ele>1.1</ele>
        <time>2012-08-24T10:18:27Z</time>
      </trkpt>
      <trkpt lat="47.36066" lon="-2.31432">
        <ele>1.1</ele>
        <time>2012-08-24T10:18:39Z</time>
      </trkpt>
      <trkpt lat="47.36064" lon="-2.31497">
        <ele>3.02</ele>
        <time>2012-08-24T10:18:53Z</time>
      </trkpt>
      <trkpt lat="47.36031" lon="-2.31561">
        <ele>3.5</ele>
        <time>2012-08-24T10:19:08Z</time>
      </trkpt>
      <trkpt lat="47.36018" lon="-2.31585">
        <ele>2.54</ele>
        <time>2012-08-24T10:19:13Z</time>
      </trkpt>
      <trkpt lat="47.35977" lon="-2.31659">
        <ele>1.1</ele>
        <time>2012-08-24T10:19:26Z</time>
      </trkpt>
      <trkpt lat="47.3595" lon="-2.31708">
        <ele>-0.34</ele>
        <time>2012-08-24T10:19:32Z</time>
      </trkpt>
      <trkpt lat="47.35941" lon="-2.31723">
        <ele>-0.82</ele>
        <time>2012-08-24T10:19:34Z</time>
      </trkpt>
      <trkpt lat="47.35937" lon="-2.31731">
        <ele>-0.82</ele>
        <time>2012-08-24T10:19:35Z</time>
      </trkpt>
      <trkpt lat="47.35886" lon="-2.31817">
        <ele>-2.75</ele>
        <time>2012-08-24T10:19:47Z</time>
      </trkpt>
      <trkpt lat="47.3584" lon="-2.31899">
        <ele>-1.79</ele>
        <time>2012-08-24T10:20:01Z</time>
      </trkpt>
      <trkpt lat="47.35805" lon="-2.31961">
        <ele>-1.3</ele>
        <time>2012-08-24T10:20:13Z</time>
      </trkpt>
      <trkpt lat="47.35768" lon="-2.32026">
        <ele>-0.82</ele>
        <time>2012-08-24T10:20:27Z</time>
      </trkpt>
      <trkpt lat="47.35749" lon="-2.32058">
        <ele>-1.3</ele>
        <time>2012-08-24T10:20:35Z</time>
      </trkpt>
      <trkpt lat="47.35736" lon="-2.32081">
        <ele>-1.79</ele>
        <time>2012-08-24T10:20:40Z</time>
      </trkpt>
      <trkpt lat="47.35733" lon="-2.32085">
        <ele>-1.79</ele>
        <time>2012-08-24T10:20:41Z</time>
      </trkpt>
      <trkpt lat="47.35731" lon="-2.32089">
        <ele>-2.27</ele>
        <time>2012-08-24T10:20:42Z</time>
      </trkpt>
      <trkpt lat="47.3573" lon="-2.32094">
        <ele>-2.27</ele>
        <time>2012-08-24T10:20:43Z</time>
      </trkpt>
      <trkpt lat="47.35728" lon="-2.32098">
        <ele>-2.27</ele>
        <time>2012-08-24T10:20:44Z</time>
      </trkpt>
      <trkpt lat="47.35727" lon="-2.32101">
        <ele>-2.27</ele>
        <time>2012-08-24T10:20:45Z</time>
      </trkpt>
      <trkpt lat="47.35726" lon="-2.32105">
        <ele>-2.27</ele>
        <time>2012-08-24T10:20:46Z</time>
      </trkpt>
      <trkpt lat="47.35724" lon="-2.32108">
        <ele>-2.27</ele>
        <time>2012-08-24T10:20:47Z</time>
      </trkpt>
      <trkpt lat="47.35722" lon="-2.32112">
        <ele>-2.27</ele>
        <time>2012-08-24T10:20:48Z</time>
      </trkpt>
      <trkpt lat="47.3572" lon="-2.32117">
        <ele>-2.27</ele>
        <time>2012-08-24T10:20:49Z</time>
      </trkpt>
      <trkpt lat="47.35718" lon="-2.32122">
        <ele>-2.27</ele>
        <time>2012-08-24T10:20:50Z</time>
      </trkpt>
      <trkpt lat="47.35692" lon="-2.32168">
        <ele>-3.23</ele>
        <time>2012-08-24T10:21:00Z</time>
      </trkpt>
      <trkpt lat="47.35657" lon="-2.32226">
        <ele>-3.23</ele>
        <time>2012-08-24T10:21:12Z</time>
      </trkpt>
      <trkpt lat="47.35619" lon="-2.32288">
        <ele>-1.79</ele>
        <time>2012-08-24T10:21:26Z</time>
      </trkpt>
      <trkpt lat="47.35614" lon="-2.32297">
        <ele>-2.27</ele>
        <time>2012-08-24T10:21:28Z</time>
      </trkpt>
      <trkpt lat="47.35612" lon="-2.32302">
        <ele>-2.27</ele>
        <time>2012-08-24T10:21:29Z</time>
      </trkpt>
      <trkpt lat="47.35583" lon="-2.32356">
        <ele>-3.23</ele>
        <time>2012-08-24T10:21:42Z</time>
      </trkpt>
      <trkpt lat="47.35565" lon="-2.32399">
        <ele>-5.63</ele>
        <time>2012-08-24T10:21:53Z</time>
      </trkpt>
      <trkpt lat="47.35543" lon="-2.32449">
        <ele>-8.51</ele>
        <time>2012-08-24T10:22:04Z</time>
      </trkpt>
      <trkpt lat="47.35516" lon="-2.32502">
        <ele>-7.55</ele>
        <time>2012-08-24T10:22:16Z</time>
      </trkpt>
      <trkpt lat="47.35495" lon="-2.32551">
        <ele>-4.67</ele>
        <time>2012-08-24T10:22:28Z</time>
      </trkpt>
      <trkpt lat="47.35481" lon="-2.32603">
        <ele>-3.23</ele>
        <time>2012-08-24T10:22:41Z</time>
      </trkpt>
      <trkpt lat="47.3547" lon="-2.32647">
        <ele>-0.34</ele>
        <time>2012-08-24T10:22:52Z</time>
      </trkpt>
      <trkpt lat="47.35462" lon="-2.32678">
        <ele>2.06</ele>
        <time>2012-08-24T10:22:59Z</time>
      </trkpt>
      <trkpt lat="47.35461" lon="-2.32684">
        <ele>2.06</ele>
        <time>2012-08-24T10:23:00Z</time>
      </trkpt>
      <trkpt lat="47.35446" lon="-2.32722">
        <ele>2.06</ele>
        <time>2012-08-24T10:23:08Z</time>
      </trkpt>
      <trkpt lat="47.35424" lon="-2.32762">
        <ele>4.46</ele>
        <time>2012-08-24T10:23:17Z</time>
      </trkpt>
      <trkpt lat="47.35387" lon="-2.32808">
        <ele>6.39</ele>
        <time>2012-08-24T10:23:31Z</time>
      </trkpt>
      <trkpt lat="47.35356" lon="-2.32839">
        <ele>6.39</ele>
        <time>2012-08-24T10:23:43Z</time>
      </trkpt>
      <trkpt lat="47.35331" lon="-2.32883">
        <ele>4.94</ele>
        <time>2012-08-24T10:23:55Z</time>
      </trkpt>
      <trkpt lat="47.35321" lon="-2.32943">
        <ele>3.5</ele>
        <time>2012-08-24T10:24:05Z</time>
      </trkpt>
      <trkpt lat="47.35321" lon="-2.32949">
        <ele>3.02</ele>
        <time>2012-08-24T10:24:06Z</time>
      </trkpt>
      <trkpt lat="47.35321" lon="-2.32956">
        <ele>3.02</ele>
        <time>2012-08-24T10:24:07Z</time>
      </trkpt>
      <trkpt lat="47.35321" lon="-2.32963">
        <ele>3.02</ele>
        <time>2012-08-24T10:24:08Z</time>
      </trkpt>
      <trkpt lat="47.3532" lon="-2.3297">
        <ele>3.02</ele>
        <time>2012-08-24T10:24:09Z</time>
      </trkpt>
      <trkpt lat="47.3532" lon="-2.32977">
        <ele>3.02</ele>
        <time>2012-08-24T10:24:10Z</time>
      </trkpt>
      <trkpt lat="47.3532" lon="-2.32984">
        <ele>2.54</ele>
        <time>2012-08-24T10:24:11Z</time>
      </trkpt>
      <trkpt lat="47.35314" lon="-2.33026">
        <ele>1.1</ele>
        <time>2012-08-24T10:24:17Z</time>
      </trkpt>
      <trkpt lat="47.35298" lon="-2.33073">
        <ele>-0.34</ele>
        <time>2012-08-24T10:24:25Z</time>
      </trkpt>
      <trkpt lat="47.35295" lon="-2.33078">
        <ele>-0.34</ele>
        <time>2012-08-24T10:24:26Z</time>
      </trkpt>
      <trkpt lat="47.35289" lon="-2.33088">
        <ele>-0.82</ele>
        <time>2012-08-24T10:24:28Z</time>
      </trkpt>
      <trkpt lat="47.35249" lon="-2.33136">
        <ele>-4.67</ele>
        <time>2012-08-24T10:24:41Z</time>
      </trkpt>
      <trkpt lat="47.35235" lon="-2.33155">
        <ele>-3.71</ele>
        <time>2012-08-24T10:24:45Z</time>
      </trkpt>
      <trkpt lat="47.35232" lon="-2.33159">
        <ele>-3.71</ele>
        <time>2012-08-24T10:24:46Z</time>
      </trkpt>
      <trkpt lat="47.35199" lon="-2.33194">
        <ele>-0.34</ele>
        <time>2012-08-24T10:24:57Z</time>
      </trkpt>
      <trkpt lat="47.35173" lon="-2.33224">
        <ele>2.06</ele>
        <time>2012-08-24T10:25:07Z</time>
      </trkpt>
      <trkpt lat="47.3515" lon="-2.33257">
        <ele>2.54</ele>
        <time>2012-08-24T10:25:18Z</time>
      </trkpt>
      <trkpt lat="47.35122" lon="-2.33304">
        <ele>5.91</ele>
        <time>2012-08-24T10:25:31Z</time>
      </trkpt>
      <trkpt lat="47.35096" lon="-2.33354">
        <ele>5.91</ele>
        <time>2012-08-24T10:25:42Z</time>
      </trkpt>
      <trkpt lat="47.3507" lon="-2.334">
        <ele>5.42</ele>
        <time>2012-08-24T10:25:53Z</time>
      </trkpt>
      <trkpt lat="47.35044" lon="-2.3345">
        <ele>7.35</ele>
        <time>2012-08-24T10:26:04Z</time>
      </trkpt>
      <trkpt lat="47.35016" lon="-2.33499">
        <ele>7.83</ele>
        <time>2012-08-24T10:26:15Z</time>
      </trkpt>
      <trkpt lat="47.34982" lon="-2.33583">
        <ele>6.39</ele>
        <time>2012-08-24T10:26:31Z</time>
      </trkpt>
      <trkpt lat="47.34972" lon="-2.33651">
        <ele>3.98</ele>
        <time>2012-08-24T10:26:44Z</time>
      </trkpt>
      <trkpt lat="47.34961" lon="-2.33723">
        <ele>3.02</ele>
        <time>2012-08-24T10:26:57Z</time>
      </trkpt>
      <trkpt lat="47.34958" lon="-2.33746">
        <ele>3.98</ele>
        <time>2012-08-24T10:27:09Z</time>
      </trkpt>
      <trkpt lat="47.34958" lon="-2.33747">
        <ele>3.98</ele>
        <time>2012-08-24T10:27:23Z</time>
      </trkpt>
      <trkpt lat="47.34951" lon="-2.33766">
        <ele>4.94</ele>
        <time>2012-08-24T10:27:41Z</time>
      </trkpt>
      <trkpt lat="47.34923" lon="-2.33813">
        <ele>5.91</ele>
        <time>2012-08-24T10:27:54Z</time>
      </trkpt>
      <trkpt lat="47.34897" lon="-2.33852">
        <ele>5.91</ele>
        <time>2012-08-24T10:28:06Z</time>
      </trkpt>
      <trkpt lat="47.34872" lon="-2.33888">
        <ele>6.87</ele>
        <time>2012-08-24T10:28:18Z</time>
      </trkpt>
      <trkpt lat="47.34843" lon="-2.33928">
        <ele>7.35</ele>
        <time>2012-08-24T10:28:31Z</time>
      </trkpt>
      <trkpt lat="47.34811" lon="-2.33972">
        <ele>7.35</ele>
        <time>2012-08-24T10:28:45Z</time>
      </trkpt>
      <trkpt lat="47.34794" lon="-2.34">
        <ele>3.98</ele>
        <time>2012-08-24T10:28:54Z</time>
      </trkpt>
      <trkpt lat="47.34767" lon="-2.34037">
        <ele>3.5</ele>
        <time>2012-08-24T10:29:06Z</time>
      </trkpt>
      <trkpt lat="47.34745" lon="-2.34067">
        <ele>4.94</ele>
        <time>2012-08-24T10:29:16Z</time>
      </trkpt>
      <trkpt lat="47.34704" lon="-2.34119">
        <ele>7.83</ele>
        <time>2012-08-24T10:29:31Z</time>
      </trkpt>
      <trkpt lat="47.34669" lon="-2.34198">
        <ele>8.79</ele>
        <time>2012-08-24T10:29:45Z</time>
      </trkpt>
      <trkpt lat="47.34638" lon="-2.34286">
        <ele>10.71</ele>
        <time>2012-08-24T10:30:01Z</time>
      </trkpt>
      <trkpt lat="47.34621" lon="-2.34345">
        <ele>14.08</ele>
        <time>2012-08-24T10:30:16Z</time>
      </trkpt>
      <trkpt lat="47.34603" lon="-2.34407">
        <ele>16.48</ele>
        <time>2012-08-24T10:30:31Z</time>
      </trkpt>
      <trkpt lat="47.34601" lon="-2.34482">
        <ele>16</ele>
        <time>2012-08-24T10:30:45Z</time>
      </trkpt>
      <trkpt lat="47.34605" lon="-2.34505">
        <ele>16.48</ele>
        <time>2012-08-24T10:30:49Z</time>
      </trkpt>
      <trkpt lat="47.34606" lon="-2.34512">
        <ele>16.48</ele>
        <time>2012-08-24T10:30:50Z</time>
      </trkpt>
      <trkpt lat="47.34608" lon="-2.34518">
        <ele>16.48</ele>
        <time>2012-08-24T10:30:51Z</time>
      </trkpt>
      <trkpt lat="47.34609" lon="-2.34525">
        <ele>16.48</ele>
        <time>2012-08-24T10:30:52Z</time>
      </trkpt>
      <trkpt lat="47.3461" lon="-2.34532">
        <ele>16.48</ele>
        <time>2012-08-24T10:30:53Z</time>
      </trkpt>
      <trkpt lat="47.3463" lon="-2.34651">
        <ele>12.63</ele>
        <time>2012-08-24T10:31:08Z</time>
      </trkpt>
      <trkpt lat="47.34632" lon="-2.34661">
        <ele>12.15</ele>
        <time>2012-08-24T10:31:09Z</time>
      </trkpt>
      <trkpt lat="47.34634" lon="-2.34672">
        <ele>11.67</ele>
        <time>2012-08-24T10:31:10Z</time>
      </trkpt>
      <trkpt lat="47.34636" lon="-2.34761">
        <ele>10.23</ele>
        <time>2012-08-24T10:31:19Z</time>
      </trkpt>
      <trkpt lat="47.34634" lon="-2.34769">
        <ele>10.23</ele>
        <time>2012-08-24T10:31:20Z</time>
      </trkpt>
      <trkpt lat="47.34632" lon="-2.34777">
        <ele>10.23</ele>
        <time>2012-08-24T10:31:21Z</time>
      </trkpt>
      <trkpt lat="47.34629" lon="-2.34784">
        <ele>10.71</ele>
        <time>2012-08-24T10:31:22Z</time>
      </trkpt>
      <trkpt lat="47.34626" lon="-2.34791">
        <ele>10.71</ele>
        <time>2012-08-24T10:31:23Z</time>
      </trkpt>
      <trkpt lat="47.34588" lon="-2.34877">
        <ele>10.23</ele>
        <time>2012-08-24T10:31:35Z</time>
      </trkpt>
      <trkpt lat="47.34586" lon="-2.34884">
        <ele>10.23</ele>
        <time>2012-08-24T10:31:36Z</time>
      </trkpt>
      <trkpt lat="47.34581" lon="-2.34897">
        <ele>9.75</ele>
        <time>2012-08-24T10:31:38Z</time>
      </trkpt>
      <trkpt lat="47.34571" lon="-2.3492">
        <ele>9.75</ele>
        <time>2012-08-24T10:31:42Z</time>
      </trkpt>
      <trkpt lat="47.34569" lon="-2.34926">
        <ele>9.75</ele>
        <time>2012-08-24T10:31:43Z</time>
      </trkpt>
      <trkpt lat="47.34539" lon="-2.34994">
        <ele>10.23</ele>
        <time>2012-08-24T10:31:57Z</time>
      </trkpt>
      <trkpt lat="47.34521" lon="-2.35051">
        <ele>12.15</ele>
        <time>2012-08-24T10:32:10Z</time>
      </trkpt>
      <trkpt lat="47.34505" lon="-2.35106">
        <ele>13.6</ele>
        <time>2012-08-24T10:32:23Z</time>
      </trkpt>
      <trkpt lat="47.34488" lon="-2.35173">
        <ele>15.52</ele>
        <time>2012-08-24T10:32:38Z</time>
      </trkpt>
      <trkpt lat="47.34475" lon="-2.35221">
        <ele>16</ele>
        <time>2012-08-24T10:32:51Z</time>
      </trkpt>
      <trkpt lat="47.34461" lon="-2.35271">
        <ele>16.48</ele>
        <time>2012-08-24T10:33:05Z</time>
      </trkpt>
      <trkpt lat="47.34462" lon="-2.35274">
        <ele>16</ele>
        <time>2012-08-24T10:33:17Z</time>
      </trkpt>
      <trkpt lat="47.34458" lon="-2.35284">
        <ele>16</ele>
        <time>2012-08-24T10:33:30Z</time>
      </trkpt>
      <trkpt lat="47.34456" lon="-2.3529">
        <ele>16</ele>
        <time>2012-08-24T10:33:31Z</time>
      </trkpt>
      <trkpt lat="47.34454" lon="-2.35297">
        <ele>15.52</ele>
        <time>2012-08-24T10:33:32Z</time>
      </trkpt>
      <trkpt lat="47.34452" lon="-2.35305">
        <ele>15.04</ele>
        <time>2012-08-24T10:33:33Z</time>
      </trkpt>
      <trkpt lat="47.3442" lon="-2.35426">
        <ele>11.67</ele>
        <time>2012-08-24T10:33:45Z</time>
      </trkpt>
      <trkpt lat="47.34411" lon="-2.35456">
        <ele>11.19</ele>
        <time>2012-08-24T10:33:48Z</time>
      </trkpt>
      <trkpt lat="47.34407" lon="-2.35465">
        <ele>11.19</ele>
        <time>2012-08-24T10:33:49Z</time>
      </trkpt>
      <trkpt lat="47.34403" lon="-2.35473">
        <ele>11.19</ele>
        <time>2012-08-24T10:33:50Z</time>
      </trkpt>
      <trkpt lat="47.34398" lon="-2.35481">
        <ele>11.19</ele>
        <time>2012-08-24T10:33:51Z</time>
      </trkpt>
      <trkpt lat="47.34393" lon="-2.35488">
        <ele>11.19</ele>
        <time>2012-08-24T10:33:52Z</time>
      </trkpt>
      <trkpt lat="47.34326" lon="-2.35584">
        <ele>9.27</ele>
        <time>2012-08-24T10:34:06Z</time>
      </trkpt>
      <trkpt lat="47.34267" lon="-2.3567">
        <ele>8.79</ele>
        <time>2012-08-24T10:34:20Z</time>
      </trkpt>
      <trkpt lat="47.34243" lon="-2.35692">
        <ele>9.75</ele>
        <time>2012-08-24T10:34:29Z</time>
      </trkpt>
      <trkpt lat="47.34207" lon="-2.35701">
        <ele>11.67</ele>
        <time>2012-08-24T10:34:42Z</time>
      </trkpt>
      <trkpt lat="47.34185" lon="-2.35676">
        <ele>13.6</ele>
        <time>2012-08-24T10:34:54Z</time>
      </trkpt>
      <trkpt lat="47.34158" lon="-2.35632">
        <ele>16.96</ele>
        <time>2012-08-24T10:35:10Z</time>
      </trkpt>
      <trkpt lat="47.34138" lon="-2.35595">
        <ele>18.4</ele>
        <time>2012-08-24T10:35:23Z</time>
      </trkpt>
      <trkpt lat="47.34121" lon="-2.3554">
        <ele>17.92</ele>
        <time>2012-08-24T10:35:36Z</time>
      </trkpt>
      <trkpt lat="47.34097" lon="-2.35472">
        <ele>17.92</ele>
        <time>2012-08-24T10:35:50Z</time>
      </trkpt>
      <trkpt lat="47.34072" lon="-2.35403">
        <ele>17.92</ele>
        <time>2012-08-24T10:36:05Z</time>
      </trkpt>
      <trkpt lat="47.3404" lon="-2.35348">
        <ele>19.84</ele>
        <time>2012-08-24T10:36:19Z</time>
      </trkpt>
      <trkpt lat="47.34005" lon="-2.35315">
        <ele>20.81</ele>
        <time>2012-08-24T10:36:31Z</time>
      </trkpt>
      <trkpt lat="47.33965" lon="-2.35273">
        <ele>23.21</ele>
        <time>2012-08-24T10:36:45Z</time>
      </trkpt>
      <trkpt lat="47.33946" lon="-2.35235">
        <ele>26.57</ele>
        <time>2012-08-24T10:36:58Z</time>
      </trkpt>
      <trkpt lat="47.33923" lon="-2.35191">
        <ele>27.05</ele>
        <time>2012-08-24T10:37:12Z</time>
      </trkpt>
      <trkpt lat="47.33896" lon="-2.35166">
        <ele>27.05</ele>
        <time>2012-08-24T10:37:24Z</time>
      </trkpt>
      <trkpt lat="47.33861" lon="-2.35135">
        <ele>26.57</ele>
        <time>2012-08-24T10:37:37Z</time>
      </trkpt>
      <trkpt lat="47.33818" lon="-2.35106">
        <ele>25.61</ele>
        <time>2012-08-24T10:37:49Z</time>
      </trkpt>
      <trkpt lat="47.3375" lon="-2.35062">
        <ele>23.21</ele>
        <time>2012-08-24T10:38:02Z</time>
      </trkpt>
      <trkpt lat="47.33727" lon="-2.35039">
        <ele>22.25</ele>
        <time>2012-08-24T10:38:07Z</time>
      </trkpt>
      <trkpt lat="47.33723" lon="-2.35033">
        <ele>22.25</ele>
        <time>2012-08-24T10:38:08Z</time>
      </trkpt>
      <trkpt lat="47.33669" lon="-2.3495">
        <ele>21.29</ele>
        <time>2012-08-24T10:38:22Z</time>
      </trkpt>
      <trkpt lat="47.33641" lon="-2.34911">
        <ele>19.36</ele>
        <time>2012-08-24T10:38:31Z</time>
      </trkpt>
      <trkpt lat="47.33621" lon="-2.34885">
        <ele>16.48</ele>
        <time>2012-08-24T10:38:40Z</time>
      </trkpt>
      <trkpt lat="47.336" lon="-2.34857">
        <ele>16.96</ele>
        <time>2012-08-24T10:38:49Z</time>
      </trkpt>
      <trkpt lat="47.33574" lon="-2.34824">
        <ele>21.77</ele>
        <time>2012-08-24T10:38:59Z</time>
      </trkpt>
      <trkpt lat="47.33554" lon="-2.34804">
        <ele>24.65</ele>
        <time>2012-08-24T10:39:11Z</time>
      </trkpt>
      <trkpt lat="47.33547" lon="-2.34795">
        <ele>28.98</ele>
        <time>2012-08-24T10:39:35Z</time>
      </trkpt>
      <trkpt lat="47.33546" lon="-2.34793">
        <ele>29.46</ele>
        <time>2012-08-24T10:40:00Z</time>
      </trkpt>
      <trkpt lat="47.33546" lon="-2.34793">
        <ele>30.9</ele>
        <time>2012-08-24T10:40:29Z</time>
      </trkpt>
      <trkpt lat="47.33546" lon="-2.34792">
        <ele>31.38</ele>
        <time>2012-08-24T10:40:58Z</time>
      </trkpt>
      <trkpt lat="47.33546" lon="-2.3479">
        <ele>31.38</ele>
        <time>2012-08-24T10:41:00Z</time>
      </trkpt>
      <trkpt lat="47.33545" lon="-2.34789">
        <ele>30.9</ele>
        <time>2012-08-24T10:41:01Z</time>
      </trkpt>
      <trkpt lat="47.3352" lon="-2.34753">
        <ele>25.13</ele>
        <time>2012-08-24T10:41:13Z</time>
      </trkpt>
      <trkpt lat="47.33494" lon="-2.3472">
        <ele>24.65</ele>
        <time>2012-08-24T10:41:21Z</time>
      </trkpt>
      <trkpt lat="47.3349" lon="-2.34715">
        <ele>24.17</ele>
        <time>2012-08-24T10:41:22Z</time>
      </trkpt>
      <trkpt lat="47.33443" lon="-2.34639">
        <ele>21.29</ele>
        <time>2012-08-24T10:41:34Z</time>
      </trkpt>
      <trkpt lat="47.33435" lon="-2.34624">
        <ele>20.32</ele>
        <time>2012-08-24T10:41:36Z</time>
      </trkpt>
      <trkpt lat="47.33431" lon="-2.34617">
        <ele>20.32</ele>
        <time>2012-08-24T10:41:37Z</time>
      </trkpt>
      <trkpt lat="47.33385" lon="-2.34531">
        <ele>17.92</ele>
        <time>2012-08-24T10:41:49Z</time>
      </trkpt>
      <trkpt lat="47.33364" lon="-2.34492">
        <ele>17.92</ele>
        <time>2012-08-24T10:41:56Z</time>
      </trkpt>
      <trkpt lat="47.33361" lon="-2.34491">
        <ele>17.44</ele>
        <time>2012-08-24T10:41:57Z</time>
      </trkpt>
      <trkpt lat="47.33358" lon="-2.34492">
        <ele>16.96</ele>
        <time>2012-08-24T10:41:58Z</time>
      </trkpt>
      <trkpt lat="47.33357" lon="-2.34494">
        <ele>16.96</ele>
        <time>2012-08-24T10:41:59Z</time>
      </trkpt>
      <trkpt lat="47.33355" lon="-2.34495">
        <ele>16.48</ele>
        <time>2012-08-24T10:42:00Z</time>
      </trkpt>
      <trkpt lat="47.33354" lon="-2.34498">
        <ele>16</ele>
        <time>2012-08-24T10:42:01Z</time>
      </trkpt>
      <trkpt lat="47.33345" lon="-2.34508">
        <ele>14.56</ele>
        <time>2012-08-24T10:42:04Z</time>
      </trkpt>
      <trkpt lat="47.33341" lon="-2.34508">
        <ele>14.56</ele>
        <time>2012-08-24T10:42:05Z</time>
      </trkpt>
      <trkpt lat="47.33337" lon="-2.34508">
        <ele>14.08</ele>
        <time>2012-08-24T10:42:06Z</time>
      </trkpt>
      <trkpt lat="47.33332" lon="-2.34506">
        <ele>13.6</ele>
        <time>2012-08-24T10:42:07Z</time>
      </trkpt>
      <trkpt lat="47.33328" lon="-2.34504">
        <ele>13.12</ele>
        <time>2012-08-24T10:42:08Z</time>
      </trkpt>
      <trkpt lat="47.33323" lon="-2.34502">
        <ele>12.63</ele>
        <time>2012-08-24T10:42:09Z</time>
      </trkpt>
      <trkpt lat="47.33319" lon="-2.345">
        <ele>12.63</ele>
        <time>2012-08-24T10:42:10Z</time>
      </trkpt>
      <trkpt lat="47.33285" lon="-2.34483">
        <ele>10.23</ele>
        <time>2012-08-24T10:42:18Z</time>
      </trkpt>
      <trkpt lat="47.33281" lon="-2.3448">
        <ele>10.23</ele>
        <time>2012-08-24T10:42:19Z</time>
      </trkpt>
      <trkpt lat="47.33277" lon="-2.34477">
        <ele>9.75</ele>
        <time>2012-08-24T10:42:20Z</time>
      </trkpt>
      <trkpt lat="47.33272" lon="-2.34475">
        <ele>9.75</ele>
        <time>2012-08-24T10:42:21Z</time>
      </trkpt>
      <trkpt lat="47.33268" lon="-2.34473">
        <ele>9.27</ele>
        <time>2012-08-24T10:42:22Z</time>
      </trkpt>
      <trkpt lat="47.33263" lon="-2.34472">
        <ele>9.27</ele>
        <time>2012-08-24T10:42:23Z</time>
      </trkpt>
      <trkpt lat="47.33258" lon="-2.34472">
        <ele>9.27</ele>
        <time>2012-08-24T10:42:24Z</time>
      </trkpt>
      <trkpt lat="47.33253" lon="-2.34472">
        <ele>9.75</ele>
        <time>2012-08-24T10:42:25Z</time>
      </trkpt>
      <trkpt lat="47.33242" lon="-2.34477">
        <ele>9.75</ele>
        <time>2012-08-24T10:42:27Z</time>
      </trkpt>
      <trkpt lat="47.33238" lon="-2.34481">
        <ele>9.75</ele>
        <time>2012-08-24T10:42:28Z</time>
      </trkpt>
      <trkpt lat="47.33234" lon="-2.34484">
        <ele>9.75</ele>
        <time>2012-08-24T10:42:29Z</time>
      </trkpt>
      <trkpt lat="47.33188" lon="-2.34529">
        <ele>11.67</ele>
        <time>2012-08-24T10:42:41Z</time>
      </trkpt>
      <trkpt lat="47.33149" lon="-2.3457">
        <ele>10.23</ele>
        <time>2012-08-24T10:42:53Z</time>
      </trkpt>
      <trkpt lat="47.33111" lon="-2.34611">
        <ele>9.27</ele>
        <time>2012-08-24T10:43:05Z</time>
      </trkpt>
      <trkpt lat="47.3309" lon="-2.34632">
        <ele>12.63</ele>
        <time>2012-08-24T10:43:15Z</time>
      </trkpt>
      <trkpt lat="47.33079" lon="-2.34639">
        <ele>14.56</ele>
        <time>2012-08-24T10:43:35Z</time>
      </trkpt>
      <trkpt lat="47.33047" lon="-2.34666">
        <ele>9.75</ele>
        <time>2012-08-24T10:43:47Z</time>
      </trkpt>
      <trkpt lat="47.33008" lon="-2.34701">
        <ele>5.91</ele>
        <time>2012-08-24T10:43:59Z</time>
      </trkpt>
      <trkpt lat="47.32973" lon="-2.34741">
        <ele>6.87</ele>
        <time>2012-08-24T10:44:10Z</time>
      </trkpt>
      <trkpt lat="47.32935" lon="-2.34766">
        <ele>6.39</ele>
        <time>2012-08-24T10:44:22Z</time>
      </trkpt>
      <trkpt lat="47.32903" lon="-2.34787">
        <ele>8.31</ele>
        <time>2012-08-24T10:44:33Z</time>
      </trkpt>
      <trkpt lat="47.32868" lon="-2.34807">
        <ele>13.12</ele>
        <time>2012-08-24T10:44:45Z</time>
      </trkpt>
      <trkpt lat="47.32835" lon="-2.3483">
        <ele>16.48</ele>
        <time>2012-08-24T10:44:57Z</time>
      </trkpt>
      <trkpt lat="47.32799" lon="-2.34858">
        <ele>17.44</ele>
        <time>2012-08-24T10:45:09Z</time>
      </trkpt>
      <trkpt lat="47.32765" lon="-2.34883">
        <ele>17.44</ele>
        <time>2012-08-24T10:45:21Z</time>
      </trkpt>
      <trkpt lat="47.32723" lon="-2.34913">
        <ele>17.92</ele>
        <time>2012-08-24T10:45:34Z</time>
      </trkpt>
      <trkpt lat="47.32705" lon="-2.3493">
        <ele>18.88</ele>
        <time>2012-08-24T10:45:42Z</time>
      </trkpt>
      <trkpt lat="47.32674" lon="-2.34951">
        <ele>21.77</ele>
        <time>2012-08-24T10:45:54Z</time>
      </trkpt>
      <trkpt lat="47.32661" lon="-2.34958">
        <ele>24.17</ele>
        <time>2012-08-24T10:46:07Z</time>
      </trkpt>
      <trkpt lat="47.3266" lon="-2.3496">
        <ele>24.17</ele>
        <time>2012-08-24T10:46:30Z</time>
      </trkpt>
      <trkpt lat="47.3266" lon="-2.3496">
        <ele>25.13</ele>
        <time>2012-08-24T10:46:59Z</time>
      </trkpt>
      <trkpt lat="47.3266" lon="-2.34959">
        <ele>25.61</ele>
        <time>2012-08-24T10:47:22Z</time>
      </trkpt>
      <trkpt lat="47.32658" lon="-2.34959">
        <ele>25.61</ele>
        <time>2012-08-24T10:47:31Z</time>
      </trkpt>
      <trkpt lat="47.32657" lon="-2.34957">
        <ele>25.61</ele>
        <time>2012-08-24T10:47:32Z</time>
      </trkpt>
      <trkpt lat="47.32657" lon="-2.34953">
        <ele>25.61</ele>
        <time>2012-08-24T10:47:33Z</time>
      </trkpt>
      <trkpt lat="47.32656" lon="-2.34948">
        <ele>26.09</ele>
        <time>2012-08-24T10:47:34Z</time>
      </trkpt>
      <trkpt lat="47.32656" lon="-2.34942">
        <ele>26.09</ele>
        <time>2012-08-24T10:47:35Z</time>
      </trkpt>
      <trkpt lat="47.32655" lon="-2.34832">
        <ele>23.69</ele>
        <time>2012-08-24T10:47:47Z</time>
      </trkpt>
      <trkpt lat="47.32657" lon="-2.34652">
        <ele>21.77</ele>
        <time>2012-08-24T10:48:05Z</time>
      </trkpt>
      <trkpt lat="47.32659" lon="-2.3454">
        <ele>21.29</ele>
        <time>2012-08-24T10:48:18Z</time>
      </trkpt>
      <trkpt lat="47.32658" lon="-2.34438">
        <ele>20.32</ele>
        <time>2012-08-24T10:48:31Z</time>
      </trkpt>
      <trkpt lat="47.32658" lon="-2.34405">
        <ele>19.84</ele>
        <time>2012-08-24T10:48:35Z</time>
      </trkpt>
      <trkpt lat="47.32655" lon="-2.3426">
        <ele>16.96</ele>
        <time>2012-08-24T10:48:50Z</time>
      </trkpt>
      <trkpt lat="47.32637" lon="-2.34079">
        <ele>13.6</ele>
        <time>2012-08-24T10:49:06Z</time>
      </trkpt>
      <trkpt lat="47.32621" lon="-2.33934">
        <ele>15.04</ele>
        <time>2012-08-24T10:49:20Z</time>
      </trkpt>
      <trkpt lat="47.32619" lon="-2.33924">
        <ele>15.52</ele>
        <time>2012-08-24T10:49:21Z</time>
      </trkpt>
      <trkpt lat="47.32602" lon="-2.33795">
        <ele>15.52</ele>
        <time>2012-08-24T10:49:35Z</time>
      </trkpt>
      <trkpt lat="47.3258" lon="-2.33671">
        <ele>14.56</ele>
        <time>2012-08-24T10:49:50Z</time>
      </trkpt>
      <trkpt lat="47.3255" lon="-2.33539">
        <ele>13.6</ele>
        <time>2012-08-24T10:50:05Z</time>
      </trkpt>
      <trkpt lat="47.32546" lon="-2.33526">
        <ele>14.56</ele>
        <time>2012-08-24T10:50:07Z</time>
      </trkpt>
      <trkpt lat="47.32535" lon="-2.33468">
        <ele>15.52</ele>
        <time>2012-08-24T10:50:20Z</time>
      </trkpt>
      <trkpt lat="47.32532" lon="-2.33413">
        <ele>14.56</ele>
        <time>2012-08-24T10:50:33Z</time>
      </trkpt>
      <trkpt lat="47.32527" lon="-2.3329">
        <ele>11.19</ele>
        <time>2012-08-24T10:50:46Z</time>
      </trkpt>
      <trkpt lat="47.3251" lon="-2.33154">
        <ele>11.19</ele>
        <time>2012-08-24T10:51:00Z</time>
      </trkpt>
      <trkpt lat="47.3251" lon="-2.33054">
        <ele>11.67</ele>
        <time>2012-08-24T10:51:13Z</time>
      </trkpt>
      <trkpt lat="47.3251" lon="-2.32985">
        <ele>11.67</ele>
        <time>2012-08-24T10:51:22Z</time>
      </trkpt>
      <trkpt lat="47.3251" lon="-2.32979">
        <ele>11.67</ele>
        <time>2012-08-24T10:51:23Z</time>
      </trkpt>
      <trkpt lat="47.32509" lon="-2.32973">
        <ele>11.67</ele>
        <time>2012-08-24T10:51:24Z</time>
      </trkpt>
      <trkpt lat="47.32495" lon="-2.32891">
        <ele>15.04</ele>
        <time>2012-08-24T10:51:40Z</time>
      </trkpt>
      <trkpt lat="47.32482" lon="-2.32818">
        <ele>15.52</ele>
        <time>2012-08-24T10:51:56Z</time>
      </trkpt>
      <trkpt lat="47.3246" lon="-2.32721">
        <ele>15.04</ele>
        <time>2012-08-24T10:52:13Z</time>
      </trkpt>
      <trkpt lat="47.32427" lon="-2.32591">
        <ele>11.67</ele>
        <time>2012-08-24T10:52:27Z</time>
      </trkpt>
      <trkpt lat="47.32411" lon="-2.32541">
        <ele>10.71</ele>
        <time>2012-08-24T10:52:34Z</time>
      </trkpt>
      <trkpt lat="47.3241" lon="-2.32536">
        <ele>10.23</ele>
        <time>2012-08-24T10:52:35Z</time>
      </trkpt>
      <trkpt lat="47.32409" lon="-2.3253">
        <ele>10.23</ele>
        <time>2012-08-24T10:52:36Z</time>
      </trkpt>
      <trkpt lat="47.32409" lon="-2.32525">
        <ele>10.23</ele>
        <time>2012-08-24T10:52:37Z</time>
      </trkpt>
      <trkpt lat="47.32409" lon="-2.3252">
        <ele>10.23</ele>
        <time>2012-08-24T10:52:38Z</time>
      </trkpt>
      <trkpt lat="47.32409" lon="-2.32515">
        <ele>10.23</ele>
        <time>2012-08-24T10:52:39Z</time>
      </trkpt>
      <trkpt lat="47.32409" lon="-2.32485">
        <ele>9.75</ele>
        <time>2012-08-24T10:52:45Z</time>
      </trkpt>
      <trkpt lat="47.32409" lon="-2.32479">
        <ele>9.75</ele>
        <time>2012-08-24T10:52:46Z</time>
      </trkpt>
      <trkpt lat="47.32411" lon="-2.32473">
        <ele>9.75</ele>
        <time>2012-08-24T10:52:47Z</time>
      </trkpt>
      <trkpt lat="47.32414" lon="-2.32468">
        <ele>9.75</ele>
        <time>2012-08-24T10:52:48Z</time>
      </trkpt>
      <trkpt lat="47.32418" lon="-2.32465">
        <ele>9.27</ele>
        <time>2012-08-24T10:52:49Z</time>
      </trkpt>
      <trkpt lat="47.32422" lon="-2.32462">
        <ele>8.79</ele>
        <time>2012-08-24T10:52:50Z</time>
      </trkpt>
      <trkpt lat="47.32426" lon="-2.3246">
        <ele>8.79</ele>
        <time>2012-08-24T10:52:51Z</time>
      </trkpt>
      <trkpt lat="47.3243" lon="-2.32455">
        <ele>8.79</ele>
        <time>2012-08-24T10:52:52Z</time>
      </trkpt>
      <trkpt lat="47.32432" lon="-2.32449">
        <ele>8.79</ele>
        <time>2012-08-24T10:52:53Z</time>
      </trkpt>
      <trkpt lat="47.32433" lon="-2.32443">
        <ele>8.31</ele>
        <time>2012-08-24T10:52:54Z</time>
      </trkpt>
      <trkpt lat="47.32432" lon="-2.32436">
        <ele>8.31</ele>
        <time>2012-08-24T10:52:55Z</time>
      </trkpt>
      <trkpt lat="47.3243" lon="-2.32429">
        <ele>8.31</ele>
        <time>2012-08-24T10:52:56Z</time>
      </trkpt>
      <trkpt lat="47.32425" lon="-2.32424">
        <ele>8.31</ele>
        <time>2012-08-24T10:52:57Z</time>
      </trkpt>
      <trkpt lat="47.32421" lon="-2.3242">
        <ele>7.83</ele>
        <time>2012-08-24T10:52:58Z</time>
      </trkpt>
      <trkpt lat="47.32416" lon="-2.32416">
        <ele>7.35</ele>
        <time>2012-08-24T10:52:59Z</time>
      </trkpt>
      <trkpt lat="47.32369" lon="-2.32371">
        <ele>5.91</ele>
        <time>2012-08-24T10:53:08Z</time>
      </trkpt>
      <trkpt lat="47.32361" lon="-2.32357">
        <ele>5.91</ele>
        <time>2012-08-24T10:53:10Z</time>
      </trkpt>
      <trkpt lat="47.32306" lon="-2.32259">
        <ele>5.42</ele>
        <time>2012-08-24T10:53:25Z</time>
      </trkpt>
      <trkpt lat="47.32256" lon="-2.32188">
        <ele>8.31</ele>
        <time>2012-08-24T10:53:40Z</time>
      </trkpt>
      <trkpt lat="47.32215" lon="-2.32132">
        <ele>9.27</ele>
        <time>2012-08-24T10:53:55Z</time>
      </trkpt>
      <trkpt lat="47.32195" lon="-2.32109">
        <ele>9.27</ele>
        <time>2012-08-24T10:54:02Z</time>
      </trkpt>
      <trkpt lat="47.32179" lon="-2.32093">
        <ele>7.35</ele>
        <time>2012-08-24T10:54:06Z</time>
      </trkpt>
      <trkpt lat="47.32175" lon="-2.32089">
        <ele>7.35</ele>
        <time>2012-08-24T10:54:07Z</time>
      </trkpt>
      <trkpt lat="47.32152" lon="-2.32068">
        <ele>4.94</ele>
        <time>2012-08-24T10:54:13Z</time>
      </trkpt>
      <trkpt lat="47.32149" lon="-2.32064">
        <ele>4.46</ele>
        <time>2012-08-24T10:54:14Z</time>
      </trkpt>
      <trkpt lat="47.32145" lon="-2.3206">
        <ele>3.98</ele>
        <time>2012-08-24T10:54:15Z</time>
      </trkpt>
      <trkpt lat="47.32089" lon="-2.32003">
        <ele>2.06</ele>
        <time>2012-08-24T10:54:31Z</time>
      </trkpt>
      <trkpt lat="47.32045" lon="-2.31956">
        <ele>5.91</ele>
        <time>2012-08-24T10:54:45Z</time>
      </trkpt>
      <trkpt lat="47.31998" lon="-2.31908">
        <ele>8.79</ele>
        <time>2012-08-24T10:55:00Z</time>
      </trkpt>
      <trkpt lat="47.31951" lon="-2.31857">
        <ele>14.08</ele>
        <time>2012-08-24T10:55:16Z</time>
      </trkpt>
      <trkpt lat="47.31911" lon="-2.31818">
        <ele>16.48</ele>
        <time>2012-08-24T10:55:30Z</time>
      </trkpt>
      <trkpt lat="47.31876" lon="-2.31783">
        <ele>18.88</ele>
        <time>2012-08-24T10:55:44Z</time>
      </trkpt>
      <trkpt lat="47.31847" lon="-2.31754">
        <ele>17.44</ele>
        <time>2012-08-24T10:55:56Z</time>
      </trkpt>
      <trkpt lat="47.31817" lon="-2.31726">
        <ele>15.52</ele>
        <time>2012-08-24T10:56:09Z</time>
      </trkpt>
      <trkpt lat="47.3181" lon="-2.31719">
        <ele>17.92</ele>
        <time>2012-08-24T10:56:19Z</time>
      </trkpt>
      <trkpt lat="47.31808" lon="-2.31718">
        <ele>20.32</ele>
        <time>2012-08-24T10:56:28Z</time>
      </trkpt>
      <trkpt lat="47.31804" lon="-2.31715">
        <ele>21.77</ele>
        <time>2012-08-24T10:56:31Z</time>
      </trkpt>
      <trkpt lat="47.31796" lon="-2.31705">
        <ele>23.69</ele>
        <time>2012-08-24T10:56:39Z</time>
      </trkpt>
      <trkpt lat="47.31794" lon="-2.31699">
        <ele>24.17</ele>
        <time>2012-08-24T10:56:51Z</time>
      </trkpt>
      <trkpt lat="47.31786" lon="-2.31688">
        <ele>24.65</ele>
        <time>2012-08-24T10:57:01Z</time>
      </trkpt>
      <trkpt lat="47.31749" lon="-2.3165">
        <ele>25.13</ele>
        <time>2012-08-24T10:57:12Z</time>
      </trkpt>
      <trkpt lat="47.31716" lon="-2.31616">
        <ele>24.65</ele>
        <time>2012-08-24T10:57:21Z</time>
      </trkpt>
      <trkpt lat="47.31676" lon="-2.31574">
        <ele>24.17</ele>
        <time>2012-08-24T10:57:34Z</time>
      </trkpt>
      <trkpt lat="47.31656" lon="-2.31554">
        <ele>23.21</ele>
        <time>2012-08-24T10:57:39Z</time>
      </trkpt>
      <trkpt lat="47.31651" lon="-2.3155">
        <ele>23.21</ele>
        <time>2012-08-24T10:57:40Z</time>
      </trkpt>
      <trkpt lat="47.316" lon="-2.31498">
        <ele>22.25</ele>
        <time>2012-08-24T10:57:53Z</time>
      </trkpt>
      <trkpt lat="47.31573" lon="-2.31469">
        <ele>22.25</ele>
        <time>2012-08-24T10:58:00Z</time>
      </trkpt>
      <trkpt lat="47.3157" lon="-2.31465">
        <ele>21.77</ele>
        <time>2012-08-24T10:58:01Z</time>
      </trkpt>
      <trkpt lat="47.31548" lon="-2.31435">
        <ele>21.29</ele>
        <time>2012-08-24T10:58:07Z</time>
      </trkpt>
      <trkpt lat="47.31541" lon="-2.31424">
        <ele>20.81</ele>
        <time>2012-08-24T10:58:09Z</time>
      </trkpt>
      <trkpt lat="47.31538" lon="-2.31418">
        <ele>20.81</ele>
        <time>2012-08-24T10:58:10Z</time>
      </trkpt>
      <trkpt lat="47.31534" lon="-2.31414">
        <ele>20.81</ele>
        <time>2012-08-24T10:58:11Z</time>
      </trkpt>
      <trkpt lat="47.3153" lon="-2.31409">
        <ele>20.81</ele>
        <time>2012-08-24T10:58:12Z</time>
      </trkpt>
      <trkpt lat="47.31526" lon="-2.31403">
        <ele>20.81</ele>
        <time>2012-08-24T10:58:13Z</time>
      </trkpt>
      <trkpt lat="47.31498" lon="-2.31362">
        <ele>20.32</ele>
        <time>2012-08-24T10:58:21Z</time>
      </trkpt>
      <trkpt lat="47.31494" lon="-2.31356">
        <ele>19.84</ele>
        <time>2012-08-24T10:58:22Z</time>
      </trkpt>
      <trkpt lat="47.31491" lon="-2.31351">
        <ele>19.84</ele>
        <time>2012-08-24T10:58:23Z</time>
      </trkpt>
      <trkpt lat="47.31487" lon="-2.31346">
        <ele>19.84</ele>
        <time>2012-08-24T10:58:24Z</time>
      </trkpt>
      <trkpt lat="47.31483" lon="-2.31341">
        <ele>19.84</ele>
        <time>2012-08-24T10:58:25Z</time>
      </trkpt>
      <trkpt lat="47.31456" lon="-2.31301">
        <ele>19.84</ele>
        <time>2012-08-24T10:58:33Z</time>
      </trkpt>
      <trkpt lat="47.31452" lon="-2.31296">
        <ele>19.84</ele>
        <time>2012-08-24T10:58:34Z</time>
      </trkpt>
      <trkpt lat="47.31396" lon="-2.31221">
        <ele>20.32</ele>
        <time>2012-08-24T10:58:50Z</time>
      </trkpt>
      <trkpt lat="47.31376" lon="-2.31182">
        <ele>18.88</ele>
        <time>2012-08-24T10:58:59Z</time>
      </trkpt>
      <trkpt lat="47.31373" lon="-2.31181">
        <ele>18.88</ele>
        <time>2012-08-24T10:59:00Z</time>
      </trkpt>
      <trkpt lat="47.31371" lon="-2.3118">
        <ele>18.88</ele>
        <time>2012-08-24T10:59:01Z</time>
      </trkpt>
      <trkpt lat="47.31369" lon="-2.31179">
        <ele>18.88</ele>
        <time>2012-08-24T10:59:02Z</time>
      </trkpt>
      <trkpt lat="47.31368" lon="-2.31178">
        <ele>18.88</ele>
        <time>2012-08-24T10:59:03Z</time>
      </trkpt>
      <trkpt lat="47.31366" lon="-2.31173">
        <ele>20.81</ele>
        <time>2012-08-24T10:59:15Z</time>
      </trkpt>
      <trkpt lat="47.31366" lon="-2.31171">
        <ele>23.21</ele>
        <time>2012-08-24T10:59:37Z</time>
      </trkpt>
      <trkpt lat="47.31365" lon="-2.3117">
        <ele>24.65</ele>
        <time>2012-08-24T11:00:09Z</time>
      </trkpt>
      <trkpt lat="47.31365" lon="-2.3117">
        <ele>26.57</ele>
        <time>2012-08-24T11:00:43Z</time>
      </trkpt>
      <trkpt lat="47.31366" lon="-2.31169">
        <ele>26.57</ele>
        <time>2012-08-24T11:01:16Z</time>
      </trkpt>
      <trkpt lat="47.31366" lon="-2.31169">
        <ele>27.05</ele>
        <time>2012-08-24T11:01:41Z</time>
      </trkpt>
      <trkpt lat="47.31366" lon="-2.3117">
        <ele>26.57</ele>
        <time>2012-08-24T11:02:06Z</time>
      </trkpt>
      <trkpt lat="47.31367" lon="-2.31169">
        <ele>26.57</ele>
        <time>2012-08-24T11:02:14Z</time>
      </trkpt>
      <trkpt lat="47.31368" lon="-2.31167">
        <ele>26.57</ele>
        <time>2012-08-24T11:02:15Z</time>
      </trkpt>
      <trkpt lat="47.31368" lon="-2.31166">
        <ele>26.09</ele>
        <time>2012-08-24T11:02:16Z</time>
      </trkpt>
      <trkpt lat="47.31369" lon="-2.31163">
        <ele>25.61</ele>
        <time>2012-08-24T11:02:18Z</time>
      </trkpt>
      <trkpt lat="47.31369" lon="-2.31162">
        <ele>25.61</ele>
        <time>2012-08-24T11:02:19Z</time>
      </trkpt>
      <trkpt lat="47.31369" lon="-2.3116">
        <ele>25.13</ele>
        <time>2012-08-24T11:02:20Z</time>
      </trkpt>
      <trkpt lat="47.31369" lon="-2.31158">
        <ele>25.13</ele>
        <time>2012-08-24T11:02:21Z</time>
      </trkpt>
      <trkpt lat="47.31368" lon="-2.31155">
        <ele>25.13</ele>
        <time>2012-08-24T11:02:22Z</time>
      </trkpt>
      <trkpt lat="47.3136" lon="-2.31136">
        <ele>25.13</ele>
        <time>2012-08-24T11:02:28Z</time>
      </trkpt>
      <trkpt lat="47.31357" lon="-2.31135">
        <ele>25.13</ele>
        <time>2012-08-24T11:02:29Z</time>
      </trkpt>
      <trkpt lat="47.31354" lon="-2.31134">
        <ele>25.13</ele>
        <time>2012-08-24T11:02:30Z</time>
      </trkpt>
      <trkpt lat="47.31351" lon="-2.31135">
        <ele>25.13</ele>
        <time>2012-08-24T11:02:31Z</time>
      </trkpt>
      <trkpt lat="47.31348" lon="-2.31137">
        <ele>25.13</ele>
        <time>2012-08-24T11:02:32Z</time>
      </trkpt>
      <trkpt lat="47.31345" lon="-2.31139">
        <ele>24.65</ele>
        <time>2012-08-24T11:02:33Z</time>
      </trkpt>
      <trkpt lat="47.31343" lon="-2.3114">
        <ele>24.65</ele>
        <time>2012-08-24T11:02:34Z</time>
      </trkpt>
      <trkpt lat="47.31339" lon="-2.31143">
        <ele>24.65</ele>
        <time>2012-08-24T11:02:35Z</time>
      </trkpt>
      <trkpt lat="47.31336" lon="-2.31145">
        <ele>24.65</ele>
        <time>2012-08-24T11:02:36Z</time>
      </trkpt>
      <trkpt lat="47.31281" lon="-2.31152">
        <ele>23.69</ele>
        <time>2012-08-24T11:02:50Z</time>
      </trkpt>
      <trkpt lat="47.31235" lon="-2.31155">
        <ele>23.21</ele>
        <time>2012-08-24T11:03:00Z</time>
      </trkpt>
      <trkpt lat="47.31226" lon="-2.31158">
        <ele>22.73</ele>
        <time>2012-08-24T11:03:02Z</time>
      </trkpt>
      <trkpt lat="47.31207" lon="-2.31168">
        <ele>22.73</ele>
        <time>2012-08-24T11:03:07Z</time>
      </trkpt>
      <trkpt lat="47.31172" lon="-2.31186">
        <ele>21.77</ele>
        <time>2012-08-24T11:03:16Z</time>
      </trkpt>
      <trkpt lat="47.31169" lon="-2.31191">
        <ele>21.77</ele>
        <time>2012-08-24T11:03:17Z</time>
      </trkpt>
      <trkpt lat="47.31167" lon="-2.31196">
        <ele>21.77</ele>
        <time>2012-08-24T11:03:18Z</time>
      </trkpt>
      <trkpt lat="47.31164" lon="-2.31201">
        <ele>21.77</ele>
        <time>2012-08-24T11:03:19Z</time>
      </trkpt>
      <trkpt lat="47.31161" lon="-2.31205">
        <ele>21.29</ele>
        <time>2012-08-24T11:03:20Z</time>
      </trkpt>
      <trkpt lat="47.31158" lon="-2.31208">
        <ele>21.29</ele>
        <time>2012-08-24T11:03:21Z</time>
      </trkpt>
      <trkpt lat="47.31154" lon="-2.31209">
        <ele>21.29</ele>
        <time>2012-08-24T11:03:22Z</time>
      </trkpt>
      <trkpt lat="47.31151" lon="-2.31208">
        <ele>21.29</ele>
        <time>2012-08-24T11:03:23Z</time>
      </trkpt>
      <trkpt lat="47.31148" lon="-2.31206">
        <ele>21.29</ele>
        <time>2012-08-24T11:03:24Z</time>
      </trkpt>
      <trkpt lat="47.31145" lon="-2.31202">
        <ele>21.29</ele>
        <time>2012-08-24T11:03:25Z</time>
      </trkpt>
      <trkpt lat="47.31142" lon="-2.31197">
        <ele>21.29</ele>
        <time>2012-08-24T11:03:26Z</time>
      </trkpt>
      <trkpt lat="47.3109" lon="-2.31148">
        <ele>20.81</ele>
        <time>2012-08-24T11:03:39Z</time>
      </trkpt>
      <trkpt lat="47.31017" lon="-2.31099">
        <ele>18.4</ele>
        <time>2012-08-24T11:03:53Z</time>
      </trkpt>
      <trkpt lat="47.30936" lon="-2.31048">
        <ele>16</ele>
        <time>2012-08-24T11:04:09Z</time>
      </trkpt>
      <trkpt lat="47.30931" lon="-2.31048">
        <ele>16</ele>
        <time>2012-08-24T11:04:10Z</time>
      </trkpt>
      <trkpt lat="47.30922" lon="-2.31046">
        <ele>16</ele>
        <time>2012-08-24T11:04:12Z</time>
      </trkpt>
      <trkpt lat="47.30919" lon="-2.31042">
        <ele>16</ele>
        <time>2012-08-24T11:04:13Z</time>
      </trkpt>
      <trkpt lat="47.30916" lon="-2.31038">
        <ele>16</ele>
        <time>2012-08-24T11:04:14Z</time>
      </trkpt>
      <trkpt lat="47.30912" lon="-2.31033">
        <ele>16</ele>
        <time>2012-08-24T11:04:15Z</time>
      </trkpt>
      <trkpt lat="47.30909" lon="-2.31029">
        <ele>16</ele>
        <time>2012-08-24T11:04:16Z</time>
      </trkpt>
      <trkpt lat="47.30905" lon="-2.31026">
        <ele>16</ele>
        <time>2012-08-24T11:04:17Z</time>
      </trkpt>
      <trkpt lat="47.30901" lon="-2.31023">
        <ele>15.52</ele>
        <time>2012-08-24T11:04:18Z</time>
      </trkpt>
      <trkpt lat="47.30839" lon="-2.30982">
        <ele>15.04</ele>
        <time>2012-08-24T11:04:31Z</time>
      </trkpt>
      <trkpt lat="47.30758" lon="-2.30928">
        <ele>14.56</ele>
        <time>2012-08-24T11:04:48Z</time>
      </trkpt>
      <trkpt lat="47.30685" lon="-2.30879">
        <ele>13.6</ele>
        <time>2012-08-24T11:05:04Z</time>
      </trkpt>
      <trkpt lat="47.30598" lon="-2.30821">
        <ele>12.63</ele>
        <time>2012-08-24T11:05:23Z</time>
      </trkpt>
      <trkpt lat="47.30499" lon="-2.30754">
        <ele>10.71</ele>
        <time>2012-08-24T11:05:41Z</time>
      </trkpt>
      <trkpt lat="47.30405" lon="-2.30691">
        <ele>7.83</ele>
        <time>2012-08-24T11:05:59Z</time>
      </trkpt>
      <trkpt lat="47.30332" lon="-2.30629">
        <ele>6.87</ele>
        <time>2012-08-24T11:06:13Z</time>
      </trkpt>
      <trkpt lat="47.30278" lon="-2.30585">
        <ele>7.83</ele>
        <time>2012-08-24T11:06:23Z</time>
      </trkpt>
      <trkpt lat="47.30273" lon="-2.30582">
        <ele>7.35</ele>
        <time>2012-08-24T11:06:24Z</time>
      </trkpt>
      <trkpt lat="47.30268" lon="-2.3058">
        <ele>7.35</ele>
        <time>2012-08-24T11:06:25Z</time>
      </trkpt>
      <trkpt lat="47.30263" lon="-2.30578">
        <ele>7.35</ele>
        <time>2012-08-24T11:06:26Z</time>
      </trkpt>
      <trkpt lat="47.30259" lon="-2.30577">
        <ele>7.35</ele>
        <time>2012-08-24T11:06:27Z</time>
      </trkpt>
      <trkpt lat="47.30254" lon="-2.30578">
        <ele>7.35</ele>
        <time>2012-08-24T11:06:28Z</time>
      </trkpt>
      <trkpt lat="47.30249" lon="-2.30579">
        <ele>7.35</ele>
        <time>2012-08-24T11:06:29Z</time>
      </trkpt>
      <trkpt lat="47.30244" lon="-2.3058">
        <ele>6.87</ele>
        <time>2012-08-24T11:06:30Z</time>
      </trkpt>
      <trkpt lat="47.30206" lon="-2.30599">
        <ele>6.87</ele>
        <time>2012-08-24T11:06:38Z</time>
      </trkpt>
      <trkpt lat="47.30203" lon="-2.30603">
        <ele>6.87</ele>
        <time>2012-08-24T11:06:39Z</time>
      </trkpt>
      <trkpt lat="47.30201" lon="-2.30607">
        <ele>6.87</ele>
        <time>2012-08-24T11:06:40Z</time>
      </trkpt>
      <trkpt lat="47.30199" lon="-2.30612">
        <ele>6.87</ele>
        <time>2012-08-24T11:06:41Z</time>
      </trkpt>
      <trkpt lat="47.30197" lon="-2.30617">
        <ele>6.87</ele>
        <time>2012-08-24T11:06:42Z</time>
      </trkpt>
      <trkpt lat="47.30171" lon="-2.30637">
        <ele>6.87</ele>
        <time>2012-08-24T11:06:51Z</time>
      </trkpt>
      <trkpt lat="47.30165" lon="-2.30642">
        <ele>6.39</ele>
        <time>2012-08-24T11:06:53Z</time>
      </trkpt>
      <trkpt lat="47.30161" lon="-2.30642">
        <ele>6.39</ele>
        <time>2012-08-24T11:06:54Z</time>
      </trkpt>
      <trkpt lat="47.30158" lon="-2.30639">
        <ele>6.39</ele>
        <time>2012-08-24T11:06:55Z</time>
      </trkpt>
      <trkpt lat="47.30155" lon="-2.30635">
        <ele>6.39</ele>
        <time>2012-08-24T11:06:56Z</time>
      </trkpt>
      <trkpt lat="47.30152" lon="-2.30632">
        <ele>6.39</ele>
        <time>2012-08-24T11:06:57Z</time>
      </trkpt>
      <trkpt lat="47.30135" lon="-2.30584">
        <ele>4.46</ele>
        <time>2012-08-24T11:07:07Z</time>
      </trkpt>
      <trkpt lat="47.30129" lon="-2.30567">
        <ele>3.98</ele>
        <time>2012-08-24T11:07:10Z</time>
      </trkpt>
      <trkpt lat="47.30126" lon="-2.30563">
        <ele>4.46</ele>
        <time>2012-08-24T11:07:11Z</time>
      </trkpt>
      <trkpt lat="47.30116" lon="-2.30551">
        <ele>3.98</ele>
        <time>2012-08-24T11:07:14Z</time>
      </trkpt>
      <trkpt lat="47.30112" lon="-2.30547">
        <ele>3.98</ele>
        <time>2012-08-24T11:07:15Z</time>
      </trkpt>
      <trkpt lat="47.30108" lon="-2.30545">
        <ele>3.98</ele>
        <time>2012-08-24T11:07:16Z</time>
      </trkpt>
      <trkpt lat="47.30099" lon="-2.30541">
        <ele>3.98</ele>
        <time>2012-08-24T11:07:18Z</time>
      </trkpt>
      <trkpt lat="47.30095" lon="-2.3054">
        <ele>3.98</ele>
        <time>2012-08-24T11:07:19Z</time>
      </trkpt>
      <trkpt lat="47.3009" lon="-2.3054">
        <ele>3.98</ele>
        <time>2012-08-24T11:07:20Z</time>
      </trkpt>
      <trkpt lat="47.30038" lon="-2.30543">
        <ele>3.98</ele>
        <time>2012-08-24T11:07:33Z</time>
      </trkpt>
      <trkpt lat="47.29983" lon="-2.30532">
        <ele>5.42</ele>
        <time>2012-08-24T11:07:47Z</time>
      </trkpt>
      <trkpt lat="47.29937" lon="-2.30506">
        <ele>6.39</ele>
        <time>2012-08-24T11:08:00Z</time>
      </trkpt>
      <trkpt lat="47.2988" lon="-2.30481">
        <ele>8.31</ele>
        <time>2012-08-24T11:08:16Z</time>
      </trkpt>
      <trkpt lat="47.2983" lon="-2.3049">
        <ele>11.67</ele>
        <time>2012-08-24T11:08:31Z</time>
      </trkpt>
      <trkpt lat="47.29777" lon="-2.30501">
        <ele>12.15</ele>
        <time>2012-08-24T11:08:48Z</time>
      </trkpt>
      <trkpt lat="47.29735" lon="-2.30515">
        <ele>14.08</ele>
        <time>2012-08-24T11:09:03Z</time>
      </trkpt>
      <trkpt lat="47.29702" lon="-2.30526">
        <ele>15.04</ele>
        <time>2012-08-24T11:09:16Z</time>
      </trkpt>
      <trkpt lat="47.2967" lon="-2.30536">
        <ele>15.04</ele>
        <time>2012-08-24T11:09:29Z</time>
      </trkpt>
      <trkpt lat="47.29637" lon="-2.3055">
        <ele>16</ele>
        <time>2012-08-24T11:09:43Z</time>
      </trkpt>
      <trkpt lat="47.29597" lon="-2.30562">
        <ele>17.44</ele>
        <time>2012-08-24T11:09:57Z</time>
      </trkpt>
      <trkpt lat="47.29547" lon="-2.30568">
        <ele>17.44</ele>
        <time>2012-08-24T11:10:12Z</time>
      </trkpt>
      <trkpt lat="47.29514" lon="-2.30571">
        <ele>17.44</ele>
        <time>2012-08-24T11:10:21Z</time>
      </trkpt>
      <trkpt lat="47.2951" lon="-2.30572">
        <ele>17.44</ele>
        <time>2012-08-24T11:10:22Z</time>
      </trkpt>
      <trkpt lat="47.29505" lon="-2.30572">
        <ele>16.96</ele>
        <time>2012-08-24T11:10:23Z</time>
      </trkpt>
      <trkpt lat="47.29501" lon="-2.30573">
        <ele>16.96</ele>
        <time>2012-08-24T11:10:24Z</time>
      </trkpt>
      <trkpt lat="47.29497" lon="-2.30574">
        <ele>16.96</ele>
        <time>2012-08-24T11:10:25Z</time>
      </trkpt>
      <trkpt lat="47.29492" lon="-2.30575">
        <ele>16.96</ele>
        <time>2012-08-24T11:10:26Z</time>
      </trkpt>
      <trkpt lat="47.29422" lon="-2.30585">
        <ele>15.04</ele>
        <time>2012-08-24T11:10:41Z</time>
      </trkpt>
      <trkpt lat="47.29417" lon="-2.30584">
        <ele>14.56</ele>
        <time>2012-08-24T11:10:42Z</time>
      </trkpt>
      <trkpt lat="47.29411" lon="-2.30583">
        <ele>14.56</ele>
        <time>2012-08-24T11:10:43Z</time>
      </trkpt>
      <trkpt lat="47.29399" lon="-2.30578">
        <ele>14.08</ele>
        <time>2012-08-24T11:10:45Z</time>
      </trkpt>
      <trkpt lat="47.29301" lon="-2.30519">
        <ele>10.23</ele>
        <time>2012-08-24T11:11:00Z</time>
      </trkpt>
      <trkpt lat="47.29254" lon="-2.30495">
        <ele>8.79</ele>
        <time>2012-08-24T11:11:08Z</time>
      </trkpt>
      <trkpt lat="47.29248" lon="-2.30493">
        <ele>8.79</ele>
        <time>2012-08-24T11:11:09Z</time>
      </trkpt>
      <trkpt lat="47.29241" lon="-2.30492">
        <ele>8.31</ele>
        <time>2012-08-24T11:11:10Z</time>
      </trkpt>
      <trkpt lat="47.29203" lon="-2.30496">
        <ele>8.31</ele>
        <time>2012-08-24T11:11:18Z</time>
      </trkpt>
      <trkpt lat="47.29173" lon="-2.30513">
        <ele>8.31</ele>
        <time>2012-08-24T11:11:26Z</time>
      </trkpt>
      <trkpt lat="47.29169" lon="-2.30514">
        <ele>8.79</ele>
        <time>2012-08-24T11:11:27Z</time>
      </trkpt>
      <trkpt lat="47.29165" lon="-2.30516">
        <ele>8.79</ele>
        <time>2012-08-24T11:11:28Z</time>
      </trkpt>
      <trkpt lat="47.29161" lon="-2.30519">
        <ele>8.79</ele>
        <time>2012-08-24T11:11:29Z</time>
      </trkpt>
      <trkpt lat="47.29157" lon="-2.30522">
        <ele>8.79</ele>
        <time>2012-08-24T11:11:30Z</time>
      </trkpt>
      <trkpt lat="47.29129" lon="-2.30544">
        <ele>9.27</ele>
        <time>2012-08-24T11:11:36Z</time>
      </trkpt>
      <trkpt lat="47.29119" lon="-2.3055">
        <ele>9.27</ele>
        <time>2012-08-24T11:11:38Z</time>
      </trkpt>
      <trkpt lat="47.29073" lon="-2.30581">
        <ele>9.75</ele>
        <time>2012-08-24T11:11:48Z</time>
      </trkpt>
      <trkpt lat="47.29069" lon="-2.30583">
        <ele>9.75</ele>
        <time>2012-08-24T11:11:49Z</time>
      </trkpt>
      <trkpt lat="47.29019" lon="-2.30613">
        <ele>7.83</ele>
        <time>2012-08-24T11:12:02Z</time>
      </trkpt>
      <trkpt lat="47.29003" lon="-2.30601">
        <ele>8.79</ele>
        <time>2012-08-24T11:12:11Z</time>
      </trkpt>
      <trkpt lat="47.29003" lon="-2.30598">
        <ele>8.79</ele>
        <time>2012-08-24T11:12:12Z</time>
      </trkpt>
      <trkpt lat="47.28999" lon="-2.30562">
        <ele>9.27</ele>
        <time>2012-08-24T11:12:24Z</time>
      </trkpt>
      <trkpt lat="47.28998" lon="-2.30559">
        <ele>9.27</ele>
        <time>2012-08-24T11:12:25Z</time>
      </trkpt>
      <trkpt lat="47.28998" lon="-2.30555">
        <ele>9.27</ele>
        <time>2012-08-24T11:12:26Z</time>
      </trkpt>
      <trkpt lat="47.2899" lon="-2.30508">
        <ele>6.39</ele>
        <time>2012-08-24T11:12:39Z</time>
      </trkpt>
      <trkpt lat="47.28984" lon="-2.30465">
        <ele>4.46</ele>
        <time>2012-08-24T11:12:50Z</time>
      </trkpt>
      <trkpt lat="47.28976" lon="-2.30404">
        <ele>6.39</ele>
        <time>2012-08-24T11:13:02Z</time>
      </trkpt>
      <trkpt lat="47.28972" lon="-2.30354">
        <ele>7.35</ele>
        <time>2012-08-24T11:13:13Z</time>
      </trkpt>
      <trkpt lat="47.28971" lon="-2.30284">
        <ele>7.83</ele>
        <time>2012-08-24T11:13:26Z</time>
      </trkpt>
      <trkpt lat="47.28966" lon="-2.30234">
        <ele>8.31</ele>
        <time>2012-08-24T11:13:36Z</time>
      </trkpt>
      <trkpt lat="47.28963" lon="-2.3023">
        <ele>8.31</ele>
        <time>2012-08-24T11:13:37Z</time>
      </trkpt>
      <trkpt lat="47.2895" lon="-2.30215">
        <ele>8.79</ele>
        <time>2012-08-24T11:13:41Z</time>
      </trkpt>
      <trkpt lat="47.2894" lon="-2.30204">
        <ele>7.83</ele>
        <time>2012-08-24T11:13:44Z</time>
      </trkpt>
      <trkpt lat="47.28899" lon="-2.30154">
        <ele>9.75</ele>
        <time>2012-08-24T11:13:57Z</time>
      </trkpt>
      <trkpt lat="47.28867" lon="-2.30118">
        <ele>11.67</ele>
        <time>2012-08-24T11:14:08Z</time>
      </trkpt>
      <trkpt lat="47.28838" lon="-2.30079">
        <ele>13.12</ele>
        <time>2012-08-24T11:14:22Z</time>
      </trkpt>
      <trkpt lat="47.28812" lon="-2.30051">
        <ele>13.12</ele>
        <time>2012-08-24T11:14:35Z</time>
      </trkpt>
      <trkpt lat="47.2878" lon="-2.3003">
        <ele>13.6</ele>
        <time>2012-08-24T11:14:48Z</time>
      </trkpt>
      <trkpt lat="47.2876" lon="-2.29993">
        <ele>14.56</ele>
        <time>2012-08-24T11:14:59Z</time>
      </trkpt>
      <trkpt lat="47.28727" lon="-2.29957">
        <ele>16.96</ele>
        <time>2012-08-24T11:15:11Z</time>
      </trkpt>
      <trkpt lat="47.28697" lon="-2.29953">
        <ele>17.44</ele>
        <time>2012-08-24T11:15:21Z</time>
      </trkpt>
      <trkpt lat="47.28681" lon="-2.29921">
        <ele>18.4</ele>
        <time>2012-08-24T11:15:31Z</time>
      </trkpt>
      <trkpt lat="47.28657" lon="-2.299">
        <ele>19.36</ele>
        <time>2012-08-24T11:15:43Z</time>
      </trkpt>
      <trkpt lat="47.28642" lon="-2.29845">
        <ele>20.32</ele>
        <time>2012-08-24T11:15:56Z</time>
      </trkpt>
      <trkpt lat="47.28638" lon="-2.2978">
        <ele>21.77</ele>
        <time>2012-08-24T11:16:10Z</time>
      </trkpt>
      <trkpt lat="47.28624" lon="-2.29742">
        <ele>22.73</ele>
        <time>2012-08-24T11:16:19Z</time>
      </trkpt>
      <trkpt lat="47.2861" lon="-2.29706">
        <ele>21.77</ele>
        <time>2012-08-24T11:16:25Z</time>
      </trkpt>
      <trkpt lat="47.28608" lon="-2.297">
        <ele>21.77</ele>
        <time>2012-08-24T11:16:26Z</time>
      </trkpt>
      <trkpt lat="47.28606" lon="-2.29695">
        <ele>21.77</ele>
        <time>2012-08-24T11:16:27Z</time>
      </trkpt>
      <trkpt lat="47.28604" lon="-2.29689">
        <ele>21.77</ele>
        <time>2012-08-24T11:16:28Z</time>
      </trkpt>
      <trkpt lat="47.28601" lon="-2.29684">
        <ele>21.77</ele>
        <time>2012-08-24T11:16:29Z</time>
      </trkpt>
      <trkpt lat="47.28599" lon="-2.29677">
        <ele>21.77</ele>
        <time>2012-08-24T11:16:30Z</time>
      </trkpt>
      <trkpt lat="47.28598" lon="-2.29671">
        <ele>21.77</ele>
        <time>2012-08-24T11:16:31Z</time>
      </trkpt>
      <trkpt lat="47.28596" lon="-2.29664">
        <ele>21.77</ele>
        <time>2012-08-24T11:16:32Z</time>
      </trkpt>
      <trkpt lat="47.28594" lon="-2.2965">
        <ele>21.29</ele>
        <time>2012-08-24T11:16:34Z</time>
      </trkpt>
      <trkpt lat="47.28593" lon="-2.29643">
        <ele>21.29</ele>
        <time>2012-08-24T11:16:35Z</time>
      </trkpt>
      <trkpt lat="47.28596" lon="-2.2956">
        <ele>22.25</ele>
        <time>2012-08-24T11:16:49Z</time>
      </trkpt>
      <trkpt lat="47.28597" lon="-2.29535">
        <ele>21.77</ele>
        <time>2012-08-24T11:16:53Z</time>
      </trkpt>
      <trkpt lat="47.28595" lon="-2.29518">
        <ele>21.77</ele>
        <time>2012-08-24T11:16:56Z</time>
      </trkpt>
      <trkpt lat="47.28594" lon="-2.29512">
        <ele>21.77</ele>
        <time>2012-08-24T11:16:57Z</time>
      </trkpt>
      <trkpt lat="47.28574" lon="-2.29446">
        <ele>22.25</ele>
        <time>2012-08-24T11:17:10Z</time>
      </trkpt>
      <trkpt lat="47.28553" lon="-2.29395">
        <ele>22.73</ele>
        <time>2012-08-24T11:17:22Z</time>
      </trkpt>
      <trkpt lat="47.28524" lon="-2.29323">
        <ele>24.17</ele>
        <time>2012-08-24T11:17:38Z</time>
      </trkpt>
      <trkpt lat="47.28516" lon="-2.29297">
        <ele>24.17</ele>
        <time>2012-08-24T11:17:47Z</time>
      </trkpt>
      <trkpt lat="47.28519" lon="-2.29289">
        <ele>24.17</ele>
        <time>2012-08-24T11:17:51Z</time>
      </trkpt>
      <trkpt lat="47.2852" lon="-2.29287">
        <ele>24.17</ele>
        <time>2012-08-24T11:17:52Z</time>
      </trkpt>
      <trkpt lat="47.28521" lon="-2.29286">
        <ele>24.17</ele>
        <time>2012-08-24T11:17:53Z</time>
      </trkpt>
      <trkpt lat="47.28523" lon="-2.29284">
        <ele>24.17</ele>
        <time>2012-08-24T11:17:54Z</time>
      </trkpt>
      <trkpt lat="47.28523" lon="-2.29281">
        <ele>24.17</ele>
        <time>2012-08-24T11:17:55Z</time>
      </trkpt>
      <trkpt lat="47.28523" lon="-2.29278">
        <ele>24.65</ele>
        <time>2012-08-24T11:17:56Z</time>
      </trkpt>
      <trkpt lat="47.2852" lon="-2.2923">
        <ele>23.21</ele>
        <time>2012-08-24T11:18:09Z</time>
      </trkpt>
      <trkpt lat="47.28534" lon="-2.29194">
        <ele>25.13</ele>
        <time>2012-08-24T11:18:22Z</time>
      </trkpt>
      <trkpt lat="47.28565" lon="-2.2917">
        <ele>26.57</ele>
        <time>2012-08-24T11:18:33Z</time>
      </trkpt>
      <trkpt lat="47.28585" lon="-2.29135">
        <ele>26.09</ele>
        <time>2012-08-24T11:18:42Z</time>
      </trkpt>
      <trkpt lat="47.28596" lon="-2.29102">
        <ele>25.13</ele>
        <time>2012-08-24T11:18:48Z</time>
      </trkpt>
      <trkpt lat="47.28598" lon="-2.29098">
        <ele>24.65</ele>
        <time>2012-08-24T11:18:49Z</time>
      </trkpt>
      <trkpt lat="47.286" lon="-2.29093">
        <ele>24.17</ele>
        <time>2012-08-24T11:18:50Z</time>
      </trkpt>
      <trkpt lat="47.28601" lon="-2.29088">
        <ele>23.69</ele>
        <time>2012-08-24T11:18:51Z</time>
      </trkpt>
      <trkpt lat="47.28603" lon="-2.29084">
        <ele>22.73</ele>
        <time>2012-08-24T11:18:52Z</time>
      </trkpt>
      <trkpt lat="47.28604" lon="-2.29079">
        <ele>22.25</ele>
        <time>2012-08-24T11:18:53Z</time>
      </trkpt>
      <trkpt lat="47.28626" lon="-2.29055">
        <ele>21.29</ele>
        <time>2012-08-24T11:19:02Z</time>
      </trkpt>
      <trkpt lat="47.28664" lon="-2.29052">
        <ele>20.32</ele>
        <time>2012-08-24T11:19:13Z</time>
      </trkpt>
      <trkpt lat="47.28712" lon="-2.29053">
        <ele>20.32</ele>
        <time>2012-08-24T11:19:27Z</time>
      </trkpt>
      <trkpt lat="47.28722" lon="-2.29052">
        <ele>20.32</ele>
        <time>2012-08-24T11:19:31Z</time>
      </trkpt>
      <trkpt lat="47.28725" lon="-2.29049">
        <ele>20.32</ele>
        <time>2012-08-24T11:19:32Z</time>
      </trkpt>
      <trkpt lat="47.28726" lon="-2.29045">
        <ele>20.32</ele>
        <time>2012-08-24T11:19:33Z</time>
      </trkpt>
      <trkpt lat="47.28728" lon="-2.29041">
        <ele>20.32</ele>
        <time>2012-08-24T11:19:34Z</time>
      </trkpt>
      <trkpt lat="47.2873" lon="-2.29036">
        <ele>20.32</ele>
        <time>2012-08-24T11:19:35Z</time>
      </trkpt>
      <trkpt lat="47.28763" lon="-2.28973">
        <ele>20.32</ele>
        <time>2012-08-24T11:19:48Z</time>
      </trkpt>
      <trkpt lat="47.2877" lon="-2.28959">
        <ele>20.32</ele>
        <time>2012-08-24T11:19:51Z</time>
      </trkpt>
      <trkpt lat="47.28769" lon="-2.28953">
        <ele>20.32</ele>
        <time>2012-08-24T11:19:52Z</time>
      </trkpt>
      <trkpt lat="47.28768" lon="-2.28948">
        <ele>20.32</ele>
        <time>2012-08-24T11:19:53Z</time>
      </trkpt>
      <trkpt lat="47.28765" lon="-2.28943">
        <ele>20.32</ele>
        <time>2012-08-24T11:19:54Z</time>
      </trkpt>
      <trkpt lat="47.28763" lon="-2.28938">
        <ele>20.32</ele>
        <time>2012-08-24T11:19:55Z</time>
      </trkpt>
      <trkpt lat="47.2874" lon="-2.28881">
        <ele>22.25</ele>
        <time>2012-08-24T11:20:07Z</time>
      </trkpt>
      <trkpt lat="47.28718" lon="-2.28824">
        <ele>23.69</ele>
        <time>2012-08-24T11:20:20Z</time>
      </trkpt>
      <trkpt lat="47.28707" lon="-2.28764">
        <ele>24.17</ele>
        <time>2012-08-24T11:20:34Z</time>
      </trkpt>
      <trkpt lat="47.28699" lon="-2.28718">
        <ele>24.65</ele>
        <time>2012-08-24T11:20:44Z</time>
      </trkpt>
      <trkpt lat="47.28693" lon="-2.28662">
        <ele>26.57</ele>
        <time>2012-08-24T11:20:56Z</time>
      </trkpt>
      <trkpt lat="47.2869" lon="-2.28598">
        <ele>28.5</ele>
        <time>2012-08-24T11:21:09Z</time>
      </trkpt>
      <trkpt lat="47.28693" lon="-2.28582">
        <ele>28.02</ele>
        <time>2012-08-24T11:21:15Z</time>
      </trkpt>
      <trkpt lat="47.28694" lon="-2.28581">
        <ele>28.02</ele>
        <time>2012-08-24T11:21:16Z</time>
      </trkpt>
      <trkpt lat="47.28706" lon="-2.28582">
        <ele>26.09</ele>
        <time>2012-08-24T11:21:26Z</time>
      </trkpt>
      <trkpt lat="47.28711" lon="-2.28584">
        <ele>25.61</ele>
        <time>2012-08-24T11:21:42Z</time>
      </trkpt>
      <trkpt lat="47.2871" lon="-2.28585">
        <ele>25.13</ele>
        <time>2012-08-24T11:22:04Z</time>
      </trkpt>
      <trkpt lat="47.28709" lon="-2.28585">
        <ele>25.13</ele>
        <time>2012-08-24T11:22:18Z</time>
      </trkpt>
    </trkseg>
  </trk>
</gpx>